[[{"header":{"parameterUnit":"m.s-1","parameterCategory":1,"la1":30.6,"la2":29.2853,"lo1":-89.7004,"lo2":-87.6739,"dy":0.0162,"dx":0.0183,"nx":112,"ny":82,"refTime":"2023-10-20T06:00:00:Z","depth":0,"parameterNumber":2,"parameterNumberName":"U-component_of_WINDS"},"data":[0.0,0.0,0.0,0.0,0.0,0.0,0.0,0.0,0.0,0.0,0.0,0.0,0.0,0.0,0.0,0.0,0.0,0.0,0.0,0.0,0.0,0.0,0.0,0.0,0.0,0.0,0.0,0.0,0.0,0.0,0.0,0.0,0.0,0.0,0.0,0.0,0.0,0.0,0.0,0.0,0.0,0.0,0.0,0.0,0.0,0.0,0.0,0.0,0.0,0.0,0.0,0.0,0.0,0.0,0.0,0.0,0.0,0.0,0.0,0.0,0.0,0.0,0.0,0.0,0.0,0.0,0.0,0.0,0.0,0.0,0.0,0.0,0.0,0.0,0.0,0.0,0.0,0.0,0.0,0.0,0.0,0.0,0.0,0.0,0.0,0.0,0.0,0.0,0.0,0.0,0.0,0.0,0.0,0.0,0.0,0.0824,0.1343,0.1295,0.0,0.0,0.0,0.0,0.0,0.0,0.0,0.0,0.0,0.0,0.0,0.0,0.0,0.0,0.0,0.0,0.0,0.0,0.0,0.0,0.0,0.0,0.0,0.0,0.0,0.0,0.0,0.0,0.0,0.0,0.0,0.0,0.0,0.0,0.0,0.0,0.0,0.0,0.0,0.0,0.0,0.0,0.0,0.0,0.0,0.0,0.0,0.0,0.0,0.0,0.0,0.0,0.0,0.0,0.0,0.0,0.0,0.0,0.0,0.0,0.0,0.0,0.0,0.0,0.0,0.0,0.0,0.0,0.0,0.0,0.0,0.0,0.0,0.0,0.0,0.0,0.0,0.0,0.0,0.0,0.0,0.0,0.0,0.0,0.0,0.0,0.0,0.0,0.0,0.0,0.0,0.0,0.0,0.0,0.0,0.0,0.0,0.0,0.0,0.0,0.0,0.0,0.0,0.0,0.0,0.0,0.0,0.0,0.0,0.0157,0.0538,0.1258,0.0,0.0,0.0,0.0,0.0,0.0,0.0,0.0,0.0,0.0,0.0,0.0,0.0,0.0,0.0,0.0,0.0,0.0,0.0,0.0,0.0,0.0,0.0,0.0,0.0,0.0,0.0,0.0,0.0,0.0,0.0,0.0,0.0,0.0,0.0,0.0,0.0,0.0,0.0,0.0,0.0,0.0,0.0,0.0,0.0,0.0,0.0,0.0,0.0,0.0,0.0,0.0,0.0,0.0,0.0,0.0,0.0,0.0,0.0,0.0,0.0,0.0,0.0,0.0,0.0,0.0,0.0,0.0,0.0,0.0,0.0,0.0,0.0,0.0,0.0,0.0,0.0,0.0,0.0,0.0,0.0,0.0,0.0,0.0,0.0,0.0,0.0,0.0,0.0,0.0,0.0,0.0,0.0,0.0,0.0,0.0,0.0,0.0,0.0,0.0,0.0,0.0,0.0,0.0347,0.0443,0.004,0.0,0.0,0.0,0.054,0.1207,0.2005,0.2216,0.0,0.0,0.0,0.0,0.0,0.0,0.0,0.0,0.0,0.0,0.0,0.0,0.0,0.0,0.0,0.0,0.0,0.0,0.0,0.0,0.0,0.0,0.0,0.0,0.0,0.0,0.0,0.0,0.0,0.0,0.0,0.0,0.0,0.0,0.0,0.0,0.0,0.0,0.0,0.0,0.0,0.0,0.0,0.0,0.0,0.0,0.0,0.0,0.0,0.0,0.0,0.0,0.0,0.0,0.0,0.0,0.0,0.0,0.0,0.0,0.0,0.0,0.0,0.0,0.0,0.0,0.0,0.0,0.0,0.0,0.0,0.0,0.0,0.0,0.0,0.0,0.0,0.0,0.0,0.0,0.0,0.0,0.0,0.0,0.0,0.0,0.0,0.0,0.0,0.0,0.0,0.0,0.0,0.0,0.0,0.0,0.0,0.0,0.0,0.0,0.0,0.0,0.0494,0.0626,0.0061,0.0,0.0,0.0,0.075,0.1648,0.263,0.2789,0.0,0.0,0.0,0.0,0.0,0.0,0.0,0.0,0.0,0.0,0.0,0.0,0.0,0.0,0.0,0.0,0.0,0.0,0.0,0.0,0.0,0.0,0.0,0.0,0.0,0.0,0.0,0.0,0.0,0.0,0.0,0.0,0.0,0.0,0.0,0.0,0.0,0.0,0.0,0.0,0.0,0.0,0.0,0.0,0.0,0.0,0.0,0.0,0.0,0.0,0.0,0.0,0.0,0.0,0.0,0.0,0.0,0.0,0.0,0.0,0.0,0.0,0.0,0.0,0.0,0.0,0.0,0.0,0.0,0.0,0.0,0.0,0.0,0.0,0.0,0.0,0.0,0.0,0.0,0.0,0.0,0.0,0.0,0.0,0.0,0.0,0.0,0.0,0.0,0.0,0.0,0.0,0.0,0.0,0.0,0.0,0.0,0.0,0.0,0.0,0.0,0.0,0.0038,0.0061,0.0,0.0,0.0,0.0,0.0061,0.0855,0.2581,0.2715,0.0,0.0,0.0,0.0,0.0,0.0,0.0,0.0,0.0,0.0,0.0,0.0,0.0,0.0,0.0,0.0,0.0,0.0,0.0,0.0,0.0,0.0,0.0,0.0,0.0,0.0,0.0,0.0,0.0,0.0,0.0,0.0,0.0,0.0,0.0,0.0,0.0,0.0,0.0,0.0,0.0,0.0,0.0,0.0,0.0,0.0,0.0,0.0,0.0,0.0,0.0,0.0,0.0,0.0,0.0,0.0,0.0,0.0,0.0,0.0,0.0,0.0,0.0,0.0,0.0,0.0,0.0,0.0,0.0,0.0,0.0,0.0,0.0,0.0,0.0,0.0,0.0,0.0,0.0,0.0,0.0,0.0,0.0,0.0,0.0,0.0,0.0,0.0,0.0,0.0,0.0,0.0,0.0,0.0,0.0,0.0,0.0,0.0,0.0,0.0,0.0,0.0,0.0397,0.0507,0.0043,0.0,0.0,0.0,0.0,0.0529,0.1744,0.0,0.0,0.0,0.0,0.0,0.0,0.0,0.0,0.0,0.0,0.0,0.0,0.0,0.0,0.0,0.0,0.0,0.0,0.0,0.0,0.0,0.0,0.0,0.0,0.0,0.0,0.0,0.0,0.0,0.0,0.0,0.0,0.0,0.0,0.0,0.0,0.0,0.0,0.0,0.0,0.0,0.0,0.0,0.0,0.0,0.0,0.0,0.0,0.0,0.0,0.0,0.0,0.0,0.0,0.0,0.0,0.0,0.0,0.0,0.0,0.0,0.0,0.0,0.0,0.0,0.0,0.0,0.0,0.0,0.0,0.0,0.0,0.0,0.0,0.0,0.0,0.0,0.0,0.0,0.0,0.0,0.0,0.0,0.0,0.0,0.0,0.0,0.0,0.0,0.0,0.0,0.0,0.0,0.0,0.0,0.0,0.0,0.0,0.0,0.0,0.0,0.0,0.007,0.0442,0.0559,0.0044,0.0,0.0,0.0,0.0,0.0375,0.1249,0.0,0.0,0.0,0.0,0.0,0.0,0.0,0.0,0.0,0.0,0.0,0.0,0.0,0.0,0.0,0.0,0.0,0.0,0.0,0.0,0.0,0.0,0.0,0.0,0.0,0.0,0.0,0.0,0.0,0.0,0.0,0.0,0.0,0.0,0.0,0.0,0.0,0.0,0.0,0.0,0.0,0.0,0.0,0.0,0.0,0.0,0.0,0.0,0.0,0.0,0.0,0.0,0.0,0.0,0.0,0.0,0.0,0.0,0.0,0.0,0.0,0.0,0.0,0.0,0.0,0.0,0.0,0.0,0.0,0.0,0.0,0.0,0.0,0.0,0.0,0.0,0.0,0.0,0.0,0.0,0.0,0.0,0.0,0.0,0.0,0.0,0.0,0.0,0.0,0.0,0.0,0.0,0.0,0.0,0.0,0.0,0.0,0.0,0.0,0.0,0.0,0.0,0.0,0.0,0.0,0.0,0.0,0.0,0.0,0.0,0.0372,0.0,0.0,0.0,0.0,0.0,0.0,0.0,0.0,0.0,0.0,0.0,0.0,0.0,0.0,0.0,0.0,0.0,0.0,0.0,0.0,0.0,0.0,0.0,0.0,0.0,0.0,0.0,0.0,0.0,0.0,0.0,0.0,0.0,0.0,0.0,0.0,0.0,0.0,0.0,0.0,0.0,0.0,0.0,0.0,0.0,0.0,0.0,0.0,0.0,0.0,0.0,0.0,0.0,0.0,0.0,0.0,0.0,0.0,0.0,0.0,0.0,0.0,0.0,0.0,0.0,0.0,0.0,0.0,0.0,0.0,0.0,0.0,0.0,0.0,0.0,0.0,0.0,0.0,0.0,0.0,0.0,0.0,0.0,0.0,0.0,0.0,0.0,0.0,0.0,0.0,0.0,0.0,0.0,0.0,0.0,0.0,0.0,0.0,0.0,0.0,0.0,0.0,0.0,0.0,0.0,0.0,0.0,0.0,0.0,0.0,0.0,0.0107,0.0375,0.0,0.0,0.0,0.0,0.0,0.0,0.0,0.0,0.0,0.0,0.0,0.0,0.0,0.0,0.0,0.0,0.0,0.0,0.0,0.0,0.0,0.0,0.0,0.0,0.0,0.0,0.0,0.0,0.0,0.0,0.0,0.0,0.0,0.0,0.0,0.0,0.0,0.0,0.0,0.0,0.0,0.0,0.0,0.0,0.0,0.0,0.0,0.0,0.0,0.0,0.0,0.0,0.0,0.0,0.0,0.0,0.0,0.0,0.0,0.0,0.0,0.0,0.0,0.0,0.0,0.0,0.0,0.0,0.0,0.0,0.0,0.0,0.0,0.0,0.0,0.0,0.0,0.0,0.0,0.0,0.0,0.0,0.0,0.0,0.0,0.0,0.0,0.0,0.0,0.0,0.0,0.0,0.0,0.0,0.0,0.0,0.0,0.0,0.0,0.0,0.0,0.0,0.0,0.0,0.0,0.0,0.0,0.0,0.0,0.0,0.0,0.0,0.0,0.0,0.0,0.0,0.0,0.0,0.0,0.0,0.0,0.0,0.0,0.0,0.0,0.0,0.0,0.0,0.0,0.0,0.0,0.0,0.0,0.0,0.0,0.0,0.0,0.0,0.0,0.0,0.0,0.0,0.0,0.0,0.0,0.0,0.0,0.0,0.0,0.0,0.0,0.0,0.0,0.0,0.0,0.0,0.0,0.0,0.0,0.0,0.0,0.0,0.0,0.0,0.0,0.0,0.0,0.0,0.0,0.0,0.0,0.0,0.0,0.0,0.0,0.0,0.0,0.0,0.0,0.0,0.0,0.0,0.0,0.0,0.0,0.0,0.0,0.0,0.0,0.0,0.0,0.0,0.0,0.0,0.0,0.0,0.0,0.0,0.0,0.0,0.0,0.0,0.0,0.0,0.0,0.0,0.0,0.0,0.0,0.0,0.0,0.0,0.0,0.0,0.0,0.0,0.0,0.0,0.0,0.0,0.0,0.0,0.0,0.0,0.0,0.0,0.0,0.0,0.0,0.0,0.0,0.0,0.0,0.0,0.0,0.0,0.0,0.0,0.0,0.0,0.0,0.0,0.0,0.0,0.0,0.0,0.0,0.0,0.0,0.0,0.0,0.0,0.0,0.0,0.0,0.0,0.0,0.0,0.0,0.0,0.0,0.0,0.0,0.0,0.0,0.0,0.0,0.0,0.0,0.0,0.0,0.0,0.0,0.0,0.0,0.0,0.0,0.0,0.0,0.0,0.0,0.0,0.0,0.0,-0.5213,-0.4678,0.0,0.0,0.0,0.0,0.0,0.0,0.0,0.0,0.0,0.0,0.0,0.0,0.0,0.0,0.0,0.0,0.0,0.0,0.0,0.0,0.0,0.0,0.0,0.0,0.0,0.0,0.0,0.0,0.0,0.0,0.0,0.0,0.0,0.0,0.0,0.0,0.0,0.0,0.0,0.0,0.0,0.0,0.0,0.0,0.0,0.0,0.0,0.0,0.0,0.0,0.0,0.0,0.0,0.0,0.0,0.0,0.0,0.0,0.0,0.0,0.0,0.0,0.0,0.0,0.0,0.0,0.0,0.0,0.0,0.0,0.0,0.0,0.0,0.0,0.0,0.0,0.0,0.0,0.0,0.0,0.0,0.0,0.0,0.0,0.0,0.0,0.0,0.0,0.0,0.0,0.0,0.0,0.0,0.0,0.0,0.0,0.0,0.0,0.0,0.0,0.0,0.0,0.0,0.0,0.0,0.0,0.0,0.0,0.0,0.0,-0.5786,-0.5494,0.0,0.0,0.0,0.0,0.0,0.0,0.0,0.0,0.0,0.0,0.0,0.0,0.0,0.0,0.0,0.0,0.0,0.0,0.0,0.0,0.0,0.0,0.0,0.0,0.0,0.0,0.0,0.0,0.0,0.0,0.0,0.0,0.0,0.0,0.0,0.0,0.0,0.0,0.0,0.0,0.0,0.0,0.0,0.0,0.0,0.0,0.0,0.0,0.0,0.0,0.0,0.0,0.0,0.0,0.0,0.0,0.0,0.0,0.0,0.0,0.0,0.0,0.0,0.0,0.0,0.0,0.0,0.0,0.0,0.0,0.0,0.0,0.0,0.0,0.0,0.0,0.0,0.0,0.0,0.0,0.0,0.0,0.0,0.0,0.0,0.0,0.0,0.0,0.0,0.0,0.0,0.0,0.0,0.0,0.0,0.0,0.0,0.0,0.0,0.0,0.0,0.0,0.0,0.0,-0.6424,-0.6485,-0.6763,-0.6641,-0.6654,-0.6743,-0.6302,-0.6219,-0.634,-0.5835,0.0,0.0,0.0,0.0,0.0,0.0,0.0,0.0,0.0,0.0,0.0,0.0,0.0,0.0,0.0,0.0,0.0,0.0,0.0,0.0,0.0,0.0,-0.0642,-0.0404,-0.0344,-0.0274,-0.0059,0.0,0.0,0.0,0.0,0.0,0.0,0.0,0.0,0.0,0.0,0.0,0.0,0.0,0.0,0.0,0.0,0.0,0.0,0.0,0.0,0.0,0.0,0.0,0.0,0.0,0.0,0.0,0.0,0.0,0.0,0.0,0.0,0.0,0.0,0.0,0.0,0.0,0.0,0.0,0.0,0.0,0.0,0.0,0.0,0.0,0.0,0.0,0.0,0.0,0.0,0.0,0.0,0.0,0.0,0.0,-0.9869,-1.0058,0.0,0.0,0.0,0.0,0.0,0.0,0.0,0.0,0.0,0.0,0.0,0.0,0.0,-0.6634,-0.724,-0.7246,-0.7421,-0.7783,-0.7763,-0.777,-0.781,-0.779,-0.779,-0.779,-0.7502,0.0,-0.6634,-0.6559,0.0,0.0,0.0,0.0,0.0,0.0,0.0,0.0,0.0,0.0,0.0,0.0,0.0,0.0,0.0,0.0,0.0,0.0,0.0,0.0,0.0,0.0,-0.3173,-0.2011,-0.1734,-0.1425,-0.0255,0.0,0.0,0.0,0.0,0.0,0.0,0.0,0.0,0.0,0.0,0.0,0.0,0.0,0.0,0.0,0.0,0.0,0.0,0.0,0.0,0.0,0.0,0.0,0.0,0.0,0.0,0.0,0.0,0.0,0.0,0.0,0.0,0.0,0.0,0.0,0.0,0.0,0.0,0.0,0.0,0.0,0.0,0.0,0.0,0.0,0.0,0.0,0.0,0.0,0.0,0.0,0.0,0.0,0.0,-1.0448,-1.125,-1.1588,-1.1663,-1.1583,0.0,0.0,0.0,0.0,0.0,0.0,0.0,0.0,0.0,-1.1185,-1.019,-0.9908,-1.0422,-1.0431,-1.0135,-0.9519,-0.9519,-0.9093,-0.8289,-0.8289,-0.8289,-0.8282,-0.8153,-0.7943,-0.7678,-0.7339,-0.7156,-0.7076,0.0,0.0,0.0,0.0,-0.6308,-0.6329,-0.6484,-0.6702,-0.6797,-0.6033,0.0,0.0,0.0,0.0,0.0,0.0,0.0,-0.334,-0.3816,-0.41,-0.4134,-0.3544,-0.3394,-0.3243,-0.2661,-0.184,-0.0985,-0.0155,0.0,0.0,0.0,0.0,0.0,0.0,0.0,0.0,0.0,0.0,0.0,0.0,0.0,0.0,0.0,0.0,0.0,0.0,0.0,0.0,0.0,0.0,0.0,0.0,0.0,0.0,0.0,0.0,0.0,0.0,0.0,0.0,0.0,0.0,0.0,0.0,0.0,0.0,0.0,0.0,0.0,0.0,0.0,0.0,0.0,0.0,0.0,0.0,0.0,0.0,0.0,-1.132,-1.2382,-1.3052,-1.2945,-1.2818,0.0,0.0,0.0,0.0,0.0,0.0,-1.4133,-1.3467,-1.3288,-1.3731,-1.2887,-1.2585,-1.2977,-1.3039,-1.2575,-1.1566,-1.1566,-1.1008,-0.993,-0.9536,-0.9348,-0.9321,-0.8898,-0.8716,-0.8634,-0.8052,-0.7784,-0.7675,-0.7593,-0.7339,-0.7041,-0.7041,-0.7041,-0.7054,-0.7129,-0.7299,-0.732,-0.6479,-0.6339,-0.6299,-0.5275,0.0,0.0,0.0,0.0,-0.4843,-0.51,-0.5343,-0.5445,-0.5095,-0.5012,-0.4801,-0.406,-0.3,-0.1869,-0.0766,-0.0259,0.0,0.0,0.0,0.0,0.0,0.0,0.0,0.0,0.0,0.0,0.0,0.0,0.0,0.0,0.0,0.0,0.0,0.0,0.0,0.0,0.0,0.0,0.0,0.0,0.0,0.0,0.0,0.0,0.0,0.0,0.0,0.0,0.0,0.0,0.0,0.0,0.0,0.0,0.0,0.0,0.0,0.0,0.0,0.0,0.0,0.0,0.0,0.0,0.0,0.0,0.0,0.0,-1.3929,-1.4736,0.0,0.0,0.0,0.0,-1.4036,-1.4269,-1.4808,-1.5648,-1.4516,-1.411,-1.4717,-1.3769,-1.3309,-1.3466,-1.372,-1.3881,-1.3935,-1.3935,-1.3879,-1.3766,-1.2312,-1.1637,-1.1551,-1.0018,-0.9281,-0.9139,-0.8655,-0.8457,-0.8423,-0.8088,-0.7966,-0.7921,-0.7921,-0.7921,-0.7986,-0.8296,-0.843,-0.8418,-0.8366,-0.8359,-0.8278,-0.7773,-0.704,0.0,0.0,-0.6821,-0.66,-0.7558,-0.805,-0.7974,-0.67,-0.6389,-0.5646,-0.2894,-0.2259,-0.2176,-0.2111,-0.0951,0.0,0.0,0.0,0.0,0.0,0.0,0.0,0.0,0.0,0.0,0.0,0.0,0.0,0.0,0.0,0.0,0.0,0.0,0.0,0.0,0.0,0.0,0.0,0.0,0.0,0.0,0.0,0.0,0.0,0.0,0.0,0.0,0.0,0.0,0.0,0.0,0.0,0.0,0.0,0.0,0.0,0.0,0.0,0.0,0.0,0.0,0.0,0.0,0.0,0.0,0.0,0.0,-1.483,-1.5204,0.0,-1.5341,-1.5435,-1.5431,-1.5194,-1.6005,-1.662,-1.6941,-1.6899,-1.696,-1.718,-1.6823,-1.6678,-1.671,-1.6808,-1.6422,-1.553,-1.553,-1.5024,-1.4063,-1.2489,-1.1811,-1.1696,-1.0098,-0.9376,-0.9315,-0.9158,-0.8893,-0.8621,-0.8486,-0.8411,-0.8323,-0.8323,-0.8323,-0.8336,-0.8471,-0.8505,-0.8505,-0.8505,-0.8505,-0.8478,-0.8289,-0.8019,-0.7821,-0.8057,-0.8013,-0.7994,-0.8367,-0.8595,-0.8642,-0.8173,-0.8031,-0.7759,-0.6746,-0.5759,-0.5103,-0.5103,-0.2349,0.0,0.0,0.0,0.0,0.0,0.0,0.0,0.0,0.0,0.0,0.0,0.0,0.0,0.0,0.0,0.0,0.0,0.0,0.0,0.0,0.0,0.0,0.0,0.0,0.0,0.0,0.0,0.0,0.0,0.0,0.0,0.0,0.0,0.0,0.0,0.0,0.0,0.0,0.0,0.0,0.0,0.0,0.0,0.0,0.0,0.0,0.0,0.0,0.0,0.0,-1.3868,-1.4923,-1.5618,-1.5952,-1.6246,-1.6528,-1.6635,-1.6702,-1.6702,-1.7448,-1.7889,-1.7889,-1.8357,-1.8637,-1.8637,-1.8824,-1.8931,-1.8931,-1.9025,-1.8565,-1.7621,-1.7621,-1.709,-1.6095,-1.4552,-1.3791,-1.3596,-1.2005,-1.1206,-1.1094,-1.1094,-1.055,-0.9699,-0.9154,-0.8872,-0.8811,-0.8811,-0.8811,-0.8805,-0.875,-0.8736,-0.873,-0.8655,-0.8635,-0.8635,-0.8635,-0.8635,-0.8635,-0.8635,-0.871,-0.8757,-0.8757,-0.8838,-0.8912,-0.8912,-0.8912,-0.8768,-0.8269,-0.7399,-0.6561,-0.6061,-0.3129,-0.0729,-0.0747,-0.032,0.0,0.0,0.0,0.0,0.0,0.0,0.0,0.0,0.0,0.0,0.0,0.0,0.0,0.0,0.0,0.0,0.0,0.0,0.0,0.0,0.0,0.0,0.0,0.0,0.0,0.0,0.0,0.0,0.0,0.0,0.0,0.0,0.0,0.0,0.0,0.0,0.0,0.0,0.0,0.0,0.0,0.0,0.0,0.0,0.0,0.0,-1.3733,-1.4941,-1.5968,-1.6324,-1.7113,-1.7729,-1.7982,-1.833,-1.8504,-1.8504,-1.8517,-1.8531,-1.8531,-1.8783,-1.893,-1.893,-1.9519,-1.9813,-1.9813,-2.0064,-2.0197,-2.0197,-2.0197,-2.0197,-2.0136,-1.8606,-1.7718,-1.7331,-1.5691,-1.479,-1.4441,-1.4441,-1.3384,-1.1664,-1.0106,-0.9439,-0.941,-0.941,-0.941,-0.939,-0.924,-0.9214,-0.9165,-0.8967,-0.8926,-0.8926,-0.8926,-0.8926,-0.8926,-0.8926,-0.8926,-0.8926,-0.8926,-0.8926,-0.8926,-0.8926,-0.8926,-0.8532,-0.7104,-0.6793,-0.6348,-0.4923,-0.3413,-0.2326,-0.2276,-0.1094,-0.0132,-0.0076,-0.0076,0.0,0.0,0.0,0.0,0.0,0.0,0.0,0.0,0.0,0.0,0.0,0.0,0.0,0.0,0.0,0.0,0.0,0.0,0.0,0.0,0.0,0.0,0.0,0.0,0.0,0.0,0.0,0.0,0.0,0.0,0.0,0.0,0.0,0.0,0.0,0.0,0.0,0.0,0.0,0.0,0.0,-1.4781,-1.5952,-1.5848,-1.6417,-1.7086,-1.7822,-1.8117,-1.8277,-1.8357,-1.8637,-1.8783,-1.8783,-1.9199,-1.9439,-1.9439,-1.972,-1.9837,-1.9837,-1.9997,-2.0077,-2.0077,-2.0157,-2.0197,-2.0197,-2.0197,-2.0197,-2.0136,-1.8606,-1.7855,-1.7662,-1.6058,-1.5289,-1.5207,-1.5207,-1.4074,-1.2316,-1.1449,-1.0438,-0.941,-0.941,-0.941,-0.9403,-0.9362,-0.9349,-0.9342,-0.9273,-0.9259,-0.9259,-0.9259,-0.9259,-0.9259,-0.9259,-0.9259,-0.9259,-0.9259,-0.9259,-0.9259,-0.9259,-0.9259,-0.9144,-0.8737,-0.8651,-0.8536,-0.8128,-0.6796,-0.5353,-0.4073,-0.3529,-0.2886,-0.1771,-0.1605,-0.1198,-0.0136,0.0,0.0,0.0,0.0,0.0,0.0,0.0,0.0,0.0,0.0,0.0,0.0,0.0,0.0,0.0,0.0,0.0,0.0,0.0,0.0,0.0,0.0,0.0,0.0,0.0,0.0,0.0,0.0,0.0,0.0,0.0,0.0,0.0,0.0,0.0,0.0,0.0,0.0,0.0,-1.5968,-1.7382,-1.7769,-1.7889,-1.809,-1.8611,-1.8891,-1.9038,-1.9038,-1.9305,-1.9437,-1.9437,-1.9757,-1.9987,-1.9987,-2.0267,-2.0414,-2.0414,-2.0504,-2.057,-2.057,-2.057,-2.057,-2.057,-2.057,-2.057,-2.054,-1.9647,-1.9168,-1.9025,-1.8099,-1.7596,-1.7472,-1.7472,-1.6418,-1.4646,0.0,0.0,0.0,0.0,-0.9564,-0.9557,-0.9496,-0.9476,-0.9462,-0.943,-0.941,-0.941,-0.941,-0.941,-0.941,-0.941,-0.941,-0.941,-0.941,-0.941,-0.941,-0.941,-0.941,-0.941,-0.941,-0.941,-0.941,-0.941,-0.8671,0.0,-0.6721,-0.5494,-0.4363,-0.3477,-0.3335,-0.3035,-0.2162,-0.2051,-0.18,-0.1107,-0.1054,-0.0756,-0.0055,0.0,0.0,0.0,0.0,0.0,0.0,0.0,0.0,0.0,0.0,0.0,0.0,0.0,0.0,0.0,0.0,0.0,0.0,0.0,0.0,0.0,0.0,0.0,0.0,0.0,0.0,0.0,0.0,0.0,0.0,0.0,0.0,0.0,-1.7061,-1.8464,-1.9321,-1.9252,-1.9076,-1.905,-1.9533,-1.9853,-1.9853,-2.0077,-2.025,-2.025,-2.0277,-2.0304,-2.0304,-2.0588,0.0,0.0,0.0,-2.1109,-2.1109,-2.1109,-2.1109,-2.1109,-2.1109,-2.1109,-2.1109,-2.1109,-2.0962,-2.0753,-2.0753,-2.0575,-2.0304,-2.0304,-1.9366,-1.7595,-1.4246,-1.1785,-1.0137,-1.0123,-0.9994,-0.9798,-0.9686,0.0,0.0,-0.9476,-0.9429,-0.9429,-0.9429,-0.9429,-0.9429,-0.9429,-0.9429,-0.9429,-0.9429,-0.9429,-0.9429,-0.9429,-0.9429,-0.9429,-0.9429,-0.9429,-0.9429,-0.9429,-0.9429,-0.9429,-0.9429,-0.7197,-0.536,-0.5169,-0.5145,-0.5091,-0.4931,-0.4903,-0.4349,-0.2928,-0.2759,0.0,-0.0673,-0.0547,-0.0546,-0.0562,-0.0548,-0.0539,-0.0538,-0.0376,-0.0265,-0.0256,-0.0077,0.0,0.0,0.0,0.0,0.0,0.0,0.0,0.0,0.0,0.0,0.0,0.0,0.0,0.0,0.0,0.0,0.0,0.0,0.0,0.0,0.0,0.0,-1.7046,-1.8277,-1.9281,-1.9653,-2.011,-2.0254,-1.9983,-2.005,-2.0117,-2.0117,-2.0414,-2.0588,-2.0588,-2.0802,-2.0935,-2.0935,-2.0989,-2.1029,-2.1029,-2.1082,-2.1109,-2.1109,-2.1109,-2.1109,-2.1109,-2.1109,0.0,-2.1109,-2.1109,-2.1082,-2.1029,-2.1029,-2.0989,-2.0935,-2.0935,-1.987,-1.8019,-1.5804,-1.3874,-1.2274,-1.2127,-1.1156,-0.9954,-0.9805,-0.9751,-0.9744,-0.9747,-0.9734,-0.9734,-0.9734,-0.9734,0.0,-0.9734,-0.9734,-0.9734,-0.9734,-0.9734,-0.9734,-0.9734,-0.9734,-0.9734,-0.9734,-0.9734,-0.9734,-0.9734,-0.9734,-0.9734,-0.9734,-0.9072,-0.8111,-0.6851,-0.667,-0.6241,-0.5062,-0.489,-0.4797,-0.4457,-0.4436,-0.4297,-0.3974,-0.3956,-0.3954,-0.3949,-0.3957,-0.3894,-0.3782,-0.2656,-0.1931,-0.1783,-0.0604,0.0,0.0,0.0,0.0,0.0,0.0,0.0,0.0,0.0,0.0,0.0,0.0,0.0,0.0,0.0,0.0,0.0,0.0,-1.4772,0.0,0.0,-1.7355,-1.7943,-1.9025,-1.9907,-2.0201,-2.0525,-2.0646,-2.0468,-2.0588,-2.0637,-2.0637,-2.0802,-2.0895,-2.0895,-2.1029,-2.1109,-2.1109,-2.1109,-2.1109,-2.1109,-2.1109,-2.1109,-2.1109,-2.1109,-2.1109,-2.1109,-2.1109,-2.1109,-2.1109,-2.1109,-2.1109,-2.1109,-2.1109,-2.1109,-2.1109,-2.1109,-2.0561,-1.9619,-1.8654,-1.6619,-1.4073,-1.3101,-1.2204,-1.1323,-1.0384,-1.0636,-1.1209,-1.0325,-1.0628,-1.1178,-1.0294,-1.0053,-1.0032,-0.9927,-0.9907,-0.9886,-0.9812,-0.9792,-0.9792,-0.9792,-0.9792,-0.9792,-0.9792,-0.9792,-0.9792,-0.9792,-0.9792,-0.9792,-0.9792,-0.97,-0.9331,-0.8575,-0.8456,-0.8188,-0.7438,-0.7348,-0.7044,-0.6243,-0.614,-0.5814,-0.4961,-0.4908,-0.4896,-0.4896,-0.4896,-0.4878,-0.481,-0.4084,-0.3666,-0.3551,-0.2836,-0.2463,-0.2463,-0.2463,-0.2463,-0.2463,-0.2463,-0.1564,0.0,0.0,0.0,0.0,0.0,0.0,0.0,0.0,-1.4745,-1.5508,-1.5668,-1.5922,-1.6752,-1.7662,-1.8409,-1.8851,-1.9706,-2.0414,-2.0722,-2.0793,-2.0793,-2.0793,-2.0962,-2.1109,-2.1109,-2.1109,-2.1109,-2.1109,-2.1109,-2.1109,-2.1109,-2.1109,-2.1109,-2.1109,-2.1109,-2.1109,-2.1109,-2.1109,-2.1109,-2.1109,-2.1109,-2.1109,-2.1109,-2.1109,-2.1109,-2.1109,-2.1109,-2.1109,-2.1109,-2.1109,-2.1109,-2.1109,-2.1109,-1.9255,-1.6356,-1.4586,-1.373,-1.3227,-1.1822,-1.2217,-1.312,-1.1372,-1.1751,-1.2563,-1.0841,-1.0315,-1.0288,-1.0096,-1.0062,-1.0035,-0.9913,-0.991,-0.991,-0.991,-0.991,-0.991,-0.991,-0.991,-0.991,-0.991,-0.991,-0.991,-0.991,-0.991,-0.989,-0.9798,-0.9792,-0.9792,-0.9792,-0.9792,-0.9314,-0.8001,-0.787,-0.7319,-0.5979,-0.5856,-0.5856,-0.5856,-0.5856,-0.5848,-0.5802,-0.5538,-0.5379,-0.5334,-0.5042,-0.4896,-0.4896,-0.4896,-0.4896,-0.4896,-0.4896,-0.3472,-1.1333,-1.1467,-1.2087,-1.2669,-1.334,-1.4322,0.0,0.0,-1.6444,-1.7809,-1.8117,-1.8317,-1.8933,-1.916,-1.9522,-2.0338,-2.0579,-2.0735,-2.1015,-2.1069,-2.1069,-2.1069,-2.1096,-2.1109,-2.1109,-2.1109,-2.1109,-2.1109,-2.1109,-2.1109,-2.1109,-2.1109,-2.1109,-2.1109,-2.1109,-2.1109,-2.1109,-2.1109,-2.1109,-2.1109,-2.1109,-2.1109,-2.1109,-2.1109,-2.1109,-2.1109,-2.1109,-2.1109,-2.1109,-2.1109,-2.1109,-2.1109,-2.1109,-2.0848,-2.0238,-1.838,-1.6717,-1.5329,-1.5015,-1.5049,-1.4924,-1.3183,-1.2744,-1.2563,-1.0841,-1.0315,-1.0308,-1.0256,-1.0288,-1.0249,-1.0267,-1.0229,-1.0229,-1.0229,-1.0229,-1.0229,-1.0229,-1.0229,-1.0229,-1.0229,-1.0229,-1.0229,-1.0229,-1.0229,-1.0134,-0.9832,-0.9792,-0.9792,-0.9792,-0.9792,-0.9724,-0.9552,-0.9522,-0.9455,-0.9284,-0.9254,-0.9254,-0.9254,-0.9254,-0.9196,-0.908,-0.7814,-0.7044,-0.6856,-0.5568,-0.4896,-0.4896,-0.4896,-0.4896,-0.4896,-0.4896,-0.471,-1.3507,-1.348,-1.3761,-1.5227,-1.5615,-1.5992,-1.7422,-1.7649,-1.7782,-1.8584,-1.8878,-1.916,-1.9575,-1.9923,-2.0284,0.0,-2.0815,-2.0975,-2.1096,-2.1109,-2.1109,-2.1109,-2.1109,-2.1109,-2.1109,-2.1109,-2.1109,-2.1109,-2.1109,-2.1109,-2.1109,-2.1109,-2.1109,-2.1109,-2.1109,-2.1109,-2.1109,-2.1283,-2.1395,-2.1395,-2.1537,-2.1617,-2.1617,-2.1617,-2.1617,-2.1617,-2.1617,-2.1617,-2.1603,-2.1475,-2.1395,-2.1381,-2.1176,-2.1109,-2.0861,-1.9093,-1.7955,-1.7169,-1.6085,-1.6403,-1.6942,-1.5194,-1.5322,-1.5831,-1.4084,-1.357,-1.3544,-1.3462,-1.2713,-1.19,-1.1838,-1.1063,-1.0315,-1.0315,-1.0315,-1.0315,-1.0315,-1.0315,-1.0315,-1.0315,-1.0315,-1.0315,-1.0315,-1.0315,-1.0236,-1.0107,-1.0086,-1.0086,-1.0086,-1.0086,-1.0086,-1.0086,-1.0086,-1.0086,-1.0086,-1.0086,-1.0053,-0.9927,-0.992,-0.9859,-0.971,-0.9125,-0.8762,-0.8671,-0.8068,-0.7763,-0.7763,-0.7763,-0.7763,-0.7763,-0.7763,-0.7763,-1.4736,-1.4843,-1.507,-1.6887,-1.7261,-1.7448,-1.8397,-1.8611,-1.8718,-1.9063,-1.9332,-1.9629,-1.9973,-2.0418,-2.0726,-2.0806,-2.0975,-2.1109,-2.1109,-2.1109,-2.1109,-2.1109,-2.1109,-2.1109,-2.1109,-2.1109,-2.1109,-2.1109,-2.1109,-2.1109,-2.1109,-2.1109,-2.1149,-2.1229,-2.1229,-2.1269,-2.1349,-2.1596,-2.1703,-2.1703,-2.1917,-2.1991,-2.1991,-2.1991,-2.1991,-2.1991,-2.1991,-2.1991,-2.1964,-2.1796,-2.1703,-2.1689,-2.143,-2.1349,-2.1176,-1.9843,-1.9288,-1.9024,-1.7763,-1.8148,-1.8928,-1.7173,-1.7474,-1.818,-1.6431,-1.5913,-1.5786,-1.5209,-1.4143,-1.3023,-1.2458,-1.1347,-1.0399,-1.0399,-1.0399,-1.0399,-1.0399,-1.0399,-1.0399,-1.0399,-1.0399,-1.0399,-1.0399,-1.0399,-1.0399,-1.0399,-1.0399,-1.0371,-1.0322,-1.0315,-1.0315,-1.0315,-1.0315,-1.0315,-1.0315,-1.0315,-1.0236,-1.0089,-1.0082,-1.0035,-0.9951,-0.9951,-0.9951,-0.9951,-0.9951,-0.9951,-0.9951,-0.9951,-0.9951,-0.9951,-0.9951,-0.9951,-1.3902,-1.4544,-1.5253,-1.6433,-1.7595,-1.8517,-1.881,-1.8876,-1.9078,-1.9653,-1.9786,-1.996,-2.0579,-2.0699,-2.0806,-2.1056,-2.1096,-2.1109,-2.1109,-2.1109,-2.1109,-2.1109,-2.1109,-2.1109,0.0,-2.1109,-2.1109,-2.1109,-2.1109,-2.1109,-2.1109,-2.1109,-2.1243,-2.1569,-2.1569,-2.1703,-2.1951,-2.1964,-2.201,-2.201,-2.201,-2.1991,-2.1991,-2.1991,-2.1991,-2.1991,-2.1991,-2.1991,-2.1991,-2.1977,-2.201,-2.201,-2.1964,-2.1964,-2.1924,-2.1611,-2.1285,-2.1014,-2.0951,-2.0982,-2.0716,-1.8992,-1.848,-1.818,-1.6431,-1.5913,-1.5557,-1.3831,-1.3349,-1.289,-1.1193,-1.0737,-1.0704,-1.0704,-1.0704,-1.0704,-1.0704,-1.0704,-1.0704,-1.0704,-1.0704,-1.0704,-1.0704,-1.0704,-1.0704,-1.0704,-1.0704,-1.0602,-1.0317,-1.0315,-1.0315,-1.0315,-1.0315,-1.0315,-1.0315,-1.0315,-1.0308,-1.0308,-1.0308,-1.0301,-1.0263,-1.0263,-1.0263,-1.0263,-1.0263,-1.0263,-1.0263,-1.0263,-1.0263,-1.0263,-1.0263,-1.0263,-1.5431,-1.5965,-1.6446,-1.7836,-1.8477,-1.8851,-1.9145,-1.9225,-1.9308,-1.9495,-1.9227,-1.9052,-1.9439,-1.9359,-1.9452,-2.0134,-2.0401,-2.0637,-2.1056,-2.1109,-2.1109,-2.1109,-2.1109,0.0,0.0,0.0,0.0,-2.1109,-2.1109,-2.1109,-2.1109,-2.1296,-2.1475,-2.1614,-2.177,-2.1917,-2.1991,-2.2178,-2.2271,-2.2271,-2.2472,-2.2599,-2.2599,-2.2599,-2.2599,-2.2599,-2.2599,-2.2599,-2.2586,-2.2352,-2.2271,-2.2258,-2.2058,-2.1991,-2.1977,-2.1917,-2.1777,-2.163,-2.1243,-2.1109,-2.1014,-2.0417,-2.0227,-2.0132,-1.9546,-1.9355,-1.9215,-1.864,-1.7634,-1.6625,-1.6043,-1.5005,-1.4166,-1.4166,-1.3259,-1.2413,-1.2413,-1.1538,-1.0684,-1.0684,-1.0684,-1.0684,-1.0684,-1.0684,-1.0684,-1.0684,-1.0684,-1.0683,-1.0582,-1.0575,-1.0575,-1.0575,-1.0575,-1.0575,-1.0575,-1.0575,-1.0527,-1.0426,-1.0419,-1.0378,-1.0315,-1.0315,-1.0315,-1.0315,-1.0315,-1.0315,-1.0315,-1.0315,-1.0315,-1.0315,-1.0315,-1.0315,-1.6099,-1.678,-1.7328,-1.8583,-1.897,-1.9132,-1.9348,-1.9401,-1.9334,-1.912,-1.8664,-1.8317,-1.829,-1.8223,-1.845,-1.9345,-1.9783,-2.029,-2.1015,-2.1109,-2.1109,-2.1109,-2.1109,-2.1109,0.0,0.0,0.0,-2.1109,-2.1109,-2.1109,-2.1109,-2.1422,-2.1636,-2.1743,-2.1991,-2.2191,-2.2331,-2.2485,-2.2579,-2.2579,-2.28,-2.2893,-2.2893,-2.2893,-2.2893,-2.2893,-2.2893,-2.2893,-2.288,-2.2659,-2.2579,-2.2565,-2.2412,-2.2331,-2.2318,-2.2178,-2.2138,-2.2071,-2.159,-2.1416,-2.1403,-2.1296,-2.1269,-2.1256,-2.1149,-2.1109,-2.0982,-2.0354,-1.9355,-1.834,-1.7731,-1.6754,-1.5913,-1.5913,-1.5037,-1.4232,-1.4232,-1.3357,-1.2578,-1.2578,-1.2578,-1.2347,-1.1729,-1.1108,-1.0684,-1.0684,-1.0684,-1.0684,-1.0684,-1.0684,-1.0684,-1.0684,-1.0684,-1.0684,-1.0684,-1.0684,-1.0644,-1.0582,-1.0575,-1.0534,-1.0439,-1.0439,-1.0439,-1.0439,-1.0439,-1.0439,-1.0439,-1.0439,-1.0439,-1.0439,-1.0439,-1.0439,-1.6029,-1.7046,-1.7862,-1.8703,-1.9158,-1.9401,-1.9401,-1.9361,-1.916,-1.8557,-1.813,-1.7689,0.0,0.0,-1.7782,-1.8663,-1.9372,-2.0107,-2.0962,-2.1096,-2.1109,0.0,0.0,0.0,0.0,0.0,0.0,-2.1109,-2.1109,-2.1122,-2.1136,-2.1448,-2.1743,-2.2004,-2.2285,-2.2579,-2.2893,-2.2893,-2.2893,-2.2893,-2.2893,-2.2893,-2.2893,-2.2893,-2.2893,-2.2893,-2.2893,-2.2893,-2.2893,-2.2893,-2.2893,-2.2893,-2.2893,-2.2893,-2.2867,-2.2539,-2.2445,-2.2405,-2.2124,-2.205,-2.197,-2.1703,-2.1609,-2.1555,-2.1243,-2.1149,-2.08,-1.9136,-1.8676,-1.8291,-1.6635,-1.6203,-1.6203,-1.6203,-1.6148,-1.6084,-1.6084,-1.6019,-1.5944,-1.5944,-1.5879,-1.5238,-1.3481,-1.1817,-1.0744,-1.0744,-1.0744,-1.0704,-1.0691,-1.0684,-1.0684,-1.0684,-1.0684,-1.0684,-1.0684,-1.0684,-1.0684,-1.0684,-1.0684,-1.0684,-1.0684,-1.0684,-1.0684,-1.0684,-1.0684,-1.0684,-1.0684,-1.0684,-1.0684,-1.0684,-1.0684,-1.0684,-1.7782,-1.841,-1.8691,-1.9145,-1.9348,-1.9401,-1.9401,-1.8851,-1.8249,-1.7889,-1.6739,-1.5722,0.0,0.0,0.0,-1.7488,-1.8838,0.0,-2.0726,-2.0975,0.0,-2.1109,0.0,-2.1109,-2.1109,-2.1109,0.0,0.0,-2.1109,-2.1203,-2.1462,-2.1756,-2.2004,-2.2298,-2.2592,-2.2813,-2.2893,-2.2893,-2.2893,-2.2893,-2.2893,-2.2893,-2.2893,-2.2893,-2.2893,-2.2893,-2.2893,-2.2893,-2.2893,-2.2893,-2.2893,-2.2893,-2.2893,-2.2893,-2.2893,-2.2813,-2.2786,-2.2773,-2.2693,-2.2385,-2.1977,-2.193,-2.1903,-2.189,-2.179,-2.1764,-2.1698,-2.1228,-2.113,-2.1019,-2.0548,-2.0449,-2.0449,-2.0449,-1.9451,-1.8514,-1.8514,-1.7475,-1.6576,-1.6576,-1.5448,-1.3908,-1.2059,-1.1384,-1.1084,-1.1084,-1.1084,-1.0968,-1.0718,-1.0684,-1.0684,-1.0684,-1.0684,-1.0684,-1.0684,-1.0684,-1.0684,-1.0684,-1.0684,-1.0684,-1.0684,-1.0684,-1.0684,-1.0684,-1.0684,-1.0684,-1.0684,-1.0684,-1.0684,-1.0684,-1.0684,-1.0684,-1.8504,-1.9025,-1.9158,-1.9361,-1.9401,-1.9254,-1.8732,-1.8196,-1.7516,-1.646,-1.5374,0.0,-1.4772,-1.5137,0.0,0.0,0.0,0.0,-2.0605,-2.0922,-2.1109,0.0,-2.1109,0.0,-2.1109,-2.1109,-2.1162,-2.1296,-2.1309,-2.1408,-2.1582,-2.1984,-2.2245,-2.2418,-2.2746,-2.2893,-2.2893,-2.2893,-2.2893,-2.2893,-2.2893,-2.2893,-2.2893,-2.2893,-2.2893,-2.2893,-2.2893,-2.2893,-2.2893,-2.2893,-2.2893,-2.2893,-2.2893,-2.2893,-2.2893,-2.2893,-2.2893,-2.2893,-2.2893,-2.2679,-2.2385,-2.2218,-2.2178,-2.2151,-2.2031,-2.1991,-2.1991,-2.1991,-2.1991,-2.1991,-2.1991,-2.1991,-2.1991,-2.1991,-2.1238,-2.053,-2.053,-1.9787,-1.9076,-1.9076,-1.6952,-1.4794,-1.3746,-1.2253,-1.12,-1.12,-1.12,-1.1138,-1.0934,-1.0914,-1.0914,-1.0914,-1.0914,-1.0914,-1.0914,-1.0853,-1.0786,-1.0786,-1.0725,-1.0684,-1.0684,-1.0684,-1.0684,-1.0684,-1.0684,-1.0684,-1.0684,-1.0684,-1.0684,-1.0684,-1.0684,-1.0684,-1.8677,-1.9172,-1.9401,-1.9401,-1.9401,-1.908,-1.7889,-1.7488,-1.6794,-1.4794,0.0,-1.3921,-1.4301,-1.4643,-1.5561,-1.7622,0.0,-1.9602,-2.0525,-2.0869,-2.1069,-2.1109,-2.1109,-2.1109,-2.1109,-2.1149,-2.1269,-2.1569,-2.1662,-2.1703,-2.1703,-2.2151,-2.2432,-2.2472,-2.276,-2.2893,-2.2893,-2.2893,-2.2893,-2.2893,-2.2893,-2.2893,-2.2893,-2.2893,-2.2893,-2.2893,-2.2893,-2.2893,-2.2893,-2.2893,-2.2893,-2.2893,-2.2947,-2.296,-2.296,-2.3,-2.3014,-2.3014,-2.2974,-2.296,-2.2907,-2.2579,-2.2472,-2.2432,-2.2178,-2.2131,-2.2131,-2.2131,-2.2131,-2.2131,-2.2131,-2.2131,-2.2131,-2.2131,-2.2131,-2.2131,-2.2131,-2.2131,-2.2031,-2.1799,-1.9214,-1.6977,-1.6705,-1.3882,-1.1635,-1.1635,-1.1393,-1.1261,-1.1261,-1.122,-1.12,-1.12,-1.12,-1.12,-1.12,-1.105,-1.0941,-1.0941,-1.0819,-1.0778,-1.0778,-1.0778,-1.0778,-1.0778,-1.0778,-1.0778,-1.0778,-1.0778,-1.0778,-1.0778,-1.0778,-1.0778,-1.9134,-1.9361,-1.9401,-1.9401,-1.9401,-1.908,-1.7889,-1.6834,0.0,0.0,-1.2973,-1.2591,-1.356,-1.4041,-1.5013,-1.7288,-1.821,-1.9038,-2.0117,-2.0561,-2.0842,0.0,-2.1109,-2.1109,-2.1109,-2.1368,0.0,0.0,-2.1991,-2.2271,-2.2271,-2.2365,-2.2525,-2.2813,-2.2867,-2.2893,-2.2893,-2.2893,-2.2893,-2.2893,-2.2893,-2.2893,-2.2893,-2.2893,-2.2893,-2.2893,-2.2893,-2.2893,-2.2893,-2.2893,-2.2893,-2.292,-2.314,-2.3247,-2.3273,-2.3562,-2.3656,-2.3616,-2.334,-2.3247,-2.3193,-2.2886,-2.2813,-2.2813,-2.276,-2.2746,-2.2746,-2.2746,-2.2746,-2.2746,-2.2746,-2.2746,-2.2746,-2.2746,-2.2746,-2.2746,-2.2746,-2.2746,-2.229,-2.0725,-1.9922,-1.8978,-1.7381,-1.5281,-1.3845,-1.3845,-1.2521,-1.1538,-1.1538,-1.1356,-1.12,-1.12,-1.12,-1.12,-1.12,-1.1172,-1.1159,-1.1159,-1.1138,-1.1118,-1.1118,-1.1118,-1.1118,-1.1118,-1.1118,-1.1118,-1.1118,-1.1118,-1.1118,-1.1118,-1.1118,-1.1118,-1.8637,-1.904,-1.9401,-1.9401,-1.9401,-1.8879,-1.6913,0.0,0.0,0.0,-1.2019,-1.1997,-1.318,-1.3634,0.0,-1.6366,-1.7542,-1.8529,-1.9397,-2.0201,0.0,-2.1069,-2.1109,-2.1109,0.0,-2.1408,-2.1649,-2.1796,-2.2178,-2.2385,-2.2385,-2.2565,-2.2712,-2.2893,-2.2893,-2.2893,-2.2893,-2.2893,-2.2893,-2.2893,-2.2893,-2.2893,-2.2893,-2.2893,-2.2893,-2.2893,-2.2893,-2.2987,-2.31,-2.31,-2.3193,-2.3388,-2.35,-2.3554,-2.3581,-2.375,-2.3803,-2.379,-2.3607,-2.3554,-2.3541,-2.3415,-2.3161,-2.2893,-2.2893,-2.2893,-2.2893,-2.2893,-2.2893,-2.2893,-2.2893,-2.2893,-2.2893,-2.2893,-2.2893,-2.2893,-2.2893,-2.2893,-2.2619,-2.1734,-2.0756,-1.9808,-1.8868,-1.7107,-1.5522,-1.4539,-1.3622,-1.271,-1.1727,-1.1491,-1.1402,-1.1402,-1.1402,-1.1402,-1.1402,-1.1328,-1.1315,-1.1315,-1.124,-1.12,-1.12,-1.12,-1.12,-1.12,-1.12,-1.12,-1.12,-1.12,-1.12,-1.12,-1.12,-1.12,-1.829,-1.8824,-1.9401,-1.9401,-1.9348,-1.8612,-1.5992,-1.5297,0.0,-1.1846,-1.1272,-1.1606,-1.2879,-1.3127,-1.3693,0.0,-1.6582,-1.7622,-1.8663,-1.9679,-2.0508,0.0,-2.1109,0.0,-2.1203,-2.1502,0.0,-2.2058,-2.2352,-2.2512,-2.2512,-2.2773,-2.2893,-2.2893,-2.2893,-2.2893,-2.2893,-2.2893,-2.2893,-2.2893,-2.2893,-2.2893,-2.2893,-2.296,-2.3,-2.3,-2.3067,-2.3193,-2.342,-2.342,-2.3554,-2.3817,-2.387,-2.3897,-2.391,-2.3928,-2.3955,-2.3941,-2.3924,-2.3897,-2.3884,-2.383,-2.3482,-2.3094,-2.3094,-2.3094,-2.3094,-2.3094,-2.3094,-2.3081,-2.3014,-2.3,-2.2974,-2.2907,-2.2893,-2.2893,-2.2893,-2.2893,-2.2893,-2.2893,-2.17,-2.0686,-2.0686,-1.9112,-1.7318,-1.5839,-1.5274,-1.4326,-1.2431,-1.218,-1.2043,-1.1655,-1.1584,-1.1584,-1.1584,-1.1511,-1.1443,-1.1443,-1.1328,-1.1295,-1.1295,-1.1295,-1.1295,-1.1295,-1.1295,-1.1295,-1.1295,-1.1295,-1.1295,-1.1295,-1.1295,-1.1295,-1.8906,-1.9334,-1.9401,-1.9401,-1.9158,-1.8316,-1.5939,0.0,-1.39,-1.153,-1.0838,-1.1109,-1.2556,-1.2158,-1.2446,-1.5017,0.0,-1.5688,-1.8183,-1.8851,-1.9557,-2.0949,0.0,0.0,-2.1515,-2.181,-2.2071,-2.2352,-2.2659,-2.2853,-2.2853,-2.288,-2.2893,-2.2893,-2.2893,-2.2893,-2.2893,-2.2893,-2.2893,-2.2893,-2.2893,-2.2893,-2.2907,-2.3153,-2.3252,-2.3265,-2.3603,-2.3736,-2.3763,-2.3763,-2.3777,-2.383,-2.4062,-2.4168,-2.4195,-2.4426,-2.4519,-2.4479,-2.4249,-2.4168,-2.4115,-2.3897,-2.3763,-2.3723,-2.3723,-2.3723,-2.3723,-2.3723,-2.3723,-2.3656,-2.3354,-2.3252,-2.3207,-2.296,-2.2893,-2.2893,-2.2893,-2.2893,-2.2893,-2.2893,-2.2756,-2.2654,-2.2654,-2.1067,-1.9773,-1.96,-1.8054,-1.6263,-1.4397,-1.4148,-1.348,-1.1799,-1.1584,-1.1584,-1.1584,-1.1606,-1.1563,-1.1563,-1.1586,-1.1579,-1.1579,-1.1579,-1.1579,-1.1579,-1.1579,-1.1579,-1.1579,-1.1579,-1.1579,-1.1579,-1.1579,-1.1579,-1.7168,-1.8023,-1.8866,-1.8866,-1.8744,-1.7996,-1.5444,0.0,-1.378,-1.1279,-1.0667,-1.079,-1.1367,-1.1306,-1.1623,-1.3059,0.0,0.0,-1.7088,-1.813,-1.9212,-2.0668,-2.1002,0.0,0.0,0.0,-2.2178,-2.2693,-2.2827,-2.2893,-2.2893,-2.2893,-2.2893,-2.2893,-2.2893,-2.2893,-2.2893,-2.2893,-2.2893,-2.2893,-2.2893,-2.2987,-2.314,-2.3238,-2.342,-2.3607,-2.375,-2.391,-2.4035,-2.4035,-2.4142,-2.4302,-2.4386,-2.4426,-2.4439,-2.4559,-2.4599,-2.4586,-2.4466,-2.4426,-2.4412,-2.4329,-2.4289,-2.4222,-2.391,-2.3803,-2.3803,-2.3803,-2.3803,-2.3777,-2.3621,-2.3594,-2.3567,-2.3469,-2.3442,-2.3442,-2.3442,-2.3442,-2.3442,-2.3442,-2.3442,-2.3442,-2.3442,-2.2832,-2.1926,-2.0769,-1.9905,-1.8753,-1.6851,-1.6635,-1.6355,-1.5605,-1.3153,-1.1584,-1.1584,-1.1584,-1.1584,-1.1584,-1.1584,-1.1584,-1.1584,-1.1584,-1.1584,-1.1584,-1.1584,-1.1584,-1.1584,-1.1584,-1.1584,-1.1584,-1.1584,-1.1584,-1.6139,-1.7141,-1.8184,-1.8451,-1.8223,-1.7355,0.0,0.0,-1.3347,-1.1069,-1.0602,-1.0602,-1.0602,-1.076,-1.1079,-1.1654,0.0,-1.378,-1.5778,-1.7235,-1.8532,0.0,0.0,-2.0869,-2.1288,-2.1903,-2.2452,-2.2867,-2.2893,-2.2893,-2.2893,-2.2893,-2.2893,-2.2893,-2.2893,-2.2893,-2.2893,-2.2893,-2.2893,-2.2893,-2.2987,-2.3113,-2.3305,-2.3465,-2.3701,-2.3901,-2.3995,-2.4142,-2.4329,-2.4329,-2.4412,-2.4599,-2.4599,-2.4599,-2.4599,-2.4599,-2.4599,-2.4599,-2.4599,-2.4599,-2.4599,-2.4599,-2.4599,-2.4519,-2.4155,-2.4022,-2.4022,-2.4022,-2.3968,-2.3937,-2.3937,-2.387,-2.3803,-2.3803,-2.3803,-2.3803,-2.3803,-2.3803,-2.3803,-2.3803,-2.3803,-2.3803,-2.3803,-2.3803,-2.3327,-2.1952,-2.1773,-2.1078,-1.9188,-1.8934,-1.8716,-1.817,-1.5334,-1.3285,-1.2677,-1.2075,-1.1728,-1.1651,-1.1644,-1.1624,-1.1584,-1.1584,-1.1584,-1.1584,-1.1584,-1.1584,-1.1584,-1.1584,-1.1584,-1.1584,-1.1584,-1.1584,-1.6538,-1.7206,-1.7434,-1.8263,-1.7595,-1.6339,0.0,0.0,-1.24,-1.0911,-1.0602,-1.0602,-1.0602,-1.06,-1.0787,-1.1312,-1.169,0.0,-1.4274,-1.6083,-1.7326,0.0,0.0,-2.004,-2.0659,-2.2037,-2.2893,-2.2893,-2.2893,-2.2893,-2.2893,-2.2893,-2.2893,-2.2893,-2.2893,-2.2893,-2.2893,-2.2893,-2.2893,-2.2893,-2.318,-2.3292,-2.3305,-2.3928,-2.4195,-2.4209,-2.4466,-2.4586,-2.4599,-2.4599,-2.4599,-2.4599,-2.4599,-2.4599,-2.4599,-2.4599,-2.4599,-2.4599,-2.4599,-2.4599,-2.4599,-2.4599,-2.4599,-2.4599,-2.4586,-2.4586,-2.4586,-2.4586,-2.4386,-2.4195,-2.4195,-2.3981,-2.3803,-2.3803,-2.3803,-2.3803,-2.3803,-2.3803,-2.3803,-2.3803,-2.3803,-2.3803,-2.3803,-2.3803,-2.3803,-2.3768,-2.3768,-2.3064,-2.1114,-2.085,-2.0165,-1.8316,-1.8051,-1.7212,-1.524,-1.323,-1.1993,-1.18,-1.1793,-1.1732,-1.1626,-1.1584,-1.1584,-1.1584,-1.1584,-1.1584,-1.1584,-1.1584,-1.1584,-1.1584,-1.1584,-1.1584,-1.4043,-1.4928,-1.5695,-1.5752,-1.5475,-1.4883,-1.3621,-1.2872,-1.2096,-1.0854,-1.0602,-1.0602,-1.0602,-1.0602,-1.072,-1.1062,-1.1369,0.0,0.0,0.0,0.0,-1.837,-2.0147,-2.1363,0.0,-2.2385,-2.2893,-2.2893,-2.2893,-2.2893,-2.2893,-2.2893,-2.2893,-2.2893,-2.2893,-2.2893,-2.2893,-2.2893,-2.2893,-2.2893,-2.318,-2.3434,-2.3647,-2.4035,-2.4315,-2.4466,-2.4559,-2.4599,-2.4599,-2.4599,-2.4599,-2.4599,-2.4599,-2.4599,-2.4599,-2.4599,-2.4599,-2.4599,-2.4599,-2.4599,-2.4599,-2.4599,-2.4599,-2.4599,-2.4599,-2.4599,-2.4599,-2.4599,-2.4532,-2.4466,-2.4466,-2.4399,-2.4369,-2.4369,-2.4369,-2.4369,-2.4369,-2.4369,-2.4369,-2.4369,-2.4369,-2.4369,-2.4369,-2.4369,-2.4369,-2.4369,-2.4369,-2.4136,-2.3525,-2.3415,-2.3195,-2.2595,-2.1318,-1.9017,-1.5413,-1.4518,-1.3541,-1.2104,-1.2023,-1.2002,-1.1925,-1.1925,-1.1925,-1.1925,-1.1925,-1.1925,-1.1925,-1.1925,-1.1925,-1.1955,-1.1816,-1.1726,0.0,-1.3467,-1.4204,-1.4322,-1.4095,0.0,0.0,-1.2203,-1.157,-1.076,-1.0602,-1.0602,-1.0602,-1.0602,-1.072,-1.1089,-1.1286,-1.1953,0.0,0.0,0.0,-1.8689,0.0,0.0,-2.1529,-2.2358,-2.2893,-2.2893,-2.2893,-2.2893,-2.2893,-2.2893,-2.2893,-2.2893,-2.2893,-2.2893,-2.2893,-2.2893,-2.296,-2.3046,-2.3354,-2.3647,-2.3941,-2.4235,-2.4426,-2.4599,-2.4599,-2.4599,0.0,-2.4599,-2.4599,-2.4599,-2.4599,-2.4599,-2.4599,-2.4599,-2.4599,-2.4599,-2.4599,-2.4599,-2.4599,-2.4599,-2.4599,-2.4599,-2.4599,-2.4599,-2.4599,-2.4599,-2.4599,-2.4599,-2.4599,-2.4599,-2.4599,-2.4599,-2.4599,-2.4599,-2.4599,-2.4599,-2.4599,-2.4599,-2.4599,-2.4599,-2.4599,-2.4599,-2.4599,-2.4599,-2.4599,-2.4599,-2.4599,-2.4599,-2.4599,-2.4599,-2.35,-2.1324,-1.7855,-1.6126,-1.469,-1.3402,-1.2592,-1.2159,-1.2098,-1.2098,-1.2098,-1.2098,-1.2098,-1.2098,-1.2098,-1.2098,-1.2098,-1.2098,-1.1965,-1.1918,0.0,-1.2682,-1.2891,0.0,0.0,0.0,0.0,0.0,0.0,-1.064,-1.0602,-1.0602,-1.0602,-1.0602,-1.0774,-1.1286,-1.1419,-1.1859,0.0,-1.4821,0.0,0.0,-2.0054,-2.0806,-2.0806,-2.2077,-2.2893,-2.2893,-2.2893,-2.2893,-2.2893,-2.2893,-2.2893,-2.2893,-2.2893,-2.2893,-2.2893,-2.2893,-2.302,-2.3292,-2.3634,-2.3928,-2.4209,-2.4466,-2.4599,-2.4599,-2.4599,-2.4599,-2.4599,-2.4599,-2.4599,-2.4599,-2.4599,-2.4599,-2.4599,-2.4599,-2.4599,-2.4599,-2.4599,-2.4599,-2.4599,-2.4599,-2.4599,-2.4599,-2.4599,-2.4599,-2.4599,-2.4599,-2.4599,-2.4599,-2.4599,-2.4599,-2.4599,-2.4599,-2.4599,-2.4599,-2.4599,-2.4599,-2.4599,-2.4599,-2.4599,-2.4599,-2.4599,-2.4599,-2.4599,-2.4599,-2.4599,-2.4599,-2.4599,-2.4599,-2.4599,-2.4599,-2.4599,-2.3833,-2.1975,-1.8184,-1.5806,-1.5549,-1.3793,-1.2615,-1.2356,-1.2349,-1.2281,-1.2132,-1.2132,-1.2132,-1.2132,-1.2132,-1.2132,-1.2132,-1.2118,-1.2118,-1.1045,0.0,-1.173,-1.173,-1.1574,-1.14,0.0,0.0,0.0,0.0,0.0,0.0,0.0,-1.0602,-1.0707,-1.1035,-1.1494,-1.2184,-1.3333,-1.6008,0.0,-1.973,-2.0962,-2.167,-2.167,-2.2425,-2.2893,-2.2893,-2.2893,-2.2893,-2.2893,-2.2893,-2.2893,-2.2893,-2.2893,-2.2893,-2.2893,-2.2893,-2.302,-2.3292,-2.3634,-2.3928,-2.4209,-2.4466,-2.4599,-2.4599,-2.4599,-2.4599,-2.4599,-2.4599,-2.4599,-2.4599,-2.4599,-2.4599,-2.4599,-2.4599,-2.4599,-2.4599,-2.4599,-2.4599,-2.4599,-2.4599,-2.4599,-2.4599,-2.4599,-2.4599,-2.4599,-2.4599,-2.4599,-2.4599,-2.4599,-2.4599,-2.4599,-2.4599,-2.4599,-2.4599,-2.4599,-2.4599,-2.4599,-2.4599,-2.4599,-2.4599,-2.4599,-2.4599,-2.4599,-2.4599,-2.4599,-2.4599,-2.4599,-2.4599,-2.4599,-2.4599,-2.4599,-2.4414,-2.3957,-2.1601,-1.9494,-1.7926,-1.7369,-1.6404,-1.4776,-1.47,-1.3984,-1.2438,-1.24,-1.24,-1.24,-1.24,-1.24,-1.2393,-1.2284,-1.2237,-1.0602,-1.0811,-1.1012,-1.0851,-1.0827,-1.0827,0.0,0.0,0.0,0.0,0.0,0.0,0.0,0.0,-1.1119,-1.153,-1.2336,-1.3501,0.0,0.0,-1.9372,-2.0117,-2.1269,-2.1991,-2.1991,-2.2559,-2.2893,-2.2893,-2.2893,-2.2893,-2.2893,-2.2893,-2.2893,-2.2893,-2.2893,-2.2893,-2.2893,-2.3006,-2.3233,-2.3527,-2.3834,-2.4115,-2.4372,-2.4532,-2.4599,-2.4599,-2.4599,-2.4599,-2.4599,-2.4599,-2.4599,-2.4599,-2.4599,-2.4599,-2.4599,-2.4599,-2.4599,-2.4599,-2.4599,-2.4599,-2.4599,-2.4599,-2.4599,-2.4599,-2.4599,-2.4599,-2.4599,-2.4599,-2.4599,-2.4599,-2.4599,-2.4599,-2.4599,-2.4599,-2.4599,-2.4599,-2.4599,-2.4599,-2.4599,-2.4599,-2.4599,-2.4599,-2.4599,-2.4599,-2.4599,-2.4599,-2.4599,-2.4599,-2.4599,-2.4599,-2.4599,-2.4599,-2.4599,-2.4599,-2.4599,-2.3611,-2.2124,-2.008,-1.9101,-1.8118,-1.698,-1.6904,-1.6409,-1.531,-1.4368,-1.3868,-1.3868,-1.2958,-1.2501,-1.2501,-1.242,-1.2386,-1.0602,-1.0626,-1.0653,-1.0653,-1.0653,-1.0667,0.0,0.0,0.0,0.0,0.0,0.0,0.0,-1.1459,0.0,0.0,0.0,0.0,-1.7394,-1.8931,-1.996,-2.017,-2.1269,-2.1991,-2.1991,-2.2559,-2.2893,-2.2893,-2.2893,-2.2893,-2.2893,-2.2893,-2.2893,-2.2893,-2.2893,-2.2893,-2.2893,-2.3166,-2.3474,-2.3803,-2.4062,-2.4356,-2.4599,-2.4599,-2.4599,-2.4599,-2.4599,-2.4599,-2.4599,-2.4599,-2.4599,-2.4599,-2.4599,-2.4599,-2.4599,-2.4599,-2.4599,-2.4599,-2.4599,-2.4599,-2.4599,-2.4599,-2.4599,-2.4599,-2.4599,-2.4599,-2.4599,-2.4599,-2.4599,-2.4599,-2.4599,-2.4599,-2.4599,-2.4599,-2.4599,-2.4599,-2.4599,-2.4599,-2.4599,-2.4599,-2.4599,-2.4599,-2.4599,-2.4599,-2.4599,-2.4599,-2.4599,-2.4599,-2.4599,-2.4599,-2.4599,-2.4599,-2.4599,-2.4599,-2.4599,-2.4599,-2.387,-2.2173,-2.0155,-1.8799,-1.8156,-1.7815,-1.7663,-1.7663,-1.596,-1.5042,-1.5042,-1.3337,-1.2501,-1.2501,-1.2501,-1.2501,-1.0602,-1.0774,-1.0945,-1.0945,-1.0945,-1.1012,0.0,0.0,0.0,0.0,0.0,0.0,0.0,-1.2559,-1.3293,0.0,0.0,-1.7261,0.0,0.0,-2.0157,-2.0197,-2.1269,-2.1991,-2.1991,-2.2559,-2.2893,-2.2893,-2.2893,-2.2893,-2.2893,-2.2893,-2.2893,-2.2893,-2.2893,-2.2893,-2.2893,-2.3166,-2.3474,-2.3803,-2.4062,-2.4356,-2.4599,-2.4599,-2.4599,-2.4599,-2.4599,-2.4599,-2.4599,-2.4599,-2.4599,-2.4599,-2.4599,-2.4599,-2.4599,-2.4599,-2.4599,-2.4599,-2.4599,-2.4599,-2.4599,-2.4599,-2.4599,-2.4599,-2.4599,-2.4599,-2.4599,-2.4599,-2.4599,-2.4599,-2.4599,-2.4599,-2.4599,-2.4599,-2.4599,-2.4599,-2.4599,-2.4599,-2.4599,-2.4599,-2.4599,-2.4599,-2.4599,-2.4599,-2.4599,-2.4599,-2.4599,-2.4599,-2.4599,-2.4599,-2.4599,-2.4599,-2.4599,-2.4599,-2.4599,-2.4599,-2.4488,-2.4142,-2.2248,-1.9591,-1.6104,-1.4322,-1.3452,-1.3452,-1.3112,-1.2958,-1.2958,-1.2656,-1.2501,-1.2501,-1.2501,-1.2501,-1.0602,-1.0801,-1.1159,-1.1819,-1.1739,-1.156,0.0,0.0,0.0,0.0,0.0,0.0,0.0,0.0,-1.4389,-1.6551,0.0,-1.8584,-1.9359,-2.0187,-2.0677,-2.0677,-2.1456,-2.1991,-2.1991,-2.2559,-2.2893,-2.2893,-2.2893,-2.2893,-2.2893,-2.2893,-2.2893,-2.2893,-2.2893,-2.2974,-2.3113,-2.342,-2.3634,-2.3803,-2.4222,-2.4466,-2.4599,-2.4599,-2.4599,-2.4599,-2.4599,-2.4599,-2.4599,-2.4599,-2.4599,-2.4599,-2.4599,-2.4599,-2.4599,-2.4599,-2.4599,-2.4599,-2.4599,-2.4599,-2.4599,-2.4599,-2.4599,-2.4599,-2.4599,-2.4599,-2.4599,-2.4599,-2.4599,-2.4599,-2.4599,-2.4599,-2.4599,-2.4599,-2.4599,-2.4599,-2.4599,-2.4599,-2.4599,-2.4599,-2.4599,-2.4599,-2.4599,-2.4599,-2.4599,-2.4599,-2.4599,-2.4599,-2.4599,-2.4599,-2.4599,-2.4599,-2.4599,-2.4599,-2.4599,-2.4599,-2.4599,-2.4599,-2.3722,-2.2397,-2.0493,-1.9516,-1.8534,-1.7436,-1.6333,-1.5234,-1.4137,-1.3035,-1.2501,-1.2501,-1.2501,-1.2501,-1.0602,-1.0838,-1.1329,-1.2342,0.0,0.0,0.0,0.0,0.0,0.0,0.0,0.0,0.0,-1.479,0.0,-1.813,-1.8905,-1.9543,-2.0579,-2.0922,-2.1109,-2.1109,-2.1563,-2.1943,-2.1977,-2.2458,-2.2827,-2.2893,-2.2893,-2.2893,-2.2893,-2.2893,-2.2893,-2.2893,-2.2893,-2.3041,-2.3292,-2.3621,-2.3843,-2.391,-2.4359,-2.4599,-2.4599,-2.4599,-2.4599,-2.4599,-2.4599,-2.4599,-2.4599,-2.4599,-2.4599,-2.4599,-2.4599,-2.4599,-2.4599,-2.4599,-2.4599,-2.4599,-2.4599,-2.4599,-2.4599,-2.4599,-2.4599,-2.4599,-2.4599,-2.4599,-2.4599,-2.4599,-2.4599,-2.4599,-2.4599,-2.4599,-2.4599,-2.4599,-2.4599,-2.4599,-2.4599,-2.4599,-2.4599,-2.4599,-2.4599,-2.4599,-2.4599,-2.4599,-2.4599,-2.4599,-2.4599,-2.4599,-2.4599,-2.4599,-2.4599,-2.4599,-2.4599,-2.4599,-2.4599,-2.4599,-2.4599,-2.4599,-2.4142,-2.3685,-2.319,-2.319,-2.2248,-2.0193,-1.8648,-1.6866,-1.4782,-1.3259,-1.2501,-1.2501,-1.2501,-1.2501,-1.0602,-1.0985,-1.1459,-1.1855,-1.2551,0.0,-1.4544,-1.4821,0.0,-1.4389,0.0,0.0,0.0,-1.7448,-1.8529,-1.8504,-1.9383,-2.0267,-2.0628,-2.0922,-2.1109,-2.1109,-2.1422,-2.1729,-2.1997,-2.2271,-2.2565,-2.288,-2.2893,-2.2893,-2.2893,-2.2893,-2.2893,-2.2893,-2.2893,-2.3041,-2.3292,-2.3621,-2.3901,-2.4168,-2.4452,-2.4599,-2.4599,-2.4599,-2.4599,-2.4599,-2.4599,-2.4599,-2.4599,-2.4599,-2.4599,-2.4599,-2.4599,-2.4599,-2.4599,-2.4599,-2.4599,-2.4599,-2.4599,-2.4599,-2.4599,-2.4599,-2.4599,-2.4599,-2.4599,-2.4599,-2.4599,-2.4599,-2.4599,-2.4599,-2.4599,-2.4599,-2.4599,-2.4599,-2.4599,-2.4599,-2.4599,-2.4599,-2.4599,-2.4599,-2.4599,-2.4599,-2.4599,-2.4599,-2.4599,-2.4599,-2.4599,-2.4599,-2.4599,-2.4599,-2.4599,-2.4599,-2.4599,-2.4599,-2.4599,-2.4599,-2.4599,-2.4599,-2.2856,-2.0991,-1.9101,-1.9025,-1.808,-1.5989,-1.5807,-1.4744,-1.2733,-1.2579,-1.2501,-1.2501,-1.2501,-1.2501,-1.0798,-1.1534,-1.247,-1.3307,-1.3908,0.0,0.0,-1.511,-1.5471,-1.5328,-1.5488,0.0,0.0,0.0,-1.9279,-1.9533,-1.9917,-2.037,-2.0882,-2.1042,-2.1109,-2.1109,-2.1408,-2.1703,-2.1951,-2.2245,-2.2539,-2.288,-2.2893,-2.2893,-2.2893,-2.2893,-2.2893,-2.2893,-2.3046,-2.33,-2.3607,-2.3888,-2.4182,-2.4439,-2.4546,-2.4599,-2.4599,-2.4599,-2.4599,-2.4599,-2.4599,-2.4599,-2.4599,-2.4599,-2.4599,-2.4599,-2.4599,-2.4599,-2.4599,-2.4599,-2.4599,-2.4599,-2.4599,-2.4599,-2.4599,-2.4599,-2.4599,-2.4599,-2.4599,-2.4599,-2.4599,-2.4599,-2.4599,-2.4599,-2.4599,-2.4599,-2.4599,-2.4599,-2.4599,-2.4599,-2.4599,-2.4599,-2.4599,-2.4599,-2.4599,-2.4599,-2.4599,-2.4599,-2.4599,-2.4599,-2.4599,-2.4599,-2.4599,-2.4599,-2.4599,-2.4599,-2.4599,-2.4599,-2.4599,-2.4599,-2.4599,-2.4599,-2.387,-2.3116,-2.236,-2.2322,-2.0767,-1.7474,-1.7436,-1.5807,-1.2501,-1.2501,-1.2501,-1.2501,-1.2501,-1.2501,-1.1049,-1.2015,-1.3126,-1.3994,0.0,0.0,-1.5231,-1.5515,-1.5915,-1.6288,-1.6582,-1.6969,-1.7622,0.0,0.0,-1.9757,-2.0104,-2.0548,-2.1042,-2.1109,-2.1109,-2.1109,-2.1296,-2.1596,-2.1951,-2.2164,-2.2445,-2.2867,-2.2893,-2.2893,-2.2893,-2.2893,-2.2893,-2.2893,-2.3166,-2.3474,-2.3803,-2.4062,-2.4342,-2.4599,-2.4599,-2.4599,-2.4599,-2.4599,-2.4599,-2.4599,-2.4599,-2.4599,-2.4599,-2.4599,-2.4599,-2.4599,-2.4599,-2.4599,-2.4599,-2.4599,-2.4599,-2.4599,-2.4599,-2.4599,-2.4599,-2.4599,-2.4599,-2.4599,-2.4599,-2.4599,-2.4599,-2.4599,-2.4599,-2.4599,-2.4599,-2.4599,-2.4599,-2.4599,-2.4599,-2.4599,-2.4599,-2.4599,-2.4599,-2.4599,-2.4599,-2.4599,-2.4599,-2.4599,-2.4599,-2.4599,-2.4599,-2.4599,-2.4599,-2.4599,-2.4599,-2.4599,-2.4599,-2.4599,-2.4599,-2.4599,-2.4599,-2.4599,-2.4599,-2.4599,-2.4599,-2.4599,-2.3005,-1.9591,-1.8912,-1.6904,-1.3452,-1.2804,-1.2501,-1.2501,-1.2501,-1.2501,-1.1339,-1.23,-1.3287,0.0,0.0,0.0,-1.6647,-1.6235,-1.6142,-1.7328,-1.829,-1.8716,-1.8129,-1.8983,0.0,-1.8996,-1.992,-2.0775,-2.1069,-2.1109,-2.1109,-2.1109,-2.1109,-2.1336,-2.1924,-2.1991,-2.2265,-2.2853,-2.2893,-2.2893,-2.2893,-2.2893,-2.2893,-2.2893,-2.3166,-2.3474,-2.3803,-2.4062,-2.4356,-2.4599,-2.4599,-2.4599,-2.4599,-2.4599,-2.4599,-2.4599,-2.4599,-2.4599,-2.4599,-2.4599,-2.4599,-2.4599,-2.4599,-2.4599,-2.4599,-2.4599,-2.4599,-2.4599,-2.4599,-2.4599,-2.4599,-2.4599,-2.4599,-2.4599,-2.4599,-2.4599,-2.4599,-2.4599,-2.4599,-2.4599,-2.4599,-2.4599,-2.4599,-2.4599,-2.4599,-2.4599,-2.4599,-2.4599,-2.4599,-2.4599,-2.4599,-2.4599,-2.4599,-2.4599,-2.4599,-2.4599,-2.4599,-2.4599,-2.4599,-2.4599,-2.4599,-2.4599,-2.4599,-2.4599,-2.4599,-2.4599,-2.4599,-2.4599,-2.4599,-2.4599,-2.4599,-2.4599,-2.3648,-2.1639,-1.9629,-1.7588,-1.5501,-1.3491,-1.2501,-1.2501,-1.2501,-1.2501,-1.2261,-1.3541,0.0,-1.5364,0.0,0.0,0.0,-1.686,0.0,0.0,-1.8183,-1.9052,-1.8464,-1.9145,-1.9813,-1.981,-2.0307,-2.0775,-2.1069,-2.1109,-2.1109,-2.1109,-2.1109,-2.1336,-2.1924,-2.1991,-2.2265,-2.2853,-2.2893,-2.2893,-2.2893,-2.2893,-2.2893,-2.2893,-2.3402,-2.3723,-2.3803,-2.4262,-2.4519,-2.4599,-2.4599,-2.4599,-2.4599,-2.4599,-2.4599,-2.4599,-2.4599,-2.4599,-2.4599,-2.4599,-2.4599,-2.4599,-2.4599,-2.4599,-2.4599,-2.4599,-2.4599,-2.4599,-2.4599,-2.4599,-2.4599,-2.4599,-2.4599,-2.4599,-2.4599,-2.4599,-2.4599,-2.4599,-2.4599,-2.4599,-2.4599,-2.4599,-2.4599,-2.4599,-2.4599,-2.4599,-2.4599,-2.4599,-2.4599,-2.4599,-2.4599,-2.4599,-2.4599,-2.4599,-2.4599,-2.4599,-2.4599,-2.4599,-2.4599,-2.4599,-2.4599,-2.4599,-2.4599,-2.4599,-2.4599,-2.4599,-2.4599,-2.4599,-2.4599,-2.4599,-2.4599,-2.4599,-2.3648,-2.1639,-1.9629,-1.7588,-1.5501,-1.3491,-1.2501,-1.2501,-1.2501,-1.2501,-1.2925,-1.4309,0.0,-1.6324,-1.6645,-1.6926,-1.7341,0.0,0.0,0.0,-1.8478,-1.9281,-1.8933,-1.9452,-1.9997,-2.017,-2.0575,-2.0909,-2.1082,-2.1109,-2.1109,-2.1109,-2.1109,-2.1296,-2.1796,-2.1957,-2.2211,-2.2693,-2.2827,-2.2893,-2.2893,-2.2893,-2.2893,-2.2893,-2.3496,-2.3803,-2.3803,-2.4342,-2.4599,-2.4599,-2.4599,-2.4599,-2.4599,-2.4599,-2.4599,-2.4599,-2.4599,-2.4599,-2.4599,-2.4599,-2.4599,-2.4599,-2.4599,-2.4599,-2.4599,-2.4599,-2.4599,-2.4599,-2.4599,-2.4599,-2.4599,-2.4599,-2.4599,-2.4599,-2.4599,-2.4599,-2.4599,-2.4599,-2.4599,-2.4599,-2.4599,-2.4599,-2.4599,-2.4599,-2.4599,-2.4599,-2.4599,-2.4599,-2.4599,-2.4599,-2.4599,-2.4599,-2.4599,-2.4599,-2.4599,-2.4599,-2.4599,-2.4599,-2.4599,-2.4599,-2.4599,-2.4599,-2.4599,-2.4599,-2.4599,-2.4599,-2.4599,-2.4599,-2.4599,-2.4599,-2.4599,-2.4599,-2.3648,-2.1639,-1.9629,-1.7588,-1.5501,-1.3491,-1.2501,-1.2501,-1.2501,-1.2501,-1.34,-1.4705,0.0,-1.6633,-1.7235,0.0,-1.738,-1.797,-1.8531,-1.8397,0.0,-1.9388,-1.9321,-1.98,-2.0197,-2.0197,-2.0691,-2.1109,-2.1109,-2.1109,-2.1109,-2.1109,-2.1109,-2.1229,-2.1555,-2.185,-2.2111,-2.2392,-2.2699,-2.2893,-2.2893,-2.2893,-2.2907,-2.2934,-2.3509,-2.3817,-2.3843,-2.4356,-2.4599,-2.4599,-2.4599,-2.4599,-2.4599,-2.4599,-2.4599,-2.4599,-2.4599,-2.4599,-2.4599,-2.4599,-2.4599,-2.4599,-2.4599,-2.4599,-2.4599,-2.4599,-2.4599,-2.4599,-2.4599,-2.4599,-2.4599,-2.4599,-2.4599,-2.4599,-2.4599,-2.4599,-2.4599,-2.4599,-2.4599,-2.4599,-2.4599,-2.4599,-2.4599,-2.4599,-2.4599,-2.4599,-2.4599,-2.4599,-2.4599,-2.4599,-2.4599,-2.4599,-2.4599,-2.4599,-2.4599,-2.4599,-2.4599,-2.4599,-2.4599,-2.4599,-2.4599,-2.4599,-2.4599,-2.4599,-2.4599,-2.4599,-2.4599,-2.4599,-2.4599,-2.4599,-2.4599,-2.4599,-2.3648,-2.1639,-1.9629,-1.7588,-1.5501,-1.3491,-1.2501,-1.2501,-1.2501,-1.2501,-1.3768,-1.5057,0.0,0.0,-1.7849,-1.8277,-1.8237,-1.8732,-1.8879,-1.7728,-1.8491,-1.9254,-1.8799,-1.9533,-2.0197,-2.0197,-2.0691,-2.1109,-2.1109,-2.1109,-2.1109,-2.1109,-2.1109,-2.1229,-2.1555,-2.185,-2.2111,-2.2392,-2.2699,-2.2893,-2.2893,-2.2893,-2.3014,-2.322,-2.3616,-2.391,-2.4115,-2.4426,-2.4599,-2.4599,-2.4599,-2.4599,-2.4599,-2.4599,-2.4599,-2.4599,-2.4599,-2.4599,-2.4599,-2.4599,-2.4599,-2.4599,-2.4599,-2.4599,-2.4599,-2.4599,-2.4599,-2.4599,-2.4599,-2.4599,-2.4599,-2.4599,-2.4599,-2.4599,-2.4599,-2.4599,-2.4599,-2.4599,-2.4599,-2.4599,-2.4599,-2.4599,-2.4599,-2.4599,-2.4599,-2.4599,-2.4599,-2.4599,-2.4599,-2.4599,-2.4599,-2.4599,-2.4599,-2.4599,-2.4599,-2.4599,-2.4599,-2.4599,-2.4599,-2.4599,-2.4599,-2.4599,-2.4599,-2.4599,-2.4599,-2.4599,-2.4599,-2.4599,-2.4599,-2.4599,-2.4599,-2.4599,-2.3648,-2.1639,-1.9629,-1.7588,-1.5501,-1.3491,-1.2501,-1.2501,-1.2501,-1.2501,-1.3975,0.0,0.0,-1.7354,0.0,-1.849,-1.849,-1.8973,-1.9174,-1.8398,-1.8853,-1.9308,-1.9,-1.9639,-2.0197,-2.0197,-2.0691,-2.1109,-2.1109,-2.1109,-2.1109,-2.1109,-2.1109,-2.1162,-2.1355,-2.177,-2.2044,-2.2205,-2.2653,-2.2893,-2.2893,-2.2893,-2.3006,-2.3278,-2.3621,-2.395,-2.4195,-2.4452,-2.4599,-2.4599,-2.4599,-2.4599,-2.4599,-2.4599,-2.4599,-2.4599,-2.4599,-2.4599,-2.4599,-2.4599,-2.4599,-2.4599,-2.4599,-2.4599,-2.4599,-2.4599,-2.4599,-2.4599,-2.4599,-2.4599,-2.4599,-2.4599,-2.4599,-2.4599,-2.4599,-2.4599,-2.4599,-2.4599,-2.4599,-2.4599,-2.4599,-2.4599,-2.4599,-2.4599,-2.4599,-2.4599,-2.4599,-2.4599,-2.4599,-2.4599,-2.4599,-2.4599,-2.4599,-2.4599,-2.4599,-2.4599,-2.4599,-2.4599,-2.4599,-2.4599,-2.4599,-2.4599,-2.4599,-2.4599,-2.4599,-2.4599,-2.4599,-2.4599,-2.4599,-2.4599,-2.4599,-2.4599,-2.319,-2.023,-1.9139,-1.7094,-1.4061,-1.2997,-1.2501,-1.2501,-1.2501,-1.2501,-1.3854,0.0,-1.6155,-1.7301,-1.8036,0.0,-1.849,-1.8973,-1.9401,-1.9401,-1.9401,-1.9401,-1.9401,-1.984,-2.0197,-2.0197,-2.0691,-2.1109,-2.1109,-2.1109,-2.1109,-2.1109,-2.1109,-2.1109,-2.1109,-2.1643,-2.1991,-2.1991,-2.2559,-2.2893,-2.2893,-2.2893,-2.3067,-2.3394,-2.3683,-2.3928,-2.4275,-2.4479,-2.4599,-2.4599,-2.4599,-2.4599,-2.4599,-2.4599,-2.4599,-2.4599,-2.4599,-2.4599,-2.4599,-2.4599,-2.4599,-2.4599,-2.4599,-2.4599,-2.4599,-2.4599,-2.4599,-2.4599,-2.4599,-2.4599,-2.4599,-2.4599,-2.4599,-2.4599,-2.4599,-2.4599,-2.4599,-2.4599,-2.4599,-2.4599,-2.4599,-2.4599,-2.4599,-2.4599,-2.4599,-2.4599,-2.4599,-2.4599,-2.4599,-2.4599,-2.4599,-2.4599,-2.4599,-2.4599,-2.4599,-2.4599,-2.4599,-2.4599,-2.4599,-2.4599,-2.4599,-2.4599,-2.4599,-2.4599,-2.4599,-2.4599,-2.4599,-2.4599,-2.4599,-2.4599,-2.4599,-2.4599,-2.2695,-1.8686,-1.861,-1.6599,-1.2501,-1.2501,-1.2501,-1.2501,-1.2501,-1.2501,0.0,0.0,-1.6458,0.0,-1.8036,-1.849,0.0,0.0,-1.9401,0.0,-1.9401,-1.9401,-1.9401,-1.984,-2.0197,-2.0197,-2.0691,-2.1109,-2.1109,-2.1109,-2.1109,-2.1109,-2.1109,-2.1109,-2.1109,-2.1643,-2.1991,-2.1991,-2.2559,-2.2893,-2.2893,-2.2893,-2.3161,-2.3723,-2.379,-2.4035,-2.4532,-2.4586,-2.4599,-2.4599,-2.4599,-2.4599,-2.4599,-2.4599,-2.4599,-2.4599,-2.4599,-2.4599,-2.4599,-2.4599,-2.4599,-2.4599,-2.4599,-2.4599,-2.4599,-2.4599,-2.4599,-2.4599,-2.4599,-2.4599,-2.4599,-2.4599,-2.4599,-2.4599,-2.4599,-2.4599,-2.4599,-2.4599,-2.4599,-2.4599,-2.4599,-2.4599,-2.4599,-2.4599,-2.4599,-2.4599,-2.4599,-2.4599,-2.4599,-2.4599,-2.4599,-2.4599,-2.4599,-2.4599,-2.4599,-2.4599,-2.4599,-2.4599,-2.4599,-2.4599,-2.4599,-2.4599,-2.4599,-2.4599,-2.4599,-2.4599,-2.4599,-2.4599,-2.4599,-2.4599,-2.4599,-2.4599,-2.2695,-1.8686,-1.861,-1.6599,-1.2501,-1.2501,-1.2501,-1.2501,-1.2501,-1.2501,-1.3061,-1.4879,-1.6431,0.0,-1.7796,-1.849,-1.849,-1.8973,-1.9401,-1.9401,-1.9401,-1.9401,-1.9401,-1.9706,-2.001,-2.0184,-2.0588,-2.0922,-2.1082,-2.1109,-2.1109,-2.1109,-2.1109,-2.1109,-2.1109,-2.1643,-2.1991,-2.1991,-2.2559,-2.2893,-2.2893,-2.2893,-2.3174,-2.379,-2.3803,-2.4048,-2.4586,-2.4599,-2.4599,-2.4599,-2.4599,-2.4599,-2.4599,-2.4599,-2.4599,-2.4599,-2.4599,-2.4599,-2.4599,-2.4599,-2.4599,-2.4599,-2.4599,-2.4599,-2.4599,-2.4599,-2.4599,-2.4599,-2.4599,-2.4599,-2.4599,-2.4599,-2.4599,-2.4599,-2.4599,-2.4599,-2.4599,-2.4599,-2.4599,-2.4599,-2.4599,-2.4599,-2.4599,-2.4599,-2.4599,-2.4599,-2.4599,-2.4599,-2.4599,-2.4599,-2.4599,-2.4599,-2.4599,-2.4599,-2.4599,-2.4599,-2.4599,-2.4599,-2.4599,-2.4599,-2.4599,-2.4599,-2.4599,-2.4599,-2.4599,-2.4599,-2.4599,-2.4599,-2.4599,-2.4599,-2.4599,-2.4599,-2.2695,-1.8686,-1.861,-1.6599,-1.2501,-1.2501,-1.2501,-1.2501,-1.2501,-1.2501,0.0,0.0,-1.5765,-1.6433,-1.7328,-1.8116,0.0,0.0,-1.9308,-1.9388,-1.9401,-1.9401,-1.9401,-1.9599,-1.9893,-2.0157,-2.0481,-2.0775,-2.1069,-2.1109,-2.1109,-2.1109,-2.1109,-2.1109,-2.1109,-2.1577,-2.1943,-2.1977,-2.2492,-2.2813,-2.2893,-2.2893,-2.3174,-2.379,-2.3803,-2.4048,-2.4586,-2.4599,-2.4599,-2.4599,-2.4599,-2.4599,-2.4599,-2.4599,-2.4599,-2.4599,-2.4599,-2.4599,-2.4599,-2.4599,-2.4599,-2.4599,-2.4599,-2.4599,-2.4599,-2.4599,-2.4599,-2.4599,-2.4599,-2.4599,-2.4599,-2.4599,-2.4599,-2.4599,-2.4599,-2.4599,-2.4599,-2.4599,-2.4599,-2.4599,-2.4599,-2.4599,-2.4599,-2.4599,-2.4599,-2.4599,-2.4599,-2.4599,-2.4599,-2.4599,-2.4599,-2.4599,-2.4599,-2.4599,-2.4599,-2.4599,-2.4599,-2.4599,-2.4599,-2.4599,-2.4599,-2.4599,-2.4599,-2.4599,-2.4599,-2.4599,-2.4599,-2.4599,-2.4599,-2.4599,-2.4599,-2.4599,-2.2695,-1.8686,-1.861,-1.6599,-1.2501,-1.2501,-1.2501,-1.2501,-1.2501,-1.2501,0.0,-1.368,0.0,-1.5896,-1.6553,0.0,0.0,0.0,-1.9025,-1.9334,-1.9401,-1.9401,-1.9401,-1.9599,-1.9893,-2.0157,-2.0481,-2.0775,-2.1069,-2.1109,-2.1109,-2.1109,-2.1109,-2.1109,-2.1109,-2.1422,-2.1729,-2.1964,-2.2271,-2.2565,-2.288,-2.2893,-2.3174,-2.379,-2.3803,-2.4048,-2.4586,-2.4599,-2.4599,-2.4599,-2.4599,-2.4599,-2.4599,-2.4599,-2.4599,-2.4599,-2.4599,-2.4599,-2.4599,-2.4599,-2.4599,-2.4599,-2.4599,-2.4599,-2.4599,-2.4599,-2.4599,-2.4599,-2.4599,-2.4599,-2.4599,-2.4599,-2.4599,-2.4599,-2.4599,-2.4599,-2.4599,-2.4599,-2.4599,-2.4599,-2.4599,-2.4599,-2.4599,-2.4599,-2.4599,-2.4599,-2.4599,-2.4599,-2.4599,-2.4599,-2.4599,-2.4599,-2.4599,-2.4599,-2.4599,-2.4599,-2.4599,-2.4599,-2.4599,-2.4599,-2.4599,-2.4599,-2.4599,-2.4599,-2.4599,-2.4599,-2.4599,-2.4599,-2.4599,-2.4599,-2.4599,-2.4599,-2.2695,-1.8686,-1.861,-1.6599,-1.2501,-1.2501,-1.2501,-1.2501,-1.2501,-1.2501,0.0,0.0,0.0,-1.4669,-1.5511,-1.6235,-1.6662,-1.7569,-1.8369,-1.8476,-1.8971,-1.9401,-1.9401,-1.9481,-1.9679,-2.013,-2.029,-2.0561,-2.1042,-2.1109,-2.1109,-2.1109,-2.1109,-2.1109,-2.1109,-2.1408,-2.1703,-2.1964,-2.2258,-2.2552,-2.288,-2.2893,-2.3174,-2.379,-2.3803,-2.4048,-2.4586,-2.4599,-2.4599,-2.4599,-2.4599,-2.4599,-2.4599,-2.4599,-2.4599,-2.4599,-2.4599,-2.4599,-2.4599,-2.4599,-2.4599,-2.4599,-2.4599,-2.4599,-2.4599,-2.4599,-2.4599,-2.4599,-2.4599,-2.4599,-2.4599,-2.4599,-2.4599,-2.4599,-2.4599,-2.4599,-2.4599,-2.4599,-2.4599,-2.4599,-2.4599,-2.4599,-2.4599,-2.4599,-2.4599,-2.4599,-2.4599,-2.4599,-2.4599,-2.4599,-2.4599,-2.4599,-2.4599,-2.4599,-2.4599,-2.4599,-2.4599,-2.4599,-2.4599,-2.4599,-2.4599,-2.4599,-2.4599,-2.4599,-2.4599,-2.4599,-2.4599,-2.4599,-2.4599,-2.4599,-2.4599,-2.3339,-2.1377,-1.8648,-1.7284,-1.5234,-1.2501,-1.2501,-1.2501,-1.2501,-1.2501,-1.2501,-1.1372,0.0,0.0,0.0,-1.4226,-1.5208,-1.5688,-1.6795,-1.7769,-1.7969,-1.8744,-1.9401,-1.9401,-1.9401,-1.9562,-1.9983,-2.0144,-2.037,-2.0895,-2.1042,-2.1109,-2.1109,-2.1109,-2.1109,-2.1109,-2.1283,-2.1596,-2.1951,-2.2164,-2.2445,-2.288,-2.2893,-2.3174,-2.379,-2.3955,-2.4249,-2.4599,-2.4599,-2.4599,-2.4599,-2.4599,-2.4599,-2.4599,-2.4599,-2.4599,-2.4599,-2.4599,-2.4599,-2.4599,-2.4599,-2.4599,-2.4599,-2.4599,-2.4599,-2.4599,-2.4599,-2.4599,-2.4599,-2.4599,-2.4599,-2.4599,-2.4599,-2.4599,-2.4599,-2.4599,-2.4599,-2.4599,-2.4599,-2.4599,-2.4599,-2.4599,-2.4599,-2.4599,-2.4599,-2.4599,-2.4599,-2.4599,-2.4599,-2.4599,-2.4599,-2.4599,-2.4599,-2.4599,-2.4599,-2.4599,-2.4599,-2.4599,-2.4599,-2.4599,-2.4599,-2.4599,-2.4599,-2.4599,-2.4599,-2.4599,-2.4599,-2.4599,-2.4599,-2.4599,-2.4599,-2.4599,-2.2657,-2.0654,-1.8648,-1.6561,-1.4514,-1.2501,-1.2501,-1.2501,-1.2501,-1.2501,-1.2501,0.0,0.0,0.0,0.0,-1.273,-1.3946,-1.5408,-1.6446,-1.73,-1.7876,-1.8704,-1.9361,-1.9388,-1.9401,-1.9495,-1.9746,-2.001,-2.0304,-2.0641,-2.0922,-2.1109,-2.1109,-2.1109,-2.1109,-2.1109,-2.1109,-2.1349,-2.1924,-2.201,-2.2265,-2.2853,-2.2907,-2.3188,-2.379,-2.4329,-2.4599,-2.4599,-2.4599,-2.4599,-2.4599,-2.4599,-2.4599,-2.4599,-2.4599,-2.4599,-2.4599,-2.4599,-2.4599,-2.4599,-2.4599,-2.4599,-2.4599,-2.4599,-2.4599,-2.4599,-2.4599,-2.4599,-2.4599,-2.4599,-2.4599,-2.4599,-2.4599,-2.4599,-2.4599,-2.4599,-2.4599,-2.4599,-2.4599,-2.4599,-2.4599,-2.4599,-2.4599,-2.4599,-2.4599,-2.4599,-2.4599,-2.4599,-2.4599,-2.4599,-2.4599,-2.4599,-2.4599,-2.4599,-2.4599,-2.4599,-2.4599,-2.4599,-2.4599,-2.4599,-2.4599,-2.4599,-2.4599,-2.4599,-2.4599,-2.4599,-2.4599,-2.4599,-2.4599,-2.4599,-2.4599,-2.4599,-2.262,-2.0579,-1.8648,-1.6485,-1.4437,-1.2501,-1.2501,-1.2501,-1.2501,-1.2501,-1.2501,-0.9161,0.0,0.0,0.0,0.0,0.0,-1.4034,-1.4741,-1.5712,-1.7368,-1.7929,-1.8371,-1.9241,-1.9401,-1.9428,-1.9508,-1.9907,-2.0304,-2.0641,-2.0922,-2.1109,-2.1109,-2.1109,-2.1109,-2.1109,-2.1109,-2.1269,-2.1676,-2.1903,-2.2151,-2.2525,-2.3201,-2.3629,-2.3803,-2.4329,-2.4599,-2.4599,-2.4599,-2.4599,-2.4599,-2.4599,-2.4599,-2.4599,-2.4599,-2.4599,-2.4599,-2.4599,-2.4599,-2.4599,-2.4599,-2.4599,-2.4599,-2.4599,-2.4599,-2.4599,-2.4599,-2.4599,-2.4599,-2.4599,-2.4599,-2.4599,-2.4599,-2.4599,-2.4599,-2.4599,-2.4599,-2.4599,-2.4599,-2.4599,-2.4599,-2.4599,-2.4599,-2.4599,-2.4599,-2.4599,-2.4599,-2.4599,-2.4599,-2.4599,-2.4599,-2.4599,-2.4599,-2.4599,-2.4599,-2.4599,-2.4599,-2.4599,-2.4599,-2.4599,-2.4599,-2.4599,-2.4599,-2.4599,-2.4599,-2.4599,-2.4599,-2.4599,-2.4599,-2.4599,-2.4599,-2.4599,-2.1253,-1.9176,-1.861,-1.5127,-1.3074,-1.2501,-1.2501,-1.2501,-1.2501,-1.2501,-1.2501,0.0,0.0,0.0,0.0,0.0,0.0,-1.2953,-1.3714,-1.4856,-1.6685,-1.706,-1.7421,-1.8597,-1.8639,-1.8545,-1.8771,-1.9276,-1.985,-2.0414,-2.0748,-2.0975,-2.1096,-2.1109,-2.1109,-2.1109,-2.1109,-2.1229,-2.1569,-2.185,-2.2164,-2.2579,-2.3233,-2.3683,-2.3803,-2.4222,-2.4479,-2.4599,-2.4599,-2.4599,-2.4599,-2.4599,-2.4599,-2.4599,-2.4599,-2.4599,-2.4599,-2.4599,-2.4599,-2.4599,-2.4599,-2.4599,-2.4599,-2.4599,-2.4599,-2.4599,-2.4599,-2.4599,-2.4599,-2.4599,-2.4599,-2.4599,-2.4599,-2.4599,-2.4599,-2.4599,-2.4599,-2.4599,-2.4599,-2.4599,-2.4599,-2.4599,-2.4599,-2.4599,-2.4599,-2.4599,-2.4599,-2.4599,-2.4599,-2.4599,-2.4599,-2.4599,-2.4599,-2.4599,-2.4599,-2.4599,-2.4599,-2.4599,-2.4599,-2.4599,-2.4599,-2.4599,-2.4599,-2.4599,-2.4599,-2.4599,-2.4599,-2.4599,-2.4599,-2.4599,-2.4216,-2.3376,-2.0279,-1.8194,-1.7322,-1.4137,-1.2501,-1.2501,-1.2501,-1.2501,-1.2501,-1.2501,-1.2501,0.0,0.0,0.0,0.0,-1.0194,0.0,-1.2251,-1.3106,-1.4303,-1.5829,-1.607,-1.6353,-1.7542,-1.7368,-1.722,-1.7729,-1.8343,-1.9076,-2.0024,-2.0468,-2.0806,-2.1029,-2.1096,-2.1109,-2.1109,-2.1109,-2.1216,-2.1515,-2.1836,-2.2278,-2.2867,-2.3153,-2.346,-2.379,-2.4048,-2.4342,-2.4599,-2.4599,-2.4599,-2.4599,-2.4599,-2.4599,-2.4599,-2.4599,-2.4599,-2.4599,-2.4599,-2.4599,-2.4599,-2.4599,-2.4599,-2.4599,-2.4599,-2.4599,-2.4599,-2.4599,-2.4599,-2.4599,-2.4599,-2.4599,-2.4599,-2.4599,-2.4599,-2.4599,-2.4599,-2.4599,-2.4599,-2.4599,-2.4599,-2.4599,-2.4599,-2.4599,-2.4599,-2.4599,-2.4599,-2.4599,-2.4599,-2.4599,-2.4599,-2.4599,-2.4599,-2.4599,-2.4599,-2.4599,-2.4599,-2.4599,-2.4599,-2.4599,-2.4599,-2.4599,-2.4599,-2.4599,-2.4599,-2.4599,-2.4599,-2.4599,-2.4599,-2.4599,-2.4377,-2.345,-2.1676,-1.944,-1.7398,-1.554,-1.3529,-1.2501,-1.2501,-1.2501,-1.2501,-1.2501,-1.2501,-1.2501,0.0,0.0,0.0,0.0,-1.0254,0.0,-1.2291,-1.2323,-1.2891,-1.4861,-1.4656,-1.4567,-1.5981,-1.6142,-1.6206,-1.6567,-1.7315,-1.8317,-1.9693,-2.0334,-2.0726,-2.0762,-2.0962,-2.1109,-2.1109,-2.1109,-2.1136,-2.1189,-2.1683,-2.2278,-2.2867,-2.3153,-2.346,-2.379,-2.4048,-2.4342,-2.4599,-2.4599,-2.4599,-2.4599,-2.4599,-2.4599,-2.4599,-2.4599,-2.4599,-2.4599,-2.4599,-2.4599,-2.4599,-2.4599,-2.4599,-2.4599,-2.4599,-2.4599,-2.4599,-2.4599,-2.4599,-2.4599,-2.4599,-2.4599,-2.4599,-2.4599,-2.4599,-2.4599,-2.4599,-2.4599,-2.4599,-2.4599,-2.4599,-2.4599,-2.4599,-2.4599,-2.4599,-2.4599,-2.4599,-2.4599,-2.4599,-2.4599,-2.4599,-2.4599,-2.4599,-2.4599,-2.4599,-2.4599,-2.4599,-2.4599,-2.4599,-2.4599,-2.4599,-2.4599,-2.4599,-2.4599,-2.4599,-2.4599,-2.4599,-2.4599,-2.4599,-2.4599,-2.3079,-2.2012,-2.1639,-1.808,-1.5913,-1.5501,-1.3529,-1.2501,-1.2501,-1.2501,-1.2501,-1.2501,-1.2501,-1.2501,0.0,0.0,0.0,-0.7607,0.0,0.0,0.0,-1.1525,-1.235,-1.3975,-1.3707,-1.3601,-1.4914,-1.4914,-1.4861,-1.5324,-1.6005,-1.6886,-1.7916,-1.9439,-2.0508,-2.0686,-2.0935,-2.1109,-2.1109,-2.1109,-2.1229,-2.1523,-2.1817,-2.2278,-2.2867,-2.3041,-2.33,-2.379,-2.395,-2.4195,-2.4599,-2.4599,-2.4599,-2.4599,-2.4599,-2.4599,-2.4599,-2.4599,-2.4599,-2.4599,-2.4599,-2.4599,-2.4599,-2.4599,-2.4599,-2.4599,-2.4599,-2.4599,-2.4599,-2.4599,-2.4599,-2.4599,-2.4599,-2.4599,-2.4599,-2.4599,-2.4599,-2.4599,-2.4599,-2.4599,-2.4599,-2.4599,-2.4599,-2.4599,-2.4599,-2.4599,-2.4599,-2.4599,-2.4599,-2.4599,-2.4599,-2.4599,-2.4599,-2.4599,-2.4599,-2.4599,-2.4599,-2.4599,-2.4599,-2.4599,-2.4599,-2.4599,-2.4599,-2.4599,-2.4599,-2.4599,-2.4599,-2.4599,-2.4599,-2.4599,-2.4599,-2.4599,-2.2695,-2.1141,-2.0155,-1.7132,-1.505,-1.4022,-1.2997,-1.2501,-1.2501,-1.2501,-1.2501,-1.2501,-1.2501,-1.2501,0.0,0.0,0.0,0.0,0.0,-0.965,0.0,0.0,0.0,-1.249,-1.2331,-1.2383,-1.3561,-1.3386,-1.329,-1.3973,-1.4683,-1.5311,-1.5815,-1.7943,-1.9626,-2.0057,-2.0334,-2.0601,-2.0842,-2.1015,-2.1323,-2.189,-2.1984,-2.2251,-2.2786,-2.2867,-2.3174,-2.379,-2.3803,-2.4048,-2.4586,-2.4599,-2.4599,-2.4599,-2.4599,-2.4599,-2.4599,-2.4599,-2.4599,-2.4599,-2.4599,-2.4599,-2.4599,-2.4599,-2.4599,-2.4599,-2.4599,-2.4599,-2.4599,-2.4599,-2.4599,-2.4599,-2.4599,-2.4599,-2.4599,-2.4599,-2.4599,-2.4599,-2.4599,-2.4599,-2.4599,-2.4599,-2.4599,-2.4599,-2.4599,-2.4599,-2.4599,-2.4599,-2.4599,-2.4599,-2.4599,-2.4599,-2.4599,-2.4599,-2.4599,-2.4599,-2.4599,-2.4599,-2.4599,-2.4599,-2.4599,-2.4599,-2.4599,-2.4599,-2.4599,-2.4599,-2.4599,-2.4599,-2.4599,-2.4599,-2.4599,-2.4599,-2.236,-2.0279,-1.8686,-1.6218,-1.4176,-1.254,-1.2501,-1.2501,-1.2501,-1.2501,-1.2501,-1.2501,-1.2501,-1.2501,0.0,0.0,0.0,0.0,-0.8402,0.0,-0.871,0.0,-0.9187,-0.9309,0.0,-0.9664,-1.0974,0.0,0.0,-1.2381,-1.3507,-1.4277,-1.4344,-1.5735,-1.7046,-1.7862,-1.8196,-1.8784,-1.984,-2.0655,-2.1243,-2.1609,-2.1877,-2.2124,-2.2458,-2.2746,-2.3174,-2.379,-2.3803,-2.4048,-2.4586,-2.4599,-2.4599,-2.4599,-2.4599,-2.4599,-2.4599,-2.4599,-2.4599,-2.4599,-2.4599,-2.4599,-2.4599,-2.4599,-2.4599,-2.4599,-2.4599,-2.4599,-2.4599,-2.4599,-2.4599,-2.4599,-2.4599,-2.4599,-2.4599,-2.4599,-2.4599,-2.4599,-2.4599,-2.4599,-2.4599,-2.4599,-2.4599,-2.4599,-2.4599,-2.4599,-2.4599,-2.4599,-2.4599,-2.4599,-2.4599,-2.4599,-2.4599,-2.4599,-2.4599,-2.4599,-2.4599,-2.4599,-2.4599,-2.4599,-2.4599,-2.4599,-2.4599,-2.4599,-2.4599,-2.4599,-2.4599,-2.4599,-2.4599,-2.4599,-2.4599,-2.4599,-2.1029,-1.8837,-1.861,-1.4897,-1.2733,-1.2501,-1.2501,-1.2501,-1.2501,-1.2501,-1.2501,-1.2501,-1.2501,-1.2501,0.0,0.0,0.0,0.0,0.0,0.0,-0.8047,0.0,-0.8792,0.0,0.0,0.0,0.0,0.0,0.0,0.0,-1.2505,-1.3347,-1.3347,-1.4009,-1.5137,-1.686,-1.7488,-1.8303,-1.9666,-1.9666,-2.0,-2.1007,-2.1194,-2.1462,-2.193,-2.2559,-2.3174,-2.379,-2.3803,-2.4048,-2.4586,-2.4599,-2.4599,-2.4599,-2.4599,-2.4599,-2.4599,-2.4599,-2.4599,-2.4599,-2.4599,-2.4599,-2.4599,-2.4599,-2.4599,-2.4599,-2.4599,-2.4599,-2.4599,-2.4599,-2.4599,-2.4599,-2.4599,-2.4599,-2.4599,-2.4599,-2.4599,-2.4599,-2.4599,-2.4599,-2.4599,-2.4599,-2.4599,-2.4599,-2.4599,-2.4599,-2.4599,-2.4599,-2.4599,-2.4599,-2.4599,-2.4599,-2.4599,-2.4599,-2.4599,-2.4599,-2.4599,-2.4599,-2.4599,-2.4599,-2.4599,-2.4599,-2.4599,-2.4599,-2.4599,-2.4599,-2.4599,-2.4599,-2.4599,-2.3537,-2.2843,-2.2843,-1.9063,-1.6294,-1.5127,-1.3414,-1.2501,-1.2501,-1.2501,-1.2501,-1.2501,-1.2501,-1.2501,-1.2501,-1.2501,-1.2501,-0.8229,0.0,0.0,0.0,0.0,0.0,0.0,0.0,0.0,0.0,-0.8335,0.0,0.0,0.0,0.0,0.0,0.0,-1.2636,-1.2556,-1.2791,-1.3707,-1.5752,-1.6714,-1.7649,-1.8731,-1.8557,-1.8811,-1.988,-2.0217,-2.0646,-2.1315,-2.2104,-2.292,-2.3777,-2.3803,-2.4048,-2.4586,-2.4599,-2.4599,-2.4599,-2.4599,-2.4599,-2.4599,-2.4599,-2.4599,-2.4599,-2.4599,-2.4599,-2.4599,-2.4599,-2.4599,-2.4599,-2.4599,-2.4599,-2.4599,-2.4599,-2.4599,-2.4599,-2.4599,-2.4599,-2.4599,-2.4599,-2.4599,-2.4599,-2.4599,-2.4599,-2.4599,-2.4599,-2.4599,-2.4599,-2.4599,-2.4599,-2.4599,-2.4599,-2.4599,-2.4599,-2.4599,-2.4599,-2.4599,-2.4599,-2.4599,-2.4599,-2.4599,-2.4599,-2.4599,-2.4599,-2.4599,-2.4599,-2.4599,-2.4599,-2.4377,-2.3833,-2.3759,-2.3537,-2.3005,-2.1639,-2.0542,-1.9967,-1.7132,-1.459,-1.2579,-1.2501,-1.2501,-1.2501,-1.2501,-1.2501,-1.2501,-1.2501,-1.2501,-1.2501,-1.2501,-1.2501,0.0,0.0,0.0,-0.8546,0.0,0.0,0.0,0.0,-0.6536,0.0,0.0,0.0,0.0,0.0,0.0,0.0,0.0,0.0,0.0,-1.2163,-1.2786,-1.4049,-1.5467,-1.6364,-1.6404,-1.7382,-1.8049,-1.8075,-1.8931,-1.9816,-2.0686,-2.1301,-2.2291,-2.3763,-2.3803,-2.4048,-2.4586,-2.4599,-2.4599,-2.4599,-2.4599,-2.4599,-2.4599,-2.4599,-2.4599,-2.4599,-2.4599,-2.4599,-2.4599,-2.4599,-2.4599,-2.4599,-2.4599,-2.4599,-2.4599,-2.4599,-2.4599,-2.4599,-2.4599,-2.4599,-2.4599,-2.4599,-2.4599,-2.4599,-2.4599,-2.4599,-2.4599,-2.4599,-2.4599,-2.4599,-2.4599,-2.4599,-2.4599,-2.4599,-2.4599,-2.4599,-2.4599,-2.4599,-2.4599,-2.4599,-2.4599,-2.4599,-2.4599,-2.4599,-2.4599,-2.4599,-2.4599,-2.4599,-2.4599,-2.4599,-2.3833,-2.19,-2.1714,-2.0916,-1.895,-1.8723,-1.7853,-1.5807,-1.5578,-1.459,-1.2579,-1.2501,-1.2501,-1.2501,-1.2501,-1.2501,-1.2501,-1.2501,-1.2501,-1.2501,-1.2501,-1.2501,-1.0426,-1.0595,-1.0849,-0.9376,-0.9149,-0.8934,-0.761,0.0,0.0,0.0,0.0,0.0,0.0,0.0,0.0,0.0,0.0,0.0,0.0,-1.2585,-1.3053,-1.3454,-1.4456,-1.5418,-1.6217,-1.6286,-1.662,-1.7421,-1.809,-1.8945,-2.004,-2.106,-2.2265,-2.3763,-2.3803,-2.4048,-2.4586,-2.4599,-2.4599,-2.4599,-2.4599,-2.4599,-2.4599,-2.4599,-2.4599,-2.4599,-2.4599,-2.4599,-2.4599,-2.4599,-2.4599,-2.4599,-2.4599,-2.4599,-2.4599,-2.4599,-2.4599,-2.4599,-2.4599,-2.4599,-2.4599,-2.4599,-2.4599,-2.4599,-2.4599,-2.4599,-2.4599,-2.4599,-2.4599,-2.4599,-2.4599,-2.4599,-2.4599,-2.4599,-2.4599,-2.4599,-2.4599,-2.4599,-2.4599,-2.4599,-2.4599,-2.4599,-2.4599,-2.4599,-2.4599,-2.4599,-2.4599,-2.4599,-2.4599,-2.4599,-2.3833,-2.1826,-2.1601,-2.0804,-1.8761,-1.7322,-1.5693,-1.3645,-1.3529,-1.3221,-1.254,-1.2501,-1.2501,-1.2501,-1.2501,-1.2501,-1.2501,-1.2501,-1.2501,-1.2501,-1.2501,-1.2501,-1.2171,-1.2204,-1.2296,-1.0249,-0.9824,-0.9605,-0.8384,-0.774,-0.7512,0.0,0.0,0.0,0.0,0.0,0.0,0.0,0.0,0.0,0.0,-1.2893,-1.3233,-1.3327,-1.394,-1.471,-1.5588,-1.5427,-1.5628,-1.6484,-1.7168,-1.8156,-1.9573,-2.0592,-2.189,-2.3567,-2.375,-2.3995,-2.4439,-2.4546,-2.4599,-2.4599,-2.4599,-2.4599,-2.4599,-2.4599,-2.4599,-2.4599,-2.4599,-2.4599,-2.4599,-2.4599,-2.4599,-2.4599,-2.4599,-2.4599,-2.4599,-2.4599,-2.4599,-2.4599,-2.4599,-2.4599,-2.4599,-2.4599,-2.4599,-2.4599,-2.4599,-2.4599,-2.4599,-2.4599,-2.4599,-2.4599,-2.4599,-2.4599,-2.4599,-2.4599,-2.4599,-2.4599,-2.4599,-2.4599,-2.4599,-2.4599,-2.4599,-2.4599,-2.4599,-2.4599,-2.4599,-2.4599,-2.4599,-2.4599,-2.4599,-2.4599,-2.3574,-2.0804,-2.0542,-1.9403,-1.6675,-1.5204,-1.3868,-1.2579,-1.2501,-1.2501,-1.2501,-1.2501,-1.2501,-1.2501,-1.2501,-1.2501,-1.2501,-1.2501,-1.2501,-1.2501,-1.2501,-1.2501]},{"header":{"parameterUnit":"m.s-1","parameterCategory":1,"la1":30.6,"la2":29.2853,"lo1":-89.7004,"lo2":-87.6739,"dy":0.0162,"dx":0.0183,"nx":112,"ny":82,"refTime":"2023-10-20T06:00:00:Z","depth":0,"parameterNumber":3,"parameterNumberName":"V-component_of_WINDS"},"data":[0.0,0.0,0.0,0.0,0.0,0.0,0.0,0.0,0.0,0.0,0.0,0.0,0.0,0.0,0.0,0.0,0.0,0.0,0.0,0.0,0.0,0.0,0.0,0.0,0.0,0.0,0.0,0.0,0.0,0.0,0.0,0.0,0.0,0.0,0.0,0.0,0.0,0.0,0.0,0.0,0.0,0.0,0.0,0.0,0.0,0.0,0.0,0.0,0.0,0.0,0.0,0.0,0.0,0.0,0.0,0.0,0.0,0.0,0.0,0.0,0.0,0.0,0.0,0.0,0.0,0.0,0.0,0.0,0.0,0.0,0.0,0.0,0.0,0.0,0.0,0.0,0.0,0.0,0.0,0.0,0.0,0.0,0.0,0.0,0.0,0.0,0.0,0.0,0.0,0.0,3.3203,3.375,3.5117,3.6016,3.6016,3.5967,3.517,3.3412,0.0,0.0,0.0,0.0,0.0,0.0,0.0,0.0,0.0,0.0,0.0,0.0,0.0,0.0,0.0,0.0,0.0,0.0,0.0,0.0,0.0,0.0,0.0,0.0,0.0,0.0,0.0,0.0,0.0,0.0,0.0,0.0,0.0,0.0,0.0,0.0,0.0,0.0,0.0,0.0,0.0,0.0,0.0,0.0,0.0,0.0,0.0,0.0,0.0,0.0,0.0,0.0,0.0,0.0,0.0,0.0,0.0,0.0,0.0,0.0,0.0,0.0,0.0,0.0,0.0,0.0,0.0,0.0,0.0,0.0,0.0,0.0,0.0,0.0,0.0,0.0,0.0,0.0,0.0,0.0,0.0,0.0,0.0,0.0,0.0,0.0,0.0,0.0,0.0,0.0,0.0,0.0,0.0,0.0,0.0,0.0,0.0,0.0,0.0,0.0,0.0,0.0,0.0,0.0,3.2383,3.5312,3.5859,3.6016,3.6016,3.5976,3.523,3.3414,0.0,0.0,0.0,0.0,0.0,0.0,0.0,0.0,0.0,0.0,0.0,0.0,0.0,0.0,0.0,0.0,0.0,0.0,0.0,0.0,0.0,0.0,0.0,0.0,0.0,0.0,0.0,0.0,0.0,0.0,0.0,0.0,0.0,0.0,0.0,0.0,0.0,0.0,0.0,0.0,0.0,0.0,0.0,0.0,0.0,0.0,0.0,0.0,0.0,0.0,0.0,0.0,0.0,0.0,0.0,0.0,0.0,0.0,0.0,0.0,0.0,0.0,0.0,0.0,0.0,0.0,0.0,0.0,0.0,0.0,0.0,0.0,0.0,0.0,0.0,0.0,0.0,0.0,0.0,0.0,0.0,0.0,0.0,0.0,0.0,0.0,0.0,0.0,0.0,0.0,0.0,0.0,0.0,0.0,0.0,0.0,0.0,0.0,0.0,0.0,0.0,0.0,0.0,3.1834,3.3864,3.6445,3.7148,3.7226,3.6758,3.6676,3.5683,3.3377,3.3246,0.0,0.0,0.0,0.0,0.0,0.0,0.0,0.0,0.0,0.0,0.0,0.0,0.0,0.0,0.0,0.0,0.0,0.0,0.0,0.0,0.0,0.0,0.0,0.0,0.0,0.0,0.0,0.0,0.0,0.0,0.0,0.0,0.0,0.0,0.0,0.0,0.0,0.0,0.0,0.0,0.0,0.0,0.0,0.0,0.0,0.0,0.0,0.0,0.0,0.0,0.0,0.0,0.0,0.0,0.0,0.0,0.0,0.0,0.0,0.0,0.0,0.0,0.0,0.0,0.0,0.0,0.0,0.0,0.0,0.0,0.0,0.0,0.0,0.0,0.0,0.0,0.0,0.0,0.0,0.0,0.0,0.0,0.0,0.0,0.0,0.0,0.0,0.0,0.0,0.0,0.0,0.0,0.0,0.0,0.0,0.0,0.0,0.0,0.0,0.0,0.0,0.0,3.3551,3.5854,3.7422,3.8203,3.832,3.7656,3.718,3.5939,3.3647,3.3125,0.0,0.0,0.0,0.0,0.0,0.0,0.0,0.0,0.0,0.0,0.0,0.0,0.0,0.0,0.0,0.0,0.0,0.0,0.0,0.0,0.0,0.0,0.0,0.0,0.0,0.0,0.0,0.0,0.0,0.0,0.0,0.0,0.0,0.0,0.0,0.0,0.0,0.0,0.0,0.0,0.0,0.0,0.0,0.0,0.0,0.0,0.0,0.0,0.0,0.0,0.0,0.0,0.0,0.0,0.0,0.0,0.0,0.0,0.0,0.0,0.0,0.0,0.0,0.0,0.0,0.0,0.0,0.0,0.0,0.0,0.0,0.0,0.0,0.0,0.0,0.0,0.0,0.0,0.0,0.0,0.0,0.0,0.0,0.0,0.0,0.0,0.0,0.0,0.0,0.0,0.0,0.0,0.0,0.0,0.0,0.0,0.0,0.0,0.0,0.0,0.0,0.0,3.5039,3.7461,3.8398,3.8555,3.8594,3.8516,3.7031,3.5615,3.4474,3.2896,0.0,0.0,0.0,0.0,0.0,0.0,0.0,0.0,0.0,0.0,0.0,0.0,0.0,0.0,0.0,0.0,0.0,0.0,0.0,0.0,0.0,0.0,0.0,0.0,0.0,0.0,0.0,0.0,0.0,0.0,0.0,0.0,0.0,0.0,0.0,0.0,0.0,0.0,0.0,0.0,0.0,0.0,0.0,0.0,0.0,0.0,0.0,0.0,0.0,0.0,0.0,0.0,0.0,0.0,0.0,0.0,0.0,0.0,0.0,0.0,0.0,0.0,0.0,0.0,0.0,0.0,0.0,0.0,0.0,0.0,0.0,0.0,0.0,0.0,0.0,0.0,0.0,0.0,0.0,0.0,0.0,0.0,0.0,0.0,0.0,0.0,0.0,0.0,0.0,0.0,0.0,0.0,0.0,0.0,0.0,0.0,0.0,0.0,0.0,0.0,0.0,0.0,3.4685,3.7184,3.9219,3.9883,4.0,3.9453,3.8828,3.7301,3.4722,0.0,0.0,0.0,0.0,0.0,0.0,0.0,0.0,0.0,0.0,0.0,0.0,0.0,0.0,0.0,0.0,0.0,0.0,0.0,0.0,0.0,0.0,0.0,0.0,0.0,0.0,0.0,0.0,0.0,0.0,0.0,0.0,0.0,0.0,0.0,0.0,0.0,0.0,0.0,0.0,0.0,0.0,0.0,0.0,0.0,0.0,0.0,0.0,0.0,0.0,0.0,0.0,0.0,0.0,0.0,0.0,0.0,0.0,0.0,0.0,0.0,0.0,0.0,0.0,0.0,0.0,0.0,0.0,0.0,0.0,0.0,0.0,0.0,0.0,0.0,0.0,0.0,0.0,0.0,0.0,0.0,0.0,0.0,0.0,0.0,0.0,0.0,0.0,0.0,0.0,0.0,0.0,0.0,0.0,0.0,0.0,0.0,0.0,0.0,0.0,0.0,0.0,3.2305,3.5271,3.7965,4.0078,4.0859,4.0976,4.0351,3.9805,3.8201,3.5212,0.0,0.0,0.0,0.0,0.0,0.0,0.0,0.0,0.0,0.0,0.0,0.0,0.0,0.0,0.0,0.0,0.0,0.0,0.0,0.0,0.0,0.0,0.0,0.0,0.0,0.0,0.0,0.0,0.0,0.0,0.0,0.0,0.0,0.0,0.0,0.0,0.0,0.0,0.0,0.0,0.0,0.0,0.0,0.0,0.0,0.0,0.0,0.0,0.0,0.0,0.0,0.0,0.0,0.0,0.0,0.0,0.0,0.0,0.0,0.0,0.0,0.0,0.0,0.0,0.0,0.0,0.0,0.0,0.0,0.0,0.0,0.0,0.0,0.0,0.0,0.0,0.0,0.0,0.0,0.0,0.0,0.0,0.0,0.0,0.0,0.0,0.0,0.0,0.0,0.0,0.0,0.0,0.0,0.0,0.0,0.0,0.0,0.0,0.0,0.0,0.0,0.0,3.332,3.7226,4.0234,4.1094,4.1211,4.1211,4.1211,3.9609,3.785,0.0,0.0,0.0,0.0,0.0,0.0,0.0,0.0,0.0,0.0,0.0,0.0,0.0,0.0,0.0,0.0,0.0,0.0,0.0,0.0,0.0,0.0,0.0,0.0,0.0,0.0,0.0,0.0,0.0,0.0,0.0,0.0,0.0,0.0,0.0,0.0,0.0,0.0,0.0,0.0,0.0,0.0,0.0,0.0,0.0,0.0,0.0,0.0,0.0,0.0,0.0,0.0,0.0,0.0,0.0,0.0,0.0,0.0,0.0,0.0,0.0,0.0,0.0,0.0,0.0,0.0,0.0,0.0,0.0,0.0,0.0,0.0,0.0,0.0,0.0,0.0,0.0,0.0,0.0,0.0,0.0,0.0,0.0,0.0,0.0,0.0,0.0,0.0,0.0,0.0,0.0,0.0,0.0,0.0,0.0,0.0,0.0,0.0,0.0,0.0,0.0,0.0,0.0,3.4141,3.7578,4.0234,4.1094,4.1211,4.1211,4.1211,4.0742,3.914,3.617,0.0,0.0,0.0,0.0,0.0,0.0,0.0,0.0,0.0,0.0,0.0,0.0,0.0,0.0,0.0,0.0,0.0,0.0,0.0,0.0,0.0,0.0,0.0,0.0,0.0,0.0,0.0,0.0,0.0,0.0,0.0,0.0,0.0,0.0,0.0,0.0,0.0,0.0,0.0,0.0,0.0,0.0,0.0,0.0,0.0,0.0,0.0,0.0,0.0,0.0,0.0,0.0,0.0,0.0,0.0,0.0,0.0,0.0,0.0,0.0,0.0,0.0,0.0,0.0,0.0,0.0,0.0,0.0,0.0,0.0,0.0,0.0,0.0,0.0,0.0,0.0,0.0,0.0,0.0,0.0,0.0,0.0,0.0,0.0,0.0,0.0,0.0,0.0,0.0,0.0,0.0,0.0,0.0,0.0,0.0,0.0,0.0,0.0,0.0,0.0,0.0,0.0,3.5039,3.8555,4.1211,4.2109,4.2187,4.2187,4.2187,4.1875,4.0508,3.7734,0.0,0.0,0.0,0.0,0.0,0.0,0.0,0.0,0.0,0.0,0.0,0.0,0.0,0.0,0.0,0.0,0.0,0.0,0.0,0.0,0.0,0.0,0.0,0.0,0.0,0.0,0.0,0.0,0.0,0.0,0.0,0.0,0.0,0.0,0.0,0.0,0.0,0.0,0.0,0.0,0.0,0.0,0.0,0.0,0.0,0.0,0.0,0.0,0.0,0.0,0.0,0.0,0.0,0.0,0.0,0.0,0.0,0.0,0.0,0.0,0.0,0.0,0.0,0.0,0.0,0.0,0.0,0.0,0.0,0.0,0.0,0.0,0.0,0.0,0.0,0.0,0.0,0.0,0.0,0.0,0.0,0.0,0.0,0.0,0.0,0.0,0.0,0.0,0.0,0.0,0.0,0.0,0.0,0.0,0.0,0.0,0.0,0.0,0.0,0.0,0.0,0.0,3.6016,3.9883,4.2812,4.3633,4.3711,4.3711,4.3711,4.2969,4.1797,4.0117,0.0,0.0,0.0,0.0,0.0,0.0,0.0,0.0,0.0,0.0,0.0,0.0,0.0,0.0,0.0,0.0,0.0,0.0,0.0,0.0,0.0,0.0,0.0,0.0,0.0,0.0,0.0,0.0,0.0,0.0,0.0,0.0,0.0,0.0,0.0,0.0,0.0,0.0,0.0,0.0,0.0,0.0,0.0,0.0,0.0,0.0,0.0,0.0,0.0,0.0,0.0,0.0,0.0,0.0,0.0,0.0,0.0,0.0,0.0,0.0,3.105,2.8525,0.0,0.0,0.0,0.0,0.0,0.0,0.0,0.0,0.0,0.0,0.0,0.0,0.0,0.0,0.0,0.0,0.0,0.0,0.0,0.0,0.0,0.0,0.0,0.0,0.0,0.0,0.0,0.0,0.0,0.0,0.0,0.0,0.0,0.0,0.0,0.0,0.0,0.0,0.0,0.0,3.6914,4.0781,4.3476,4.3672,4.3711,4.3711,4.3711,4.3516,4.2695,4.1016,3.957,0.0,0.0,0.0,0.0,0.0,0.0,0.0,0.0,0.0,0.0,0.0,0.0,0.0,0.0,0.0,0.0,0.0,0.0,0.0,0.0,0.0,0.0,0.0,0.0,0.0,0.0,0.0,0.0,0.0,0.0,0.0,0.0,0.0,0.0,0.0,0.0,0.0,0.0,0.0,0.0,0.0,0.0,0.0,0.0,0.0,0.0,0.0,0.0,0.0,0.0,0.0,0.0,0.0,0.0,0.0,0.0,0.0,0.0,0.0,3.2814,3.116,0.0,0.0,0.0,0.0,0.0,0.0,0.0,0.0,0.0,0.0,0.0,0.0,0.0,0.0,0.0,0.0,0.0,0.0,0.0,0.0,0.0,0.0,0.0,0.0,0.0,0.0,0.0,0.0,0.0,0.0,0.0,0.0,0.0,0.0,0.0,0.0,0.0,0.0,0.0,0.0,3.9531,4.2422,4.4492,4.4883,4.4961,4.4961,4.4961,4.457,4.3945,4.3086,4.1445,0.0,0.0,0.0,0.0,0.0,0.0,0.0,0.0,0.0,0.0,0.0,0.0,0.0,0.0,0.0,0.0,0.0,0.0,0.0,0.0,0.0,0.0,0.0,0.0,0.0,0.0,0.0,0.0,0.0,0.0,0.0,0.0,0.0,0.0,0.0,0.0,0.0,0.0,0.0,0.0,0.0,0.0,0.0,0.0,0.0,0.0,0.0,0.0,0.0,0.0,0.0,0.0,0.0,3.6549,3.6895,3.8234,3.7542,3.7619,3.8119,3.5738,3.5157,3.5731,3.2885,0.0,0.0,0.0,0.0,0.0,0.0,0.0,0.0,0.0,0.0,0.0,0.0,0.0,0.0,0.0,0.0,0.0,0.0,0.0,0.0,0.0,0.0,3.6752,3.8943,3.9452,3.8671,3.582,0.0,0.0,0.0,0.0,0.0,0.0,0.0,0.0,0.0,0.0,0.0,4.2148,4.4062,4.5508,4.6211,4.6289,4.6289,4.6289,4.5625,4.5234,4.5234,4.3125,4.1875,0.0,0.0,0.0,0.0,0.0,0.0,0.0,0.0,0.0,0.0,0.0,0.0,0.0,0.0,0.0,0.0,0.0,0.0,0.0,0.0,0.0,0.0,0.0,0.0,0.0,0.0,0.0,0.0,0.0,0.0,0.0,0.0,2.8867,3.1479,0.0,0.0,0.0,0.0,0.0,0.0,0.0,0.0,0.0,0.0,0.0,0.0,0.0,3.7504,4.0927,4.0966,4.2085,4.4282,4.4167,4.4205,4.4436,4.4321,4.4321,4.4321,4.2547,0.0,3.7623,3.7199,0.0,0.0,0.0,0.0,0.0,0.0,0.0,0.0,0.0,0.0,0.0,0.0,0.0,0.0,0.0,0.0,0.0,0.0,0.0,0.0,0.0,0.0,4.2381,4.2843,4.2934,4.2828,4.2421,3.9414,3.6953,3.7461,3.7578,3.707,0.0,0.0,0.0,0.0,0.0,0.0,4.2344,4.457,4.6172,4.6289,4.6289,4.6289,4.6289,4.6172,4.6133,4.6133,4.5117,4.4492,4.4492,4.2266,0.0,0.0,0.0,0.0,0.0,0.0,0.0,0.0,0.0,0.0,0.0,0.0,0.0,0.0,0.0,0.0,0.0,0.0,0.0,0.0,0.0,0.0,0.0,0.0,0.0,0.0,0.0,0.0,0.0,2.8705,3.1281,3.3357,3.2709,3.1825,0.0,0.0,0.0,0.0,0.0,0.0,0.0,0.0,0.0,3.9826,4.0213,4.1771,4.4699,4.4737,4.5366,4.6656,4.6656,4.6781,4.7009,4.7009,4.7009,4.6971,4.624,4.5047,4.3547,4.1623,4.0585,4.0004,0.0,0.0,0.0,0.0,3.5776,3.5892,3.6657,3.8007,3.9299,3.8633,0.0,0.0,0.0,0.0,0.0,0.0,0.0,3.8174,4.0092,4.2341,4.4457,4.5996,4.636,4.6371,4.6408,4.4962,4.2996,4.0546,4.0078,3.9648,3.8398,3.8828,0.0,0.0,0.0,4.4219,4.5195,4.6758,4.7773,4.7773,4.7773,4.7773,4.7773,4.7305,4.7031,4.7031,4.6211,4.5742,4.5742,4.418,4.2851,0.0,0.0,0.0,0.0,0.0,0.0,0.0,0.0,0.0,0.0,0.0,0.0,0.0,0.0,0.0,0.0,0.0,0.0,0.0,0.0,0.0,0.0,0.0,0.0,0.0,0.0,0.0,0.0,3.1048,3.3903,3.5738,3.5445,3.5158,0.0,0.0,0.0,0.0,0.0,0.0,3.8961,3.9815,4.1355,4.3632,4.4215,4.5478,4.7599,4.7825,4.8191,4.8644,4.8644,4.8773,4.9084,4.9201,4.9238,4.9243,4.9361,4.9274,4.8812,4.5663,4.4004,4.3389,4.2927,4.1623,3.9931,3.9931,3.9931,4.0008,4.0431,4.1393,4.246,4.2556,4.2577,4.2307,4.1108,0.0,0.0,0.0,0.0,4.0729,4.3294,4.4721,4.6007,4.7972,4.8452,4.8474,4.8541,4.8618,4.758,4.386,4.3163,4.2812,4.1719,4.1914,0.0,4.4141,4.5312,4.6484,4.7773,4.8516,4.8906,4.8906,4.8906,4.8906,4.8906,4.832,4.793,4.793,4.7305,4.6875,4.6641,4.6016,4.4961,4.3437,0.0,0.0,0.0,0.0,0.0,0.0,0.0,0.0,0.0,0.0,0.0,0.0,0.0,0.0,0.0,0.0,0.0,0.0,0.0,0.0,0.0,0.0,0.0,0.0,0.0,0.0,0.0,0.0,0.0,3.8204,4.0487,0.0,0.0,0.0,0.0,3.8498,3.9203,4.0752,4.3065,4.3542,4.4496,4.6148,4.7335,4.8399,4.9287,5.0109,5.0915,5.1669,5.1669,5.1684,5.1715,5.216,5.2355,5.2374,5.2768,5.2467,5.15,4.8928,4.7812,4.762,4.6013,4.5321,4.521,4.521,4.521,4.5436,4.7048,4.7658,4.774,4.7749,4.7711,4.7249,4.4799,4.4604,0.0,0.0,4.3373,4.5342,4.547,4.6694,4.7974,4.8248,4.8329,4.8382,4.8625,4.8698,4.8623,4.8352,4.8428,4.7969,4.6289,0.0,4.793,4.6406,4.7617,4.875,4.8828,4.8867,4.8906,4.8906,4.8906,4.8906,4.8906,4.8867,4.8828,4.8828,4.8789,4.8398,4.7578,4.75,4.7031,4.6133,4.4453,0.0,0.0,0.0,0.0,0.0,0.0,0.0,0.0,0.0,0.0,0.0,0.0,0.0,0.0,0.0,0.0,0.0,0.0,0.0,0.0,0.0,0.0,0.0,0.0,0.0,0.0,0.0,0.0,4.0744,4.1772,0.0,4.2221,4.2478,4.2396,4.1817,4.3975,4.5663,4.6544,4.7721,4.8652,4.9196,4.9649,5.0027,5.0305,5.0602,5.1016,5.1498,5.1498,5.1648,5.1918,5.2399,5.2596,5.2622,5.3031,5.3005,5.2659,5.1774,5.0433,4.8894,4.8283,4.7702,4.7201,4.7201,4.7201,4.7278,4.7889,4.8082,4.8082,4.8082,4.8082,4.7928,4.7009,4.6977,4.705,4.6138,4.6938,4.809,4.8066,4.8899,4.9803,4.9842,4.9826,4.9869,4.9976,5.006,5.0131,5.0131,4.9475,4.8711,4.8086,4.8476,4.8672,4.8086,4.8984,4.9726,4.9726,5.0195,5.0508,5.0508,5.0508,5.0508,5.0508,5.0039,4.9726,4.9726,4.9219,4.875,4.8437,4.8437,4.8281,4.7969,4.6797,4.4961,0.0,0.0,0.0,0.0,0.0,0.0,0.0,0.0,0.0,0.0,0.0,0.0,0.0,0.0,0.0,0.0,0.0,0.0,0.0,0.0,0.0,0.0,0.0,0.0,0.0,3.8102,4.1001,4.291,4.3828,4.4635,4.5489,4.5782,4.5966,4.5966,4.7939,4.915,4.915,5.0435,5.1206,5.1206,5.172,5.2013,5.2013,5.227,5.2518,5.276,5.276,5.2893,5.3164,5.3607,5.3687,5.3414,5.3874,5.3727,5.3191,5.3191,5.2146,5.0483,5.0624,5.0317,4.9813,4.9813,4.9813,4.9774,4.9466,4.9389,4.9351,4.9086,4.8971,4.8971,4.8971,4.8971,4.8971,4.8971,4.9394,4.9822,4.9822,5.0284,5.0707,5.0707,5.0707,5.0693,5.0776,5.0831,5.0907,5.0969,5.0254,4.9487,4.8939,4.8866,4.8711,4.8125,4.8516,4.8867,4.8867,4.9844,5.0547,5.0547,5.1055,5.1406,5.1406,5.0391,5.0,5.0586,4.9531,4.9023,4.9336,4.8789,4.832,4.8047,4.6875,4.543,4.3711,0.0,0.0,0.0,0.0,0.0,0.0,0.0,0.0,0.0,0.0,0.0,0.0,0.0,0.0,0.0,0.0,0.0,0.0,0.0,0.0,0.0,0.0,0.0,3.786,4.112,4.3947,4.4773,4.6938,4.871,4.9574,5.0362,5.0839,5.0839,5.0875,5.0912,5.0912,5.1693,5.2097,5.2097,5.3628,5.4436,5.4436,5.5218,5.5585,5.5585,5.5585,5.5585,5.5607,5.6014,5.5769,5.5072,5.552,5.4837,5.3313,5.3313,5.3065,5.2749,5.307,5.3192,5.3197,5.3197,5.3197,5.3082,5.2236,5.1923,5.1813,5.1015,5.0784,5.0784,5.0784,5.0784,5.0784,5.0784,5.0784,5.0784,5.0784,5.0784,5.0784,5.0784,5.0784,5.0812,5.0952,5.0955,5.1013,5.1131,5.1214,5.0728,4.9049,4.8894,4.8398,4.6719,4.6445,0.0,4.6445,4.793,4.8945,4.8906,5.0391,5.1367,5.1328,4.9883,4.9687,5.1289,4.9883,4.9375,5.0195,4.8633,4.7305,4.6445,4.4726,4.4648,4.625,0.0,0.0,0.0,0.0,0.0,0.0,0.0,0.0,0.0,0.0,0.0,0.0,0.0,0.0,0.0,0.0,0.0,0.0,0.0,0.0,0.0,4.0679,4.3828,4.3616,4.503,4.6865,4.8884,4.9691,5.0215,5.0435,5.1206,5.1693,5.1693,5.2747,5.3408,5.3408,5.4179,5.4594,5.4594,5.5034,5.5254,5.5254,5.5475,5.5585,5.5585,5.5585,5.5585,5.5607,5.6014,5.6094,5.5909,5.635,5.6321,5.5898,5.5898,5.567,5.5125,5.3435,5.2926,5.3197,5.3197,5.3197,5.3159,5.2928,5.2851,5.2813,5.2587,5.251,5.251,5.251,5.251,5.251,5.251,5.251,5.251,5.251,5.251,5.251,5.251,5.251,5.253,5.256,5.2574,5.2593,5.2618,5.2728,5.2305,5.0696,5.0463,5.0347,4.9929,4.9857,4.9907,5.0,5.043,5.0234,4.9023,5.0391,5.0898,4.9687,5.0273,5.0898,5.1367,5.0976,5.082,5.1055,5.0625,4.9961,4.9141,4.7422,4.6133,0.0,0.0,0.0,0.0,0.0,0.0,0.0,0.0,0.0,0.0,0.0,0.0,0.0,0.0,0.0,0.0,0.0,0.0,0.0,0.0,0.0,0.0,4.3947,4.7755,4.882,4.9067,4.9701,5.1132,5.1903,5.2307,5.2307,5.3041,5.3492,5.3492,5.4373,5.4913,5.4913,5.5684,5.6088,5.6088,5.6429,5.6613,5.6613,5.6613,5.6613,5.6613,5.6613,5.6613,5.6624,5.6857,5.6773,5.645,5.6754,5.6667,5.6378,5.6378,5.6328,5.6128,0.0,0.0,0.0,0.0,5.4241,5.4203,5.3857,5.3741,5.3664,5.3313,5.3197,5.3197,5.3197,5.3197,5.3197,5.3197,5.3197,5.3197,5.3197,5.3197,5.3197,5.3197,5.3197,5.3197,5.3197,5.3197,5.3197,5.3197,5.3244,0.0,5.2147,5.1465,5.0829,5.0114,5.0045,5.0064,5.0149,5.0779,5.0749,4.948,5.0848,5.1322,5.0078,5.0195,0.0,0.0,0.0,5.0351,5.0351,5.0351,0.0,0.0,0.0,4.6914,4.6641,4.5625,0.0,0.0,4.3828,4.2539,0.0,0.0,0.0,0.0,0.0,0.0,0.0,0.0,0.0,0.0,0.0,0.0,0.0,0.0,0.0,0.0,4.6874,5.0729,5.2994,5.2894,5.2501,5.2428,5.3665,5.4546,5.4546,5.5254,5.5732,5.5732,5.5805,5.5879,5.5879,5.6565,0.0,0.0,0.0,5.7997,5.7997,5.7997,5.7997,5.7997,5.7997,5.7997,5.7997,5.7997,5.7593,5.6921,5.6921,5.6528,5.5879,5.5879,5.6045,5.634,5.6352,5.6199,5.5885,5.5808,5.5791,5.5747,5.4934,0.0,0.0,5.3741,5.3472,5.3472,5.3472,5.3472,5.3472,5.3472,5.3472,5.3472,5.3472,5.3472,5.3472,5.3472,5.3472,5.3472,5.3472,5.3472,5.3472,5.3472,5.3472,5.3472,5.3472,5.2241,5.0733,4.9182,4.8949,4.8955,4.8971,5.0348,5.0987,5.011,5.1567,0.0,5.1441,5.0153,5.0075,5.1559,5.0231,4.9372,4.9294,4.9295,4.8515,4.6874,4.6875,4.7656,4.918,4.918,4.9961,5.1289,4.5898,4.4258,0.0,0.0,0.0,0.0,0.0,0.0,0.0,0.0,0.0,0.0,0.0,0.0,0.0,0.0,0.0,4.6755,5.0131,5.2884,5.3995,5.5159,5.5647,5.4997,5.5181,5.5365,5.5365,5.6088,5.6565,5.6565,5.7152,5.7519,5.7519,5.7666,5.7776,5.7776,5.7923,5.7997,5.7997,5.7997,5.7997,5.7997,5.7997,0.0,5.7997,5.7997,5.7923,5.7776,5.7776,5.7666,5.7519,5.7519,5.74,5.7148,5.6868,5.6968,5.7134,5.6446,5.6407,5.6632,5.5785,5.5478,5.5439,5.528,5.5203,5.5203,5.5203,5.5203,0.0,5.5203,5.5203,5.5203,5.5203,5.5203,5.5203,5.5203,5.5203,5.5203,5.5203,5.5203,5.5203,5.5203,5.5203,5.5203,5.5203,5.385,5.27,5.2484,5.2429,5.2482,5.2569,5.2899,5.2516,5.0938,5.2351,5.2755,5.1213,5.2076,5.2821,5.3135,5.286,5.2394,5.1658,5.1768,5.1292,5.0281,5.0348,5.0586,5.0937,5.0937,5.1094,5.1367,5.0195,4.9844,0.0,0.0,0.0,0.0,0.0,0.0,0.0,0.0,0.0,0.0,0.0,4.0516,0.0,0.0,4.7682,4.9297,5.227,5.4693,5.55,5.6297,5.6627,5.6235,5.6565,5.6796,5.6796,5.7152,5.7409,5.7409,5.7776,5.7997,5.7997,5.7997,5.7997,5.7997,5.7997,5.7997,5.7997,5.7997,5.7997,5.7997,5.7997,5.7997,5.7997,5.7997,5.7997,5.7997,5.7997,5.7997,5.7997,5.7997,5.7862,5.7693,5.7519,5.7368,5.7241,5.703,5.7109,5.725,5.7071,5.6865,5.6675,5.6923,5.6827,5.6682,5.6928,5.7011,5.6896,5.6478,5.6362,5.6247,5.5824,5.5708,5.5708,5.5708,5.5708,5.5708,5.5708,5.5708,5.5708,5.5708,5.5708,5.5708,5.5708,5.5011,5.448,5.4525,5.4544,5.4584,5.4652,5.4664,5.4192,5.2993,5.3634,5.3631,5.2422,5.3094,5.3605,5.3605,5.3605,5.341,5.2985,5.3007,5.2842,5.2419,5.2462,5.2481,5.2481,5.2481,5.2481,5.2481,5.2481,5.2125,0.0,0.0,0.0,0.0,0.0,0.0,0.0,0.0,4.0443,4.2535,4.2975,4.3672,4.5948,4.8526,5.0665,5.1793,5.4142,5.6088,5.6932,5.7031,5.7031,5.7031,5.7593,5.7997,5.7997,5.7997,5.7997,5.7997,5.7997,5.7997,5.7997,5.7997,5.7997,5.7997,5.7997,5.7997,5.7997,5.7997,5.7997,5.7997,5.7997,5.7997,5.7997,5.7997,5.7997,5.7997,5.7997,5.7997,5.7997,5.7997,5.7997,5.7997,5.7997,5.7651,5.7159,5.7434,5.7605,5.7723,5.7947,5.7785,5.7547,5.7997,5.7921,5.7711,5.8138,5.8313,5.8159,5.744,5.7247,5.7093,5.6401,5.6203,5.6203,5.6203,5.6203,5.6203,5.6203,5.6203,5.6203,5.6203,5.6203,5.6203,5.6203,5.6203,5.6088,5.5747,5.5708,5.5708,5.5708,5.5708,5.5473,5.4968,5.4908,5.4668,5.4045,5.4019,5.4019,5.4019,5.4019,5.3942,5.3789,5.3817,5.3716,5.3563,5.3591,5.3605,5.3605,5.3605,5.3605,5.3605,5.3605,5.2972,3.1084,3.1451,3.3096,3.463,3.6589,3.935,0.0,0.0,4.5104,4.893,4.9691,5.0241,5.193,5.2553,5.3544,5.5783,5.6444,5.6969,5.774,5.7886,5.7886,5.7886,5.796,5.7997,5.7997,5.7997,5.7997,5.7997,5.7997,5.7997,5.7997,5.7997,5.7997,5.7997,5.7997,5.7997,5.7997,5.7997,5.7997,5.7997,5.7997,5.7997,5.7997,5.7997,5.7997,5.7997,5.7997,5.7997,5.7997,5.7997,5.7997,5.7997,5.7997,5.7966,5.7851,5.7526,5.7705,5.7968,5.7284,5.7032,5.7065,5.7532,5.7631,5.7711,5.8138,5.8313,5.8275,5.8165,5.8159,5.8127,5.8044,5.8011,5.8011,5.8011,5.8011,5.8011,5.8011,5.8011,5.8011,5.8011,5.8011,5.8011,5.8011,5.8011,5.7473,5.5939,5.5708,5.5708,5.5708,5.5708,5.5681,5.5591,5.5597,5.5568,5.5478,5.5483,5.5483,5.5483,5.5483,5.5137,5.4443,5.4521,5.4192,5.3429,5.3539,5.3605,5.3605,5.3605,5.3605,5.3605,5.3605,5.3504,3.711,3.7037,3.7808,4.1764,4.2828,4.3938,4.7865,4.8489,4.8857,5.1059,5.1867,5.2553,5.3691,5.4645,5.5636,0.0,5.7189,5.7629,5.796,5.7997,5.7997,5.7997,5.7997,5.7997,5.7997,5.7997,5.7997,5.7997,5.7997,5.7997,5.7997,5.7997,5.7997,5.7997,5.7997,5.7997,5.7997,5.8474,5.8682,5.8682,5.9171,5.9391,5.9391,5.9391,5.9391,5.9391,5.9391,5.9391,5.9355,5.8902,5.8682,5.8646,5.818,5.7997,5.8003,5.8116,5.8273,5.8428,5.8371,5.8161,5.8006,5.8488,5.8455,5.8319,5.8806,5.8926,5.8812,5.831,5.8398,5.8489,5.8023,5.8097,5.8313,5.8313,5.8313,5.8313,5.8313,5.8313,5.8313,5.8313,5.8313,5.8313,5.8313,5.8313,5.805,5.7319,5.7203,5.7203,5.7203,5.7203,5.7203,5.7203,5.7203,5.7203,5.7203,5.7203,5.7011,5.6478,5.6439,5.6093,5.5247,5.5267,5.5128,5.4747,5.48,5.4804,5.4804,5.4804,5.4804,5.4804,5.4804,5.4804,4.0487,4.0781,4.1405,4.6397,4.7425,4.7939,5.0545,5.1132,5.1426,5.2464,5.3115,5.3838,5.4876,5.6003,5.6847,5.7068,5.7629,5.7997,5.7997,5.7997,5.7997,5.7997,5.7997,5.7997,5.7997,5.7997,5.7997,5.7997,5.7997,5.7997,5.7997,5.7997,5.8107,5.8327,5.8327,5.8437,5.8657,5.9233,5.9526,5.9526,6.0114,6.0419,6.0419,6.0419,6.0419,6.0419,6.0419,6.0419,6.0346,5.9783,5.9526,5.949,5.8877,5.8657,5.8679,5.8772,5.8709,5.8549,5.8903,5.8786,5.858,5.9037,5.899,5.8776,5.9248,5.9389,5.9302,5.8807,5.8912,5.905,5.8612,5.8718,5.8973,5.8973,5.8973,5.8973,5.8973,5.8973,5.8973,5.8973,5.8973,5.8973,5.8973,5.8973,5.8973,5.8973,5.8973,5.8819,5.8352,5.8313,5.8313,5.8313,5.8313,5.8313,5.8313,5.8313,5.805,5.7401,5.7363,5.7093,5.6434,5.6434,5.6434,5.6434,5.6434,5.6434,5.6434,5.6434,5.6434,5.6434,5.6434,5.6434,3.8131,3.9892,4.1837,4.5149,4.8343,5.0875,5.1767,5.195,5.2417,5.3995,5.4363,5.484,5.6444,5.6774,5.7068,5.785,5.796,5.7997,5.7997,5.7997,5.7997,5.7997,5.7997,5.7997,0.0,5.7997,5.7997,5.7997,5.7997,5.7997,5.7997,5.7997,5.8364,5.9159,5.9159,5.9526,6.0309,6.0346,6.037,6.037,6.037,6.0419,6.0419,6.0419,6.0419,6.0419,6.0419,6.0419,6.0419,6.0382,6.037,6.037,6.0346,6.0346,6.0236,5.9477,5.868,5.8031,5.8054,5.8042,5.8097,5.856,5.8723,5.8776,5.9248,5.9389,5.9484,5.9908,6.0058,6.0158,6.0576,6.0698,6.0704,6.0704,6.0704,6.0704,6.0704,6.0704,6.0704,6.0704,6.0704,6.0704,6.0704,6.0704,6.0704,6.0704,6.0704,6.0127,5.8511,5.8313,5.8313,5.8313,5.8313,5.8313,5.8313,5.8313,5.8275,5.8275,5.8275,5.8236,5.8204,5.8204,5.8204,5.8204,5.8204,5.8204,5.8204,5.8204,5.8204,5.8204,5.8204,5.8204,4.2396,4.3864,4.5186,4.9003,5.0765,5.1793,5.2601,5.2821,5.2957,5.3471,5.2737,5.2344,5.3408,5.3188,5.3445,5.5317,5.6051,5.6796,5.785,5.7997,5.7997,5.7997,5.7997,0.0,0.0,0.0,0.0,5.7997,5.7997,5.7997,5.7997,5.851,5.8902,5.9184,5.971,6.0114,6.0419,6.0933,6.119,6.119,6.1741,6.1985,6.1985,6.1985,6.1985,6.1985,6.1985,6.1985,6.1949,6.141,6.119,6.1153,6.0603,6.0419,6.0382,6.0114,5.9832,5.9428,5.8364,5.7997,5.8031,5.8161,5.8227,5.826,5.8418,5.8482,5.8487,5.8673,5.8942,5.9194,5.9354,5.9625,5.987,5.987,6.0118,6.0338,6.0338,6.0591,6.0787,6.0787,6.0787,6.0787,6.0787,6.0787,6.0787,6.0787,6.0787,6.0589,6.0012,5.9973,5.9973,5.9973,5.9973,5.9973,5.9973,5.9973,5.9704,5.9127,5.9088,5.8858,5.8313,5.8313,5.8313,5.8313,5.8313,5.8313,5.8313,5.8313,5.8313,5.8313,5.8313,5.8313,4.4232,4.6104,4.7609,5.1143,5.2207,5.2564,5.3067,5.3214,5.3031,5.2443,5.1279,5.0325,5.0251,5.0068,5.0692,5.3151,5.4447,5.5842,5.774,5.7997,5.7997,5.7997,5.7997,5.7997,0.0,0.0,0.0,5.7997,5.7997,5.7997,5.7997,5.8756,5.9343,5.9636,6.0419,6.097,6.1251,6.1777,6.2034,6.2034,6.2536,6.2793,6.2793,6.2793,6.2793,6.2793,6.2793,6.2793,6.2756,6.2254,6.2034,6.1998,6.1471,6.1251,6.1215,6.0933,6.0823,6.0639,5.9318,5.8841,5.8804,5.851,5.8437,5.84,5.8107,5.7997,5.8042,5.8183,5.8482,5.8726,5.8913,5.9158,5.9389,5.9389,5.9617,5.9855,5.9855,6.0096,6.0304,6.0304,6.0304,6.0351,6.0514,6.0671,6.0787,6.0787,6.0787,6.0787,6.0787,6.0787,6.0787,6.0787,6.0787,6.0787,6.0787,6.0787,6.0556,6.0012,5.9973,5.9742,5.9204,5.9204,5.9204,5.9204,5.9204,5.9204,5.9204,5.9204,5.9204,5.9204,5.9204,5.9204,4.3966,4.6755,4.9077,5.1473,5.2637,5.3214,5.3214,5.3104,5.2553,5.0986,4.9811,4.86,0.0,0.0,4.8857,5.1363,5.3225,5.5244,5.7593,5.796,5.7997,0.0,0.0,0.0,0.0,0.0,0.0,5.7997,5.7997,5.8033,5.807,5.8829,5.9636,6.0456,6.1227,6.2034,6.2793,6.2793,6.2793,6.2793,6.2793,6.2793,6.2793,6.2793,6.2793,6.2793,6.2793,6.2793,6.2793,6.2793,6.2793,6.2793,6.2793,6.2793,6.2719,6.1924,6.1667,6.1557,6.0786,6.0481,6.026,5.9526,5.9269,5.9123,5.8364,5.8107,5.8232,5.8677,5.8784,5.8905,5.9354,5.9432,5.9432,5.9432,5.9488,5.9505,5.9505,5.9523,5.9502,5.9502,5.952,5.9727,6.0188,6.0617,6.0935,6.0935,6.0935,6.0902,6.0825,6.0787,6.0787,6.0787,6.0787,6.0787,6.0787,6.0787,6.0787,6.0787,6.0787,6.0787,6.0787,6.0787,6.0787,6.0787,6.0787,6.0787,6.0787,6.0787,6.0787,6.0787,6.0787,6.0787,4.8857,5.0582,5.1353,5.2601,5.3067,5.3214,5.3214,5.1793,5.0225,4.915,4.5911,4.3122,0.0,0.0,0.0,4.7966,5.1756,0.0,5.6847,5.7629,0.0,5.7997,0.0,5.7997,5.7997,5.7997,0.0,0.0,5.7997,5.8253,5.8866,5.9673,6.0456,6.1263,6.2071,6.2572,6.2793,6.2793,6.2793,6.2793,6.2793,6.2793,6.2793,6.2793,6.2793,6.2793,6.2793,6.2793,6.2793,6.2793,6.2793,6.2793,6.2793,6.2793,6.2793,6.2572,6.2499,6.2462,6.2242,6.1398,6.0382,6.015,6.0077,6.004,5.9869,5.9795,5.9819,5.9946,5.9981,5.9978,6.01,6.0134,6.0134,6.0134,6.0423,6.0676,6.0676,6.0942,6.1193,6.1193,6.1528,6.1934,6.24,6.2566,6.266,6.266,6.266,6.2204,6.0979,6.0787,6.0787,6.0787,6.0787,6.0787,6.0787,6.0787,6.0787,6.0787,6.0787,6.0787,6.0787,6.0787,6.0787,6.0787,6.0787,6.0787,6.0787,6.0787,6.0787,6.0787,6.0787,6.0787,5.0839,5.227,5.2637,5.3104,5.3214,5.281,5.1379,4.9994,4.8205,4.5223,4.2168,0.0,4.0516,4.1589,0.0,0.0,0.0,0.0,5.6517,5.7483,5.7997,0.0,5.7997,0.0,5.7997,5.7997,5.8143,5.851,5.8547,5.8719,5.9196,6.0297,6.1117,6.1594,6.2389,6.2793,6.2793,6.2793,6.2793,6.2793,6.2793,6.2793,6.2793,6.2793,6.2793,6.2793,6.2793,6.2793,6.2793,6.2793,6.2793,6.2793,6.2793,6.2793,6.2793,6.2793,6.2793,6.2793,6.2793,6.2205,6.1398,6.1043,6.0933,6.086,6.0529,6.0419,6.0419,6.0419,6.0419,6.0419,6.0419,6.0419,6.0419,6.0419,6.0605,6.0807,6.0807,6.1012,6.1197,6.1197,6.1779,6.2371,6.265,6.3039,6.3314,6.3314,6.3314,6.2968,6.2012,6.1897,6.1897,6.1897,6.1897,6.1897,6.1897,6.155,6.1364,6.1364,6.1018,6.0787,6.0787,6.0787,6.0787,6.0787,6.0787,6.0787,6.0787,6.0787,6.0787,6.0787,6.0787,6.0787,5.1316,5.2674,5.3214,5.3214,5.3214,5.2333,4.9067,4.7966,4.614,4.0716,0.0,3.8248,3.9357,4.023,4.2681,4.8499,0.0,5.3765,5.6297,5.7336,5.7886,5.7997,5.7997,5.7997,5.7997,5.8107,5.8437,5.9159,5.9416,5.9526,5.9526,6.086,6.163,6.1741,6.2426,6.2793,6.2793,6.2793,6.2793,6.2793,6.2793,6.2793,6.2793,6.2793,6.2793,6.2793,6.2793,6.2793,6.2793,6.2793,6.2793,6.2793,6.2939,6.2976,6.2976,6.3086,6.3123,6.3123,6.3013,6.2976,6.2829,6.2034,6.1741,6.163,6.0933,6.0701,6.0701,6.0701,6.0701,6.0701,6.0701,6.0701,6.0701,6.0701,6.0701,6.0701,6.0701,6.0701,6.0737,6.0821,6.1523,6.2136,6.221,6.294,6.3553,6.3553,6.3597,6.366,6.366,6.3429,6.3314,6.3314,6.3314,6.3314,6.3314,6.2666,6.2249,6.2249,6.1556,6.1127,6.1127,6.1127,6.1127,6.1127,6.1127,6.1127,6.1127,6.1127,6.1127,6.1127,6.1127,6.1127,5.248,5.3104,5.3214,5.3214,5.3214,5.2333,4.9067,4.625,0.0,0.0,3.5642,3.4534,3.7382,3.8579,4.1177,4.7498,5.0031,5.2307,5.5365,5.6492,5.7262,0.0,5.7997,5.7997,5.7997,5.8609,0.0,0.0,6.0419,6.119,6.119,6.1447,6.1887,6.2572,6.2719,6.2793,6.2793,6.2793,6.2793,6.2793,6.2793,6.2793,6.2793,6.2793,6.2793,6.2793,6.2793,6.2793,6.2793,6.2793,6.2793,6.2866,6.3576,6.387,6.3943,6.4628,6.4884,6.4774,6.4127,6.387,6.3723,6.2879,6.2572,6.2572,6.2426,6.2389,6.2389,6.2389,6.2389,6.2389,6.2389,6.2389,6.2389,6.2389,6.2389,6.2389,6.2389,6.2389,6.2512,6.2966,6.3184,6.3433,6.3889,6.4423,6.4787,6.4787,6.5175,6.5436,6.5436,6.4199,6.3314,6.3314,6.3314,6.3314,6.3314,6.316,6.3083,6.3083,6.2968,6.2852,6.2852,6.2852,6.2852,6.2852,6.2852,6.2852,6.2852,6.2852,6.2852,6.2852,6.2852,6.2852,5.1206,5.2223,5.3214,5.3214,5.3214,5.1783,4.6388,0.0,0.0,0.0,3.3079,3.2963,3.6273,3.7522,0.0,4.4966,4.8279,5.0996,5.3382,5.55,0.0,5.7886,5.7997,5.7997,0.0,5.8719,5.938,5.9783,6.0933,6.1606,6.1606,6.1998,6.2401,6.2793,6.2793,6.2793,6.2793,6.2793,6.2793,6.2793,6.2793,6.2793,6.2793,6.2793,6.2793,6.2793,6.2793,6.305,6.3466,6.3466,6.3723,6.415,6.4567,6.4714,6.4787,6.5141,6.5288,6.5251,6.4861,6.4714,6.4677,6.4224,6.3527,6.2793,6.2793,6.2793,6.2793,6.2793,6.2793,6.2793,6.2793,6.2793,6.2793,6.2793,6.2793,6.2793,6.2793,6.2793,6.2892,6.3121,6.3408,6.3669,6.3954,6.4407,6.4808,6.5075,6.5313,6.5576,6.5878,6.5166,6.4666,6.4666,6.4666,6.4666,6.4666,6.4243,6.3968,6.3968,6.3545,6.3314,6.3314,6.3314,6.3314,6.3314,6.3314,6.3314,6.3314,6.3314,6.3314,6.3314,6.3314,6.3314,5.0251,5.172,5.3214,5.3214,5.3067,5.1049,4.3938,4.2029,0.0,3.2602,3.1023,3.1941,3.5385,3.6127,3.7749,0.0,4.5635,4.8499,5.1363,5.4069,5.6345,0.0,5.7997,0.0,5.8253,5.8976,0.0,6.0603,6.141,6.1851,6.1851,6.2462,6.2793,6.2793,6.2793,6.2793,6.2793,6.2793,6.2793,6.2793,6.2793,6.2793,6.2793,6.2976,6.3086,6.3086,6.327,6.3723,6.4347,6.4347,6.4714,6.5325,6.5472,6.5545,6.5582,6.5742,6.5815,6.5778,6.5618,6.5545,6.5508,6.5362,6.4407,6.3343,6.3343,6.3343,6.3343,6.3343,6.3343,6.3306,6.3123,6.3086,6.3013,6.2829,6.2793,6.2793,6.2793,6.2793,6.2793,6.2793,6.3132,6.3431,6.3431,6.3882,6.4351,6.4731,6.4866,6.5122,6.567,6.5717,6.5781,6.5891,6.5904,6.5904,6.5904,6.5282,6.4897,6.4897,6.4243,6.3852,6.3852,6.3852,6.3852,6.3852,6.3852,6.3852,6.3852,6.3852,6.3852,6.3852,6.3852,6.3852,5.1856,5.3031,5.3214,5.3214,5.2637,5.0408,4.3791,0.0,3.8256,3.1678,2.9726,3.0418,3.438,3.3403,3.4254,4.1258,0.0,4.3176,4.9958,5.1793,5.3823,5.7556,0.0,0.0,5.9013,5.982,6.0639,6.141,6.2254,6.2683,6.2683,6.2756,6.2793,6.2793,6.2793,6.2793,6.2793,6.2793,6.2793,6.2793,6.2793,6.2793,6.2829,6.3613,6.3992,6.4029,6.4738,6.5105,6.5178,6.5178,6.5215,6.5362,6.6109,6.6402,6.6476,6.7223,6.748,6.737,6.6623,6.6402,6.6256,6.5545,6.5178,6.5068,6.5068,6.5068,6.5068,6.5068,6.5068,6.4884,6.4163,6.3992,6.3759,6.2976,6.2793,6.2793,6.2793,6.2793,6.2793,6.2793,6.2842,6.288,6.288,6.3305,6.368,6.3734,6.4148,6.4626,6.5107,6.5161,6.5343,6.5865,6.5904,6.5904,6.5904,6.582,6.5788,6.5788,6.5705,6.5667,6.5667,6.5667,6.5667,6.5667,6.5667,6.5667,6.5667,6.5667,6.5667,6.5667,6.5667,6.5667,4.7168,4.9517,5.1746,5.1746,5.1499,4.9444,4.2433,0.0,3.7925,3.0938,2.9207,2.9495,3.1072,3.1011,3.1935,3.5819,0.0,0.0,4.6948,4.9811,5.2784,5.6785,5.7703,0.0,0.0,0.0,6.0933,6.2242,6.2609,6.2793,6.2793,6.2793,6.2793,6.2793,6.2793,6.2793,6.2793,6.2793,6.2793,6.2793,6.2793,6.305,6.3576,6.3956,6.4347,6.4861,6.5141,6.5582,6.6035,6.6035,6.6329,6.6769,6.7113,6.7223,6.726,6.759,6.77,6.7664,6.7333,6.7223,6.7187,6.6843,6.6733,6.6549,6.5582,6.5288,6.5288,6.5288,6.5288,6.5215,6.4897,6.4824,6.4751,6.4371,6.4297,6.4297,6.4297,6.4297,6.4297,6.4297,6.4297,6.4297,6.4297,6.4475,6.4706,6.5005,6.5234,6.5534,6.6048,6.6103,6.6213,6.6434,6.6126,6.5904,6.5904,6.5904,6.5904,6.5904,6.5904,6.5904,6.5904,6.5904,6.5904,6.5904,6.5904,6.5904,6.5904,6.5904,6.5904,6.5904,6.5904,6.5904,4.4342,4.7095,4.9874,5.0608,5.0068,4.7682,0.0,0.0,3.667,3.0308,2.8981,2.8981,2.8981,2.9464,3.0387,3.1965,0.0,3.7925,4.3351,4.7352,5.0829,0.0,0.0,5.7336,5.8389,6.0077,6.1582,6.2719,6.2793,6.2793,6.2793,6.2793,6.2793,6.2793,6.2793,6.2793,6.2793,6.2793,6.2793,6.2793,6.305,6.3503,6.4139,6.458,6.5118,6.5668,6.5925,6.6329,6.6843,6.6843,6.7187,6.77,6.77,6.77,6.77,6.77,6.77,6.77,6.77,6.77,6.77,6.77,6.77,6.748,6.6366,6.5999,6.5999,6.5999,6.5852,6.5655,6.5655,6.5472,6.5288,6.5288,6.5288,6.5288,6.5288,6.5288,6.5288,6.5288,6.5288,6.5288,6.5288,6.5288,6.5419,6.5728,6.5787,6.5972,6.6506,6.6579,6.664,6.6791,6.6417,6.622,6.6378,6.657,6.6513,6.6288,6.625,6.6134,6.5904,6.5904,6.5904,6.5904,6.5904,6.5904,6.5904,6.5904,6.5904,6.5904,6.5904,6.5904,4.536,4.7113,4.7736,5.0178,4.8343,4.4892,0.0,0.0,3.3897,2.9825,2.8981,2.8981,2.8981,2.9023,2.9537,3.1133,3.2118,0.0,3.9284,4.4113,4.7443,0.0,0.0,5.506,5.6664,6.0444,6.2793,6.2793,6.2793,6.2793,6.2793,6.2793,6.2793,6.2793,6.2793,6.2793,6.2793,6.2793,6.2793,6.2793,6.3686,6.4103,6.4139,6.5742,6.6476,6.6512,6.7333,6.7664,6.77,6.77,6.77,6.77,6.77,6.77,6.77,6.77,6.77,6.77,6.77,6.77,6.77,6.77,6.77,6.77,6.7664,6.7664,6.7664,6.7664,6.7113,6.6476,6.6476,6.5888,6.5288,6.5288,6.5288,6.5288,6.5288,6.5288,6.5288,6.5288,6.5288,6.5288,6.5288,6.5288,6.5288,6.5301,6.5301,6.547,6.5961,6.6004,6.6216,6.6751,6.6783,6.7004,6.752,6.8062,6.8013,6.7135,6.7096,6.675,6.5936,6.5904,6.5904,6.5904,6.5904,6.5904,6.5904,6.5904,6.5904,6.5904,6.5904,6.5904,3.8453,4.0875,4.3048,4.3277,4.2588,4.0891,3.736,3.5305,3.3176,2.9721,2.8981,2.8981,2.8981,2.8981,2.9354,3.0393,3.1237,0.0,0.0,0.0,0.0,5.0472,5.5354,5.8694,0.0,6.1398,6.2793,6.2793,6.2793,6.2793,6.2793,6.2793,6.2793,6.2793,6.2793,6.2793,6.2793,6.2793,6.2793,6.2793,6.3686,6.4383,6.4971,6.6035,6.6806,6.7333,6.759,6.77,6.77,6.77,6.77,6.77,6.77,6.77,6.77,6.77,6.77,6.77,6.77,6.77,6.77,6.77,6.77,6.77,6.77,6.77,6.77,6.77,6.7517,6.7333,6.7333,6.715,6.6953,6.6953,6.6953,6.6953,6.6953,6.6953,6.6953,6.6953,6.6953,6.6953,6.6953,6.6953,6.6953,6.6953,6.6953,6.6996,6.713,6.7168,6.7245,6.7407,6.774,6.7854,6.7601,6.7759,6.7881,6.7993,6.7968,6.7853,6.7628,6.7628,6.7628,6.7628,6.7628,6.7628,6.7628,6.7628,6.7628,6.7583,6.7013,6.6712,0.0,3.6876,3.8894,3.935,3.8726,0.0,0.0,3.347,3.1788,2.9464,2.8981,2.8981,2.8981,2.8981,2.9354,3.0467,3.106,3.2896,0.0,0.0,0.0,5.1436,0.0,0.0,5.9049,6.1325,6.2793,6.2793,6.2793,6.2793,6.2793,6.2793,6.2793,6.2793,6.2793,6.2793,6.2793,6.2793,6.2976,6.3319,6.4163,6.4971,6.5778,6.6586,6.7223,6.77,6.77,6.77,0.0,6.77,6.77,6.77,6.77,6.77,6.77,6.77,6.77,6.77,6.77,6.77,6.77,6.77,6.77,6.77,6.77,6.77,6.77,6.77,6.77,6.77,6.77,6.77,6.77,6.77,6.77,6.77,6.77,6.77,6.77,6.77,6.77,6.77,6.77,6.77,6.77,6.77,6.77,6.77,6.77,6.77,6.77,6.77,6.8007,6.8148,6.7967,6.8318,6.8561,6.8546,6.8779,6.8737,6.8391,6.8391,6.8391,6.8391,6.8391,6.8391,6.8391,6.8391,6.8391,6.8391,6.7859,6.759,0.0,3.4667,3.5298,0.0,0.0,0.0,0.0,0.0,0.0,2.9133,2.8981,2.8981,2.8981,2.8981,2.95,3.106,3.1427,3.2639,0.0,4.0789,0.0,0.0,5.5097,5.7068,5.7068,6.0554,6.2793,6.2793,6.2793,6.2793,6.2793,6.2793,6.2793,6.2793,6.2793,6.2793,6.2793,6.2793,6.3246,6.4103,6.4934,6.5742,6.6512,6.7333,6.77,6.77,6.77,6.77,6.77,6.77,6.77,6.77,6.77,6.77,6.77,6.77,6.77,6.77,6.77,6.77,6.77,6.77,6.77,6.77,6.77,6.77,6.77,6.77,6.77,6.77,6.77,6.77,6.77,6.77,6.77,6.77,6.77,6.77,6.77,6.77,6.77,6.77,6.77,6.77,6.77,6.77,6.77,6.77,6.77,6.77,6.77,6.77,6.77,6.7891,6.8392,6.9375,6.9675,6.8892,6.9344,6.933,6.8543,6.8505,6.8557,6.8584,6.8584,6.8584,6.8584,6.8584,6.8584,6.8584,6.8507,6.8507,3.0192,0.0,3.2228,3.2228,3.1745,3.1268,0.0,0.0,0.0,0.0,0.0,0.0,0.0,2.8981,2.9317,3.032,3.1525,3.3476,3.6758,4.4057,0.0,5.43,5.7593,5.9538,5.9538,6.1508,6.2793,6.2793,6.2793,6.2793,6.2793,6.2793,6.2793,6.2793,6.2793,6.2793,6.2793,6.2793,6.3246,6.4103,6.4934,6.5742,6.6512,6.7333,6.77,6.77,6.77,6.77,6.77,6.77,6.77,6.77,6.77,6.77,6.77,6.77,6.77,6.77,6.77,6.77,6.77,6.77,6.77,6.77,6.77,6.77,6.77,6.77,6.77,6.77,6.77,6.77,6.77,6.77,6.77,6.77,6.77,6.77,6.77,6.77,6.77,6.77,6.77,6.77,6.77,6.77,6.77,6.77,6.77,6.77,6.77,6.77,6.77,6.7767,6.7889,6.8511,6.8978,6.916,6.9342,6.9496,6.9701,6.9717,6.9904,7.0314,7.0321,7.0321,7.0321,7.0321,7.0321,7.0283,6.9667,6.9398,2.8981,2.9653,3.0204,2.9763,2.9647,2.9647,0.0,0.0,0.0,0.0,0.0,0.0,0.0,0.0,3.0497,3.1678,3.3837,3.703,0.0,0.0,5.3225,5.5365,5.8437,6.0419,6.0419,6.1875,6.2793,6.2793,6.2793,6.2793,6.2793,6.2793,6.2793,6.2793,6.2793,6.2793,6.2793,6.3209,6.3833,6.464,6.5485,6.6256,6.7076,6.7517,6.77,6.77,6.77,6.77,6.77,6.77,6.77,6.77,6.77,6.77,6.77,6.77,6.77,6.77,6.77,6.77,6.77,6.77,6.77,6.77,6.77,6.77,6.77,6.77,6.77,6.77,6.77,6.77,6.77,6.77,6.77,6.77,6.77,6.77,6.77,6.77,6.77,6.77,6.77,6.77,6.77,6.77,6.77,6.77,6.77,6.77,6.77,6.77,6.77,6.77,6.77,6.7969,6.8344,6.8891,6.9169,6.9433,6.972,6.9738,6.9856,7.0145,7.0424,7.0524,7.0524,7.0777,7.0898,7.0898,7.0437,7.0244,2.8981,2.9097,2.917,2.917,2.917,2.9207,0.0,0.0,0.0,0.0,0.0,0.0,0.0,3.1537,0.0,0.0,0.0,0.0,4.7709,5.2013,5.484,5.5511,5.8437,6.0419,6.0419,6.1875,6.2793,6.2793,6.2793,6.2793,6.2793,6.2793,6.2793,6.2793,6.2793,6.2793,6.2793,6.3649,6.4494,6.5288,6.6109,6.6916,6.77,6.77,6.77,6.77,6.77,6.77,6.77,6.77,6.77,6.77,6.77,6.77,6.77,6.77,6.77,6.77,6.77,6.77,6.77,6.77,6.77,6.77,6.77,6.77,6.77,6.77,6.77,6.77,6.77,6.77,6.77,6.77,6.77,6.77,6.77,6.77,6.77,6.77,6.77,6.77,6.77,6.77,6.77,6.77,6.77,6.77,6.77,6.77,6.77,6.77,6.77,6.77,6.77,6.77,6.7878,6.8369,6.8869,6.9251,6.9423,6.9511,6.955,6.955,7.0,7.0203,7.0203,7.0666,7.0898,7.0898,7.0898,7.0898,2.8981,2.95,3.002,3.002,3.002,3.0204,0.0,0.0,0.0,0.0,0.0,0.0,0.0,3.4504,3.6523,0.0,0.0,4.7425,0.0,0.0,5.5475,5.5585,5.8437,6.0419,6.0419,6.1875,6.2793,6.2793,6.2793,6.2793,6.2793,6.2793,6.2793,6.2793,6.2793,6.2793,6.2793,6.3649,6.4494,6.5288,6.6109,6.6916,6.77,6.77,6.77,6.77,6.77,6.77,6.77,6.77,6.77,6.77,6.77,6.77,6.77,6.77,6.77,6.77,6.77,6.77,6.77,6.77,6.77,6.77,6.77,6.77,6.77,6.77,6.77,6.77,6.77,6.77,6.77,6.77,6.77,6.77,6.77,6.77,6.77,6.77,6.77,6.77,6.77,6.77,6.77,6.77,6.77,6.77,6.77,6.77,6.77,6.77,6.77,6.77,6.77,6.77,6.7741,6.7823,6.8345,6.9032,6.9927,7.0394,7.0645,7.0645,7.0748,7.0777,7.0777,7.0871,7.0898,7.0898,7.0898,7.0898,2.8981,2.9574,3.0607,3.2362,3.2142,3.1708,0.0,0.0,0.0,0.0,0.0,0.0,0.0,0.0,3.9533,4.5397,0.0,5.1059,5.3188,5.5464,5.6907,5.6907,5.8951,6.0419,6.0419,6.1875,6.2793,6.2793,6.2793,6.2793,6.2793,6.2793,6.2793,6.2793,6.2793,6.3013,6.3503,6.4347,6.4934,6.5288,6.6549,6.7333,6.77,6.77,6.77,6.77,6.77,6.77,6.77,6.77,6.77,6.77,6.77,6.77,6.77,6.77,6.77,6.77,6.77,6.77,6.77,6.77,6.77,6.77,6.77,6.77,6.77,6.77,6.77,6.77,6.77,6.77,6.77,6.77,6.77,6.77,6.77,6.77,6.77,6.77,6.77,6.77,6.77,6.77,6.77,6.77,6.77,6.77,6.77,6.77,6.77,6.77,6.77,6.77,6.77,6.77,6.77,6.77,6.793,6.8296,6.8769,6.9053,6.9323,6.9607,6.9874,7.0162,7.0471,7.0762,7.0898,7.0898,7.0898,7.0898,2.8981,2.9726,3.1127,3.3793,0.0,0.0,0.0,0.0,0.0,0.0,0.0,0.0,0.0,4.0634,0.0,4.9811,5.194,5.3786,5.6444,5.7483,5.7997,5.7997,5.9245,6.0187,6.0382,6.1704,6.2609,6.2793,6.2793,6.2793,6.2793,6.2793,6.2793,6.2793,6.2793,6.3196,6.4103,6.4897,6.5398,6.5582,6.704,6.77,6.77,6.77,6.77,6.77,6.77,6.77,6.77,6.77,6.77,6.77,6.77,6.77,6.77,6.77,6.77,6.77,6.77,6.77,6.77,6.77,6.77,6.77,6.77,6.77,6.77,6.77,6.77,6.77,6.77,6.77,6.77,6.77,6.77,6.77,6.77,6.77,6.77,6.77,6.77,6.77,6.77,6.77,6.77,6.77,6.77,6.77,6.77,6.77,6.77,6.77,6.77,6.77,6.77,6.77,6.77,6.77,6.7823,6.7943,6.8072,6.8072,6.8345,6.8858,6.9292,6.9747,7.0298,7.0681,7.0898,7.0898,7.0898,7.0898,2.8981,3.013,3.1537,3.2516,3.4424,0.0,3.9892,4.0581,0.0,3.9533,0.0,0.0,0.0,4.7939,5.0996,5.0839,5.3345,5.5684,5.6675,5.7483,5.7997,5.7997,5.8756,5.96,6.0334,6.119,6.1998,6.2756,6.2793,6.2793,6.2793,6.2793,6.2793,6.2793,6.2793,6.3196,6.4103,6.4897,6.5668,6.6402,6.7297,6.77,6.77,6.77,6.77,6.77,6.77,6.77,6.77,6.77,6.77,6.77,6.77,6.77,6.77,6.77,6.77,6.77,6.77,6.77,6.77,6.77,6.77,6.77,6.77,6.77,6.77,6.77,6.77,6.77,6.77,6.77,6.77,6.77,6.77,6.77,6.77,6.77,6.77,6.77,6.77,6.77,6.77,6.77,6.77,6.77,6.77,6.77,6.77,6.77,6.77,6.77,6.77,6.77,6.77,6.77,6.77,6.77,6.8185,6.866,6.9169,6.919,6.9443,6.9954,7.0035,7.0306,7.0857,7.0885,7.0898,7.0898,7.0898,7.0898,2.9616,3.1635,3.4204,3.656,3.8212,0.0,0.0,4.1515,4.2506,4.2184,4.2625,0.0,0.0,0.0,5.2968,5.3665,5.4814,5.6062,5.7373,5.7813,5.7997,5.7997,5.8719,5.9526,6.0309,6.1117,6.1924,6.2756,6.2793,6.2793,6.2793,6.2793,6.2793,6.2793,6.3319,6.4016,6.4861,6.5632,6.6439,6.726,6.7554,6.77,6.77,6.77,6.77,6.77,6.77,6.77,6.77,6.77,6.77,6.77,6.77,6.77,6.77,6.77,6.77,6.77,6.77,6.77,6.77,6.77,6.77,6.77,6.77,6.77,6.77,6.77,6.77,6.77,6.77,6.77,6.77,6.77,6.77,6.77,6.77,6.77,6.77,6.77,6.77,6.77,6.77,6.77,6.77,6.77,6.77,6.77,6.77,6.77,6.77,6.77,6.77,6.77,6.77,6.77,6.77,6.77,6.7878,6.8097,6.8308,6.8321,6.8728,6.9598,6.9607,7.0035,7.0898,7.0898,7.0898,7.0898,7.0898,7.0898,3.0356,3.2956,3.6002,3.8513,0.0,0.0,4.1846,4.2698,4.38,4.4828,4.5635,4.67,4.8416,0.0,0.0,5.4373,5.5328,5.6455,5.7813,5.7997,5.7997,5.7997,5.851,5.9233,6.0309,6.0896,6.1667,6.2719,6.2793,6.2793,6.2793,6.2793,6.2793,6.2793,6.3649,6.4494,6.5288,6.6109,6.688,6.77,6.77,6.77,6.77,6.77,6.77,6.77,6.77,6.77,6.77,6.77,6.77,6.77,6.77,6.77,6.77,6.77,6.77,6.77,6.77,6.77,6.77,6.77,6.77,6.77,6.77,6.77,6.77,6.77,6.77,6.77,6.77,6.77,6.77,6.77,6.77,6.77,6.77,6.77,6.77,6.77,6.77,6.77,6.77,6.77,6.77,6.77,6.77,6.77,6.77,6.77,6.77,6.77,6.77,6.77,6.77,6.77,6.77,6.77,6.77,6.77,6.77,6.77,6.8135,6.9032,6.9221,6.9738,7.0645,7.0805,7.0898,7.0898,7.0898,7.0898,3.1207,3.385,3.6567,0.0,0.0,0.0,4.5736,4.4681,4.4424,4.7609,5.0251,5.151,4.9894,5.2244,0.0,5.2281,5.473,5.7079,5.7886,5.7997,5.7997,5.7997,5.7997,5.8621,6.0236,6.0419,6.1068,6.2683,6.2793,6.2793,6.2793,6.2793,6.2793,6.2793,6.3649,6.4494,6.5288,6.6109,6.6916,6.77,6.77,6.77,6.77,6.77,6.77,6.77,6.77,6.77,6.77,6.77,6.77,6.77,6.77,6.77,6.77,6.77,6.77,6.77,6.77,6.77,6.77,6.77,6.77,6.77,6.77,6.77,6.77,6.77,6.77,6.77,6.77,6.77,6.77,6.77,6.77,6.77,6.77,6.77,6.77,6.77,6.77,6.77,6.77,6.77,6.77,6.77,6.77,6.77,6.77,6.77,6.77,6.77,6.77,6.77,6.77,6.77,6.77,6.77,6.77,6.77,6.77,6.77,6.7956,6.8499,6.9021,6.9569,7.0103,7.0637,7.0898,7.0898,7.0898,7.0898,3.3573,3.714,0.0,4.2213,0.0,0.0,0.0,4.6324,0.0,0.0,4.9958,5.2344,5.0729,5.2601,5.4436,5.452,5.5794,5.7079,5.7886,5.7997,5.7997,5.7997,5.7997,5.8621,6.0236,6.0419,6.1068,6.2683,6.2793,6.2793,6.2793,6.2793,6.2793,6.2793,6.4187,6.5068,6.5288,6.6659,6.748,6.77,6.77,6.77,6.77,6.77,6.77,6.77,6.77,6.77,6.77,6.77,6.77,6.77,6.77,6.77,6.77,6.77,6.77,6.77,6.77,6.77,6.77,6.77,6.77,6.77,6.77,6.77,6.77,6.77,6.77,6.77,6.77,6.77,6.77,6.77,6.77,6.77,6.77,6.77,6.77,6.77,6.77,6.77,6.77,6.77,6.77,6.77,6.77,6.77,6.77,6.77,6.77,6.77,6.77,6.77,6.77,6.77,6.77,6.77,6.77,6.77,6.77,6.77,6.7956,6.8499,6.9021,6.9569,7.0103,7.0637,7.0898,7.0898,7.0898,7.0898,3.5452,3.9313,0.0,4.4773,4.5654,4.6425,4.7562,0.0,0.0,0.0,5.0682,5.2884,5.193,5.3445,5.5034,5.5511,5.6528,5.7446,5.7923,5.7997,5.7997,5.7997,5.7997,5.851,5.9783,6.0224,6.0921,6.2242,6.2609,6.2793,6.2793,6.2793,6.2793,6.2793,6.4444,6.5288,6.5288,6.688,6.77,6.77,6.77,6.77,6.77,6.77,6.77,6.77,6.77,6.77,6.77,6.77,6.77,6.77,6.77,6.77,6.77,6.77,6.77,6.77,6.77,6.77,6.77,6.77,6.77,6.77,6.77,6.77,6.77,6.77,6.77,6.77,6.77,6.77,6.77,6.77,6.77,6.77,6.77,6.77,6.77,6.77,6.77,6.77,6.77,6.77,6.77,6.77,6.77,6.77,6.77,6.77,6.77,6.77,6.77,6.77,6.77,6.77,6.77,6.77,6.77,6.77,6.77,6.77,6.7956,6.8499,6.9021,6.9569,7.0103,7.0637,7.0898,7.0898,7.0898,7.0898,3.6942,4.054,0.0,4.57,4.7352,0.0,4.759,4.9287,5.0912,5.0545,0.0,5.3177,5.2994,5.4399,5.5585,5.5585,5.6943,5.7997,5.7997,5.7997,5.7997,5.7997,5.7997,5.8327,5.9123,5.993,6.075,6.152,6.2365,6.2793,6.2793,6.2793,6.2829,6.2903,6.4481,6.5325,6.5398,6.6916,6.77,6.77,6.77,6.77,6.77,6.77,6.77,6.77,6.77,6.77,6.77,6.77,6.77,6.77,6.77,6.77,6.77,6.77,6.77,6.77,6.77,6.77,6.77,6.77,6.77,6.77,6.77,6.77,6.77,6.77,6.77,6.77,6.77,6.77,6.77,6.77,6.77,6.77,6.77,6.77,6.77,6.77,6.77,6.77,6.77,6.77,6.77,6.77,6.77,6.77,6.77,6.77,6.77,6.77,6.77,6.77,6.77,6.77,6.77,6.77,6.77,6.77,6.77,6.77,6.7956,6.8499,6.9021,6.9569,7.0103,7.0637,7.0898,7.0898,7.0898,7.0898,3.7764,4.1368,0.0,0.0,4.904,5.0215,5.0021,5.1379,5.1783,4.8544,5.0719,5.281,5.1563,5.3665,5.5585,5.5585,5.6943,5.7997,5.7997,5.7997,5.7997,5.7997,5.7997,5.8327,5.9123,5.993,6.075,6.152,6.2365,6.2793,6.2793,6.2793,6.3123,6.3796,6.4774,6.5582,6.6256,6.7223,6.77,6.77,6.77,6.77,6.77,6.77,6.77,6.77,6.77,6.77,6.77,6.77,6.77,6.77,6.77,6.77,6.77,6.77,6.77,6.77,6.77,6.77,6.77,6.77,6.77,6.77,6.77,6.77,6.77,6.77,6.77,6.77,6.77,6.77,6.77,6.77,6.77,6.77,6.77,6.77,6.77,6.77,6.77,6.77,6.77,6.77,6.77,6.77,6.77,6.77,6.77,6.77,6.77,6.77,6.77,6.77,6.77,6.77,6.77,6.77,6.77,6.77,6.77,6.77,6.7956,6.8499,6.9021,6.9569,7.0103,7.0637,7.0898,7.0898,7.0898,7.0898,3.8395,0.0,0.0,4.7599,0.0,5.0802,5.0802,5.204,5.259,5.0462,5.1709,5.2957,5.2113,5.3959,5.5585,5.5585,5.6943,5.7997,5.7997,5.7997,5.7997,5.7997,5.7997,5.8143,5.8572,5.971,6.0566,6.1006,6.2132,6.2793,6.2793,6.2793,6.3209,6.4066,6.4897,6.5692,6.6476,6.7297,6.77,6.77,6.77,6.77,6.77,6.77,6.77,6.77,6.77,6.77,6.77,6.77,6.77,6.77,6.77,6.77,6.77,6.77,6.77,6.77,6.77,6.77,6.77,6.77,6.77,6.77,6.77,6.77,6.77,6.77,6.77,6.77,6.77,6.77,6.77,6.77,6.77,6.77,6.77,6.77,6.77,6.77,6.77,6.77,6.77,6.77,6.77,6.77,6.77,6.77,6.77,6.77,6.77,6.77,6.77,6.77,6.77,6.77,6.77,6.77,6.77,6.77,6.77,6.77,6.8072,6.8847,6.9158,6.9692,7.0486,7.0769,7.0898,7.0898,7.0898,7.0898,3.8065,0.0,4.4461,4.7535,4.9554,0.0,5.0802,5.204,5.3214,5.3214,5.3214,5.3214,5.3214,5.4509,5.5585,5.5585,5.6943,5.7997,5.7997,5.7997,5.7997,5.7997,5.7997,5.7997,5.7997,5.9465,6.0419,6.0419,6.1875,6.2793,6.2793,6.2793,6.327,6.4273,6.4958,6.5742,6.6696,6.737,6.77,6.77,6.77,6.77,6.77,6.77,6.77,6.77,6.77,6.77,6.77,6.77,6.77,6.77,6.77,6.77,6.77,6.77,6.77,6.77,6.77,6.77,6.77,6.77,6.77,6.77,6.77,6.77,6.77,6.77,6.77,6.77,6.77,6.77,6.77,6.77,6.77,6.77,6.77,6.77,6.77,6.77,6.77,6.77,6.77,6.77,6.77,6.77,6.77,6.77,6.77,6.77,6.77,6.77,6.77,6.77,6.77,6.77,6.77,6.77,6.77,6.77,6.77,6.77,6.8198,6.9282,6.9302,6.9811,7.0898,7.0898,7.0898,7.0898,7.0898,7.0898,0.0,0.0,4.514,0.0,4.9554,5.0802,0.0,0.0,5.3214,0.0,5.3214,5.3214,5.3214,5.4509,5.5585,5.5585,5.6943,5.7997,5.7997,5.7997,5.7997,5.7997,5.7997,5.7997,5.7997,5.9465,6.0419,6.0419,6.1875,6.2793,6.2793,6.2793,6.3527,6.5068,6.5251,6.6035,6.7517,6.7664,6.77,6.77,6.77,6.77,6.77,6.77,6.77,6.77,6.77,6.77,6.77,6.77,6.77,6.77,6.77,6.77,6.77,6.77,6.77,6.77,6.77,6.77,6.77,6.77,6.77,6.77,6.77,6.77,6.77,6.77,6.77,6.77,6.77,6.77,6.77,6.77,6.77,6.77,6.77,6.77,6.77,6.77,6.77,6.77,6.77,6.77,6.77,6.77,6.77,6.77,6.77,6.77,6.77,6.77,6.77,6.77,6.77,6.77,6.77,6.77,6.77,6.77,6.77,6.77,6.8198,6.9282,6.9302,6.9811,7.0898,7.0898,7.0898,7.0898,7.0898,7.0898,3.6192,4.081,4.5067,0.0,4.8893,5.0802,5.0802,5.204,5.3214,5.3214,5.3214,5.3214,5.3214,5.4142,5.5071,5.5548,5.6565,5.7483,5.7923,5.7997,5.7997,5.7997,5.7997,5.7997,5.7997,5.9465,6.0419,6.0419,6.1875,6.2793,6.2793,6.2793,6.3563,6.5251,6.5288,6.6072,6.7664,6.77,6.77,6.77,6.77,6.77,6.77,6.77,6.77,6.77,6.77,6.77,6.77,6.77,6.77,6.77,6.77,6.77,6.77,6.77,6.77,6.77,6.77,6.77,6.77,6.77,6.77,6.77,6.77,6.77,6.77,6.77,6.77,6.77,6.77,6.77,6.77,6.77,6.77,6.77,6.77,6.77,6.77,6.77,6.77,6.77,6.77,6.77,6.77,6.77,6.77,6.77,6.77,6.77,6.77,6.77,6.77,6.77,6.77,6.77,6.77,6.77,6.77,6.77,6.77,6.77,6.8198,6.9282,6.9302,6.9811,7.0898,7.0898,7.0898,7.0898,7.0898,7.0898,0.0,0.0,4.3314,4.5149,4.7609,4.9774,0.0,0.0,5.2957,5.3177,5.3214,5.3214,5.3214,5.3849,5.4656,5.5475,5.6271,5.7079,5.7886,5.7997,5.7997,5.7997,5.7997,5.7997,5.7997,5.9281,6.0187,6.0382,6.1692,6.2572,6.2793,6.2793,6.3563,6.5251,6.5288,6.6072,6.7664,6.77,6.77,6.77,6.77,6.77,6.77,6.77,6.77,6.77,6.77,6.77,6.77,6.77,6.77,6.77,6.77,6.77,6.77,6.77,6.77,6.77,6.77,6.77,6.77,6.77,6.77,6.77,6.77,6.77,6.77,6.77,6.77,6.77,6.77,6.77,6.77,6.77,6.77,6.77,6.77,6.77,6.77,6.77,6.77,6.77,6.77,6.77,6.77,6.77,6.77,6.77,6.77,6.77,6.77,6.77,6.77,6.77,6.77,6.77,6.77,6.77,6.77,6.77,6.77,6.77,6.8198,6.9282,6.9302,6.9811,7.0898,7.0898,7.0898,7.0898,7.0898,7.0898,0.0,3.7713,0.0,4.3599,4.548,0.0,0.0,0.0,5.227,5.3031,5.3214,5.3214,5.3214,5.3849,5.4656,5.5475,5.6271,5.7079,5.7886,5.7997,5.7997,5.7997,5.7997,5.7997,5.7997,5.8756,5.96,6.0346,6.119,6.1998,6.2756,6.2793,6.3563,6.5251,6.5288,6.6072,6.7664,6.77,6.77,6.77,6.77,6.77,6.77,6.77,6.77,6.77,6.77,6.77,6.77,6.77,6.77,6.77,6.77,6.77,6.77,6.77,6.77,6.77,6.77,6.77,6.77,6.77,6.77,6.77,6.77,6.77,6.77,6.77,6.77,6.77,6.77,6.77,6.77,6.77,6.77,6.77,6.77,6.77,6.77,6.77,6.77,6.77,6.77,6.77,6.77,6.77,6.77,6.77,6.77,6.77,6.77,6.77,6.77,6.77,6.77,6.77,6.77,6.77,6.77,6.77,6.77,6.77,6.8198,6.9282,6.9302,6.9811,7.0898,7.0898,7.0898,7.0898,7.0898,7.0898,0.0,0.0,0.0,4.0304,4.2616,4.4681,4.5856,4.8352,5.0555,5.0849,5.2123,5.3214,5.3214,5.3434,5.4069,5.5401,5.5842,5.6492,5.7813,5.7997,5.7997,5.7997,5.7997,5.7997,5.7997,5.8719,5.9526,6.0346,6.1153,6.1961,6.2756,6.2793,6.3563,6.5251,6.5288,6.6072,6.7664,6.77,6.77,6.77,6.77,6.77,6.77,6.77,6.77,6.77,6.77,6.77,6.77,6.77,6.77,6.77,6.77,6.77,6.77,6.77,6.77,6.77,6.77,6.77,6.77,6.77,6.77,6.77,6.77,6.77,6.77,6.77,6.77,6.77,6.77,6.77,6.77,6.77,6.77,6.77,6.77,6.77,6.77,6.77,6.77,6.77,6.77,6.77,6.77,6.77,6.77,6.77,6.77,6.77,6.77,6.77,6.77,6.77,6.77,6.77,6.77,6.77,6.77,6.77,6.77,6.8021,6.8581,6.9292,6.9645,7.0162,7.0898,7.0898,7.0898,7.0898,7.0898,7.0898,3.4297,0.0,0.0,0.0,3.9758,4.1854,4.3176,4.6223,4.8903,4.9454,5.1499,5.3214,5.3214,5.3214,5.3654,5.4997,5.5438,5.6062,5.7409,5.7813,5.7997,5.7997,5.7997,5.7997,5.7997,5.8474,5.9233,6.0309,6.0896,6.1667,6.2756,6.2793,6.3563,6.5251,6.5815,6.6623,6.77,6.77,6.77,6.77,6.77,6.77,6.77,6.77,6.77,6.77,6.77,6.77,6.77,6.77,6.77,6.77,6.77,6.77,6.77,6.77,6.77,6.77,6.77,6.77,6.77,6.77,6.77,6.77,6.77,6.77,6.77,6.77,6.77,6.77,6.77,6.77,6.77,6.77,6.77,6.77,6.77,6.77,6.77,6.77,6.77,6.77,6.77,6.77,6.77,6.77,6.77,6.77,6.77,6.77,6.77,6.77,6.77,6.77,6.77,6.77,6.77,6.77,6.77,6.77,6.77,6.821,6.8762,6.9292,6.982,7.0354,7.0898,7.0898,7.0898,7.0898,7.0898,7.0898,0.0,0.0,0.0,0.0,3.6971,3.8447,4.2405,4.5186,4.7369,4.9114,5.1389,5.3104,5.3177,5.3214,5.3471,5.4252,5.5071,5.5879,5.6712,5.7483,5.7997,5.7997,5.7997,5.7997,5.7997,5.7997,5.8657,6.0236,6.037,6.1068,6.2683,6.2829,6.36,6.5251,6.6843,6.77,6.77,6.77,6.77,6.77,6.77,6.77,6.77,6.77,6.77,6.77,6.77,6.77,6.77,6.77,6.77,6.77,6.77,6.77,6.77,6.77,6.77,6.77,6.77,6.77,6.77,6.77,6.77,6.77,6.77,6.77,6.77,6.77,6.77,6.77,6.77,6.77,6.77,6.77,6.77,6.77,6.77,6.77,6.77,6.77,6.77,6.77,6.77,6.77,6.77,6.77,6.77,6.77,6.77,6.77,6.77,6.77,6.77,6.77,6.77,6.77,6.77,6.77,6.77,6.77,6.77,6.8223,6.8784,6.9292,6.9838,7.037,7.0898,7.0898,7.0898,7.0898,7.0898,7.0898,3.4265,0.0,0.0,0.0,0.0,0.0,3.8623,4.0569,4.3167,4.7719,4.9177,5.0388,5.2774,5.3214,5.3287,5.3508,5.4693,5.5879,5.6712,5.7483,5.7997,5.7997,5.7997,5.7997,5.7997,5.7997,5.8437,5.9453,6.0077,6.086,6.1887,6.3637,6.4811,6.5288,6.6843,6.77,6.77,6.77,6.77,6.77,6.77,6.77,6.77,6.77,6.77,6.77,6.77,6.77,6.77,6.77,6.77,6.77,6.77,6.77,6.77,6.77,6.77,6.77,6.77,6.77,6.77,6.77,6.77,6.77,6.77,6.77,6.77,6.77,6.77,6.77,6.77,6.77,6.77,6.77,6.77,6.77,6.77,6.77,6.77,6.77,6.77,6.77,6.77,6.77,6.77,6.77,6.77,6.77,6.77,6.77,6.77,6.77,6.77,6.77,6.77,6.77,6.77,6.77,6.77,6.77,6.77,6.8579,6.9148,6.9302,7.0225,7.0755,7.0898,7.0898,7.0898,7.0898,7.0898,7.0898,0.0,0.0,0.0,0.0,0.0,0.0,3.5649,3.7742,4.0818,4.5764,4.6792,4.7783,5.1096,5.1122,5.0865,5.1573,5.3052,5.463,5.6088,5.7005,5.7629,5.796,5.7997,5.7997,5.7997,5.7997,5.8327,5.9159,5.993,6.0896,6.2034,6.3833,6.4958,6.5288,6.6549,6.737,6.77,6.77,6.77,6.77,6.77,6.77,6.77,6.77,6.77,6.77,6.77,6.77,6.77,6.77,6.77,6.77,6.77,6.77,6.77,6.77,6.77,6.77,6.77,6.77,6.77,6.77,6.77,6.77,6.77,6.77,6.77,6.77,6.77,6.77,6.77,6.77,6.77,6.77,6.77,6.77,6.77,6.77,6.77,6.77,6.77,6.77,6.77,6.77,6.77,6.77,6.77,6.77,6.77,6.77,6.77,6.77,6.77,6.77,6.77,6.77,6.77,6.77,6.77,6.7797,6.8009,6.8873,6.9413,6.9636,7.0471,7.0898,7.0898,7.0898,7.0898,7.0898,7.0898,7.0898,0.0,0.0,0.0,0.0,3.1846,0.0,3.366,3.6009,3.9232,4.3415,4.4076,4.4929,4.8279,4.7719,4.7232,4.8793,5.0482,5.2501,5.5108,5.6235,5.7068,5.7776,5.796,5.7997,5.7997,5.7997,5.829,5.9013,5.9893,6.1104,6.2719,6.3613,6.4457,6.5251,6.6072,6.688,6.77,6.77,6.77,6.77,6.77,6.77,6.77,6.77,6.77,6.77,6.77,6.77,6.77,6.77,6.77,6.77,6.77,6.77,6.77,6.77,6.77,6.77,6.77,6.77,6.77,6.77,6.77,6.77,6.77,6.77,6.77,6.77,6.77,6.77,6.77,6.77,6.77,6.77,6.77,6.77,6.77,6.77,6.77,6.77,6.77,6.77,6.77,6.77,6.77,6.77,6.77,6.77,6.77,6.77,6.77,6.77,6.77,6.77,6.77,6.77,6.77,6.77,6.7781,6.7983,6.8487,6.9074,6.9617,7.0095,7.063,7.0898,7.0898,7.0898,7.0898,7.0898,7.0898,7.0898,0.0,0.0,0.0,0.0,3.2277,0.0,3.377,3.38,3.5298,4.0691,4.0267,4.0092,4.3983,4.4424,4.4525,4.5516,4.7572,5.0325,5.4106,5.5868,5.6847,5.7042,5.7593,5.7997,5.7997,5.7997,5.807,5.8217,5.9575,6.1104,6.2719,6.3613,6.4457,6.5251,6.6072,6.688,6.77,6.77,6.77,6.77,6.77,6.77,6.77,6.77,6.77,6.77,6.77,6.77,6.77,6.77,6.77,6.77,6.77,6.77,6.77,6.77,6.77,6.77,6.77,6.77,6.77,6.77,6.77,6.77,6.77,6.77,6.77,6.77,6.77,6.77,6.77,6.77,6.77,6.77,6.77,6.77,6.77,6.77,6.77,6.77,6.77,6.77,6.77,6.77,6.77,6.77,6.77,6.77,6.77,6.77,6.77,6.77,6.77,6.77,6.77,6.77,6.77,6.77,6.811,6.838,6.8499,6.9443,6.9971,7.0103,7.063,7.0898,7.0898,7.0898,7.0898,7.0898,7.0898,7.0898,0.0,0.0,0.0,3.1235,0.0,0.0,0.0,3.2717,3.3874,3.8395,3.7661,3.7367,4.1046,4.1046,4.0899,4.2103,4.3975,4.6315,4.914,5.3408,5.6345,5.6737,5.7519,5.7997,5.7997,5.7997,5.8327,5.9134,5.9942,6.1104,6.2719,6.3196,6.4016,6.5251,6.5692,6.6476,6.77,6.77,6.77,6.77,6.77,6.77,6.77,6.77,6.77,6.77,6.77,6.77,6.77,6.77,6.77,6.77,6.77,6.77,6.77,6.77,6.77,6.77,6.77,6.77,6.77,6.77,6.77,6.77,6.77,6.77,6.77,6.77,6.77,6.77,6.77,6.77,6.77,6.77,6.77,6.77,6.77,6.77,6.77,6.77,6.77,6.77,6.77,6.77,6.77,6.77,6.77,6.77,6.77,6.77,6.77,6.77,6.77,6.77,6.77,6.77,6.77,6.77,6.8198,6.8614,6.8869,6.9683,7.0241,7.0494,7.0769,7.0898,7.0898,7.0898,7.0898,7.0898,7.0898,7.0898,0.0,0.0,0.0,0.0,0.0,3.1688,0.0,0.0,0.0,3.6145,3.5621,3.5521,3.8295,3.7735,3.7272,3.8521,4.0341,4.2066,4.3379,4.9297,5.3922,5.5012,5.5868,5.6602,5.7262,5.774,5.8584,6.004,6.0297,6.1031,6.2499,6.2719,6.3563,6.5251,6.5288,6.6072,6.7664,6.77,6.77,6.77,6.77,6.77,6.77,6.77,6.77,6.77,6.77,6.77,6.77,6.77,6.77,6.77,6.77,6.77,6.77,6.77,6.77,6.77,6.77,6.77,6.77,6.77,6.77,6.77,6.77,6.77,6.77,6.77,6.77,6.77,6.77,6.77,6.77,6.77,6.77,6.77,6.77,6.77,6.77,6.77,6.77,6.77,6.77,6.77,6.77,6.77,6.77,6.77,6.77,6.77,6.77,6.77,6.77,6.77,6.77,6.77,6.77,6.77,6.8308,6.8873,6.9282,6.9901,7.0463,7.0891,7.0898,7.0898,7.0898,7.0898,7.0898,7.0898,7.0898,7.0898,0.0,0.0,0.0,0.0,3.4419,0.0,3.2647,0.0,3.3408,3.378,0.0,3.3842,3.4672,0.0,0.0,3.4485,3.711,3.9158,3.9342,4.3158,4.6755,4.8994,4.9994,5.161,5.4509,5.6748,5.8364,5.9269,6.0003,6.0786,6.1704,6.2389,6.3563,6.5251,6.5288,6.6072,6.7664,6.77,6.77,6.77,6.77,6.77,6.77,6.77,6.77,6.77,6.77,6.77,6.77,6.77,6.77,6.77,6.77,6.77,6.77,6.77,6.77,6.77,6.77,6.77,6.77,6.77,6.77,6.77,6.77,6.77,6.77,6.77,6.77,6.77,6.77,6.77,6.77,6.77,6.77,6.77,6.77,6.77,6.77,6.77,6.77,6.77,6.77,6.77,6.77,6.77,6.77,6.77,6.77,6.77,6.77,6.77,6.77,6.77,6.77,6.77,6.77,6.77,6.8648,6.9241,6.9302,7.0274,7.0857,7.0898,7.0898,7.0898,7.0898,7.0898,7.0898,7.0898,7.0898,7.0898,0.0,0.0,0.0,0.0,0.0,0.0,3.4343,0.0,3.3393,0.0,0.0,0.0,0.0,0.0,0.0,0.0,3.5436,3.6545,3.6545,3.8424,4.1589,4.6324,4.8049,5.0288,5.4032,5.4032,5.495,5.7618,5.8132,5.8866,6.015,6.1875,6.3563,6.5251,6.5288,6.6072,6.7664,6.77,6.77,6.77,6.77,6.77,6.77,6.77,6.77,6.77,6.77,6.77,6.77,6.77,6.77,6.77,6.77,6.77,6.77,6.77,6.77,6.77,6.77,6.77,6.77,6.77,6.77,6.77,6.77,6.77,6.77,6.77,6.77,6.77,6.77,6.77,6.77,6.77,6.77,6.77,6.77,6.77,6.77,6.77,6.77,6.77,6.77,6.77,6.77,6.77,6.77,6.77,6.77,6.77,6.77,6.77,6.77,6.77,6.77,6.7994,6.8148,6.8148,6.9179,6.9883,7.0225,7.0652,7.0898,7.0898,7.0898,7.0898,7.0898,7.0898,7.0898,7.0898,7.0898,7.0898,4.2213,0.0,0.0,0.0,0.0,0.0,0.0,0.0,0.0,0.0,3.4636,0.0,0.0,0.0,0.0,0.0,0.0,3.4601,3.438,3.5085,3.7661,4.3277,4.592,4.8489,5.1463,5.0986,5.1683,5.462,5.5453,5.6627,5.8462,6.0627,6.2866,6.5215,6.5288,6.6072,6.7664,6.77,6.77,6.77,6.77,6.77,6.77,6.77,6.77,6.77,6.77,6.77,6.77,6.77,6.77,6.77,6.77,6.77,6.77,6.77,6.77,6.77,6.77,6.77,6.77,6.77,6.77,6.77,6.77,6.77,6.77,6.77,6.77,6.77,6.77,6.77,6.77,6.77,6.77,6.77,6.77,6.77,6.77,6.77,6.77,6.77,6.77,6.77,6.77,6.77,6.77,6.77,6.77,6.77,6.7781,6.7891,6.7917,6.7994,6.8135,6.8499,6.8795,6.8924,6.9683,7.0338,7.0885,7.0898,7.0898,7.0898,7.0898,7.0898,7.0898,7.0898,7.0898,7.0898,7.0898,7.0898,0.0,0.0,0.0,4.597,0.0,0.0,0.0,0.0,3.637,0.0,0.0,0.0,0.0,0.0,0.0,0.0,0.0,0.0,0.0,3.336,3.5128,3.8534,4.2424,4.4883,4.4993,4.7838,4.9674,4.9831,5.2013,5.4352,5.6737,5.8425,6.1141,6.5178,6.5288,6.6072,6.7664,6.77,6.77,6.77,6.77,6.77,6.77,6.77,6.77,6.77,6.77,6.77,6.77,6.77,6.77,6.77,6.77,6.77,6.77,6.77,6.77,6.77,6.77,6.77,6.77,6.77,6.77,6.77,6.77,6.77,6.77,6.77,6.77,6.77,6.77,6.77,6.77,6.77,6.77,6.77,6.77,6.77,6.77,6.77,6.77,6.77,6.77,6.77,6.77,6.77,6.77,6.77,6.77,6.77,6.7891,6.8416,6.8476,6.8682,6.921,6.9272,6.9501,7.0035,7.0086,7.0338,7.0885,7.0898,7.0898,7.0898,7.0898,7.0898,7.0898,7.0898,7.0898,7.0898,7.0898,7.0898,5.1534,5.0662,4.9449,5.0742,4.7207,4.3067,4.1694,0.0,0.0,0.0,0.0,0.0,0.0,0.0,0.0,0.0,0.0,0.0,0.0,3.4578,3.5862,3.6964,3.9717,4.2359,4.448,4.4745,4.5663,4.7783,4.9701,5.205,5.506,5.7765,6.1068,6.5178,6.5288,6.6072,6.7664,6.77,6.77,6.77,6.77,6.77,6.77,6.77,6.77,6.77,6.77,6.77,6.77,6.77,6.77,6.77,6.77,6.77,6.77,6.77,6.77,6.77,6.77,6.77,6.77,6.77,6.77,6.77,6.77,6.77,6.77,6.77,6.77,6.77,6.77,6.77,6.77,6.77,6.77,6.77,6.77,6.77,6.77,6.77,6.77,6.77,6.77,6.77,6.77,6.77,6.77,6.77,6.77,6.77,6.7891,6.844,6.8511,6.8717,6.9262,6.9636,7.0061,7.0608,7.063,7.0688,7.0891,7.0898,7.0898,7.0898,7.0898,7.0898,7.0898,7.0898,7.0898,7.0898,7.0898,7.0898,5.4757,5.4069,5.3127,5.4633,5.1135,4.7077,4.6079,4.3893,4.1672,0.0,0.0,0.0,0.0,0.0,0.0,0.0,0.0,0.0,0.0,3.5422,3.642,3.6677,3.8366,4.0414,4.2755,4.2314,4.2865,4.5214,4.7168,4.9884,5.3775,5.648,6.004,6.4751,6.5141,6.5925,6.726,6.7554,6.77,6.77,6.77,6.77,6.77,6.77,6.77,6.77,6.77,6.77,6.77,6.77,6.77,6.77,6.77,6.77,6.77,6.77,6.77,6.77,6.77,6.77,6.77,6.77,6.77,6.77,6.77,6.77,6.77,6.77,6.77,6.77,6.77,6.77,6.77,6.77,6.77,6.77,6.77,6.77,6.77,6.77,6.77,6.77,6.77,6.77,6.77,6.77,6.77,6.77,6.77,6.77,6.7982,6.8717,6.8795,6.9085,6.9793,7.0208,7.0524,7.0885,7.0898,7.0898,7.0898,7.0898,7.0898,7.0898,7.0898,7.0898,7.0898,7.0898,7.0898,7.0898,7.0898,7.0898]}]]